[[{"header":{"parameterUnit":"m.s-1","parameterCategory":1,"la1":31.0,"la2":29.5877,"lo1":-88.7671,"lo2":-86.6584,"dy":0.0162,"dx":0.0185,"nx":115,"ny":88,"refTime":"2023-05-28T00:00:00:Z","depth":0,"parameterNumber":2,"parameterNumberName":"U-component_of_WINDS"},"data":[0.0,0.0,0.0,0.0,0.0,0.0,0.0,0.0,0.0,0.0,0.0,0.0,0.0,0.0,0.0,0.0,0.0,0.0,0.0,0.0,0.0,0.0,0.0,0.0,0.0,0.0,0.0,0.0,0.0,0.0,0.0,0.0,0.0,0.0,0.0,0.0,0.0,0.0,0.0,0.0,0.0,0.0,0.0,0.0,0.0,0.0,0.0,0.0,0.0,0.0,0.0,0.0,0.0,0.0,0.0,0.0,0.0,0.0,0.0,0.0,0.0,0.0,0.0,0.0,0.0,0.0,0.0,0.0,0.0,0.0,0.0,0.0,0.0,0.0,0.0,0.0,0.0,0.0,0.0,0.0,0.0,0.0,0.0,0.0,0.0,0.0,0.0,0.0,0.0,0.0,0.0,0.0,0.0,0.0,0.0,0.0,0.0,0.0,0.0,0.0,0.0,0.0,0.0,0.0,0.0,0.0,0.0,0.0,0.0,0.0,0.0,0.0,0.0,0.0,0.0,0.0,0.0,0.0,0.0,0.0,0.0,0.0,0.0,0.0,0.0,0.0,0.0,0.0,0.0,0.0,0.0,0.0,0.0,0.0,0.0,0.0,0.0,0.0,0.0,0.0,0.0,0.0,0.0,0.0,0.0,0.0,0.0,0.0,0.0,0.0,0.0,0.0,0.0,0.0,0.0,0.0,0.0,0.0,0.0,0.0,0.0,0.0,0.0,0.0,0.0,0.0,0.0,0.0,0.0,0.0,0.0,0.0,0.0,0.0,0.0,0.0,0.0,0.0,0.0,0.0,0.0,0.0,0.0,0.0,0.0,0.0,0.0,0.0,0.0,0.0,0.0,0.0,0.0,0.0,0.0,0.0,0.0,0.0,0.0,0.0,0.0,0.0,0.0,0.0,0.0,0.0,0.0,0.0,0.0,0.0,0.0,0.0,0.0,0.0,0.0,0.0,0.0,0.0,0.0,0.0,0.0,0.0,0.0,0.0,0.0,0.0,0.0,0.0,0.0,0.0,0.0,0.0,0.0,0.0,0.0,0.0,0.0,0.0,0.0,0.0,0.0,0.0,0.0,0.0,0.0,0.0,0.0,0.0,0.0,0.0,0.0,0.0,0.0,0.0,0.0,0.0,0.0,0.0,0.0,0.0,0.0,0.0,0.0,0.0,0.0,0.0,0.0,0.0,0.0,0.0,0.0,0.0,0.0,0.0,0.0,0.0,0.0,0.0,0.0,0.0,0.0,0.0,0.0,0.0,0.0,0.0,0.0,0.0,0.0,0.0,0.0,0.0,0.0,0.0,0.0,0.0,0.0,0.0,0.0,0.0,0.0,0.0,0.0,0.0,0.0,0.0,0.0,0.0,0.0,0.0,0.0,0.0,0.0,0.0,0.0,0.0,0.0,0.0,0.0,0.0,0.0,0.0,0.0,0.0,0.0,0.0,0.0,0.0,0.0,0.0,0.0,0.0,0.0,0.0,0.0,0.0,0.0,0.0,0.0,0.0,0.0,0.0,0.0,0.0,0.0,0.0,0.0,0.0,0.0,0.0,0.0,0.0,0.0,0.0,0.0,0.0,0.0,0.0,0.0,0.0,0.0,0.0,0.0,0.0,0.0,0.0,0.0,0.0,0.0,0.0,0.0,0.0,0.0,0.0,0.0,0.0,0.0,0.0,0.0,0.0,0.0,0.0,0.0,0.0,0.0,0.0,0.0,0.0,0.0,0.0,0.0,0.0,0.0,0.0,0.0,0.0,0.0,0.0,0.0,0.0,0.0,0.0,0.0,0.0,0.0,0.0,0.0,0.0,0.0,0.0,0.0,0.0,0.0,0.0,0.0,0.0,0.0,0.0,0.0,0.0,0.0,0.0,0.0,0.0,0.0,0.0,0.0,0.0,0.0,0.0,0.0,0.0,0.0,0.0,0.0,0.0,0.0,0.0,0.0,0.0,0.0,0.0,0.0,0.0,0.0,0.0,0.0,0.0,0.0,0.0,0.0,0.0,0.0,0.0,0.0,0.0,0.0,0.0,0.0,0.0,0.0,0.0,0.0,0.0,0.0,0.0,0.0,0.0,0.0,0.0,0.0,0.0,0.0,0.0,0.0,0.0,0.0,0.0,0.0,0.0,0.0,0.0,0.0,0.0,0.0,0.0,0.0,0.0,0.0,0.0,0.0,0.0,0.0,0.0,0.0,0.0,0.0,0.0,0.0,0.0,0.0,0.0,0.0,0.0,0.0,0.0,0.0,0.0,0.0,0.0,0.0,0.0,0.0,0.0,0.0,0.0,0.0,0.0,0.0,0.0,0.0,0.0,0.0,0.0,0.0,0.0,0.0,0.0,0.0,0.0,0.0,0.0,0.0,0.0,0.0,0.0,0.0,0.0,0.0,0.0,0.0,0.0,0.0,0.0,0.0,0.0,0.0,0.0,0.0,0.0,0.0,0.0,0.0,0.0,0.0,0.0,0.0,0.0,0.0,0.0,0.0,0.0,0.0,0.0,0.0,0.0,0.0,0.0,0.0,0.0,0.0,0.0,0.0,0.0,0.0,0.0,0.0,0.0,0.0,0.0,0.0,0.0,0.0,0.0,0.0,0.0,0.0,0.0,0.0,0.0,0.0,0.0,0.0,0.0,0.0,0.0,0.0,0.0,0.0,0.0,0.0,0.0,0.0,0.0,0.0,0.0,0.0,0.0,0.0,0.0,0.0,0.0,0.0,0.0,0.0,0.0,0.0,0.0,0.0,0.0,0.0,0.0,0.0,0.0,0.0,0.0,0.0,0.0,0.0,0.0,0.0,0.0,0.0,0.0,0.0,0.0,0.0,0.0,0.0,0.0,0.0,0.0,0.0,0.0,0.0,0.0,0.0,0.0,0.0,0.0,0.0,0.0,0.0,0.0,0.0,0.0,0.0,0.0,0.0,0.0,0.0,0.0,0.0,0.0,0.0,0.0,0.0,0.0,0.0,0.0,0.0,0.0,0.0,0.0,0.0,0.0,0.0,0.0,0.0,0.0,0.0,0.0,0.0,0.0,0.0,0.0,0.0,0.0,0.0,0.0,0.0,0.0,0.0,0.0,0.0,0.0,0.0,0.0,0.0,0.0,0.0,0.0,0.0,0.0,0.0,0.0,0.0,0.0,0.0,0.0,0.0,0.0,0.0,0.0,0.0,0.0,0.0,0.0,0.0,0.0,0.0,0.0,0.0,0.0,0.0,0.0,0.0,0.0,0.0,0.0,0.0,0.0,0.0,0.0,0.0,0.0,0.0,0.0,0.0,0.0,0.0,0.0,0.0,0.0,0.0,0.0,0.0,0.0,0.0,0.0,0.0,0.0,0.0,0.0,0.0,0.0,0.0,0.0,0.0,0.0,0.0,0.0,0.0,0.0,0.0,0.0,0.0,0.0,0.0,0.0,0.0,0.0,0.0,0.0,0.0,0.0,0.0,0.0,0.0,0.0,0.0,0.0,0.0,0.0,0.0,0.0,0.0,0.0,0.0,0.0,0.0,0.0,0.0,0.0,0.0,0.0,0.0,0.0,0.0,0.0,0.0,0.0,0.0,0.0,0.0,0.0,0.0,0.0,0.0,0.0,0.0,0.0,0.0,0.0,0.0,0.0,0.0,0.0,0.0,0.0,0.0,0.0,0.0,0.0,0.0,0.0,0.0,0.0,0.0,0.0,0.0,0.0,0.0,0.0,0.0,0.0,0.0,0.0,0.0,0.0,0.0,0.0,0.0,0.0,0.0,0.0,0.0,0.0,0.0,0.0,0.0,0.0,0.0,0.0,0.0,0.0,0.0,0.0,0.0,0.0,0.0,0.0,0.0,0.0,0.0,0.0,0.0,0.0,0.0,0.0,0.0,0.0,0.0,0.0,0.0,0.0,0.0,0.0,0.0,0.0,0.0,0.0,0.0,0.0,0.0,0.0,0.0,0.0,0.0,0.0,0.0,0.0,0.0,0.0,0.0,0.0,0.0,0.0,0.0,0.0,0.0,0.0,0.0,0.0,0.0,0.0,0.0,0.0,0.0,0.0,0.0,0.0,0.0,0.0,0.0,0.0,0.0,0.0,0.0,0.0,0.0,0.0,0.0,0.0,0.0,0.0,0.0,0.0,0.0,0.0,0.0,0.0,0.0,0.0,0.0,0.0,0.0,0.0,0.0,0.0,0.0,0.0,0.0,0.0,0.0,0.0,0.0,0.0,0.0,0.0,0.0,0.0,0.0,0.0,0.0,0.0,0.0,0.0,0.0,0.0,0.0,0.0,0.0,0.0,0.0,0.0,-1.5164,0.0,0.0,0.0,0.0,0.0,0.0,0.0,0.0,0.0,0.0,0.0,0.0,0.0,0.0,0.0,0.0,0.0,0.0,0.0,0.0,0.0,0.0,0.0,0.0,0.0,0.0,0.0,0.0,0.0,0.0,0.0,0.0,0.0,0.0,0.0,0.0,0.0,0.0,0.0,0.0,0.0,0.0,0.0,0.0,0.0,0.0,0.0,0.0,0.0,0.0,0.0,0.0,0.0,0.0,0.0,0.0,0.0,0.0,0.0,0.0,0.0,0.0,0.0,0.0,0.0,0.0,0.0,0.0,0.0,0.0,0.0,0.0,0.0,0.0,0.0,0.0,0.0,0.0,0.0,0.0,0.0,0.0,0.0,0.0,0.0,0.0,0.0,0.0,0.0,0.0,0.0,0.0,0.0,0.0,0.0,0.0,0.0,0.0,0.0,0.0,0.0,0.0,0.0,0.0,0.0,0.0,0.0,0.0,0.0,0.0,-1.5822,-1.5579,-1.5085,-1.5028,-1.5468,0.0,0.0,0.0,0.0,0.0,0.0,0.0,0.0,0.0,0.0,0.0,0.0,0.0,0.0,0.0,0.0,0.0,0.0,0.0,0.0,0.0,0.0,0.0,0.0,0.0,0.0,0.0,0.0,0.0,0.0,0.0,0.0,0.0,0.0,0.0,0.0,0.0,0.0,0.0,0.0,0.0,0.0,0.0,0.0,0.0,0.0,0.0,0.0,0.0,0.0,0.0,0.0,0.0,0.0,0.0,0.0,0.0,0.0,0.0,0.0,0.0,0.0,0.0,0.0,0.0,0.0,0.0,0.0,0.0,0.0,0.0,0.0,0.0,0.0,0.0,0.0,0.0,0.0,0.0,0.0,0.0,0.0,0.0,0.0,0.0,0.0,0.0,0.0,0.0,0.0,0.0,0.0,0.0,0.0,0.0,0.0,0.0,0.0,0.0,0.0,0.0,0.0,0.0,0.0,0.0,0.0,0.0,0.0,0.0,0.0,0.0,0.0,-1.5842,-1.5591,-1.568,0.0,0.0,0.0,0.0,0.0,0.0,0.0,0.0,0.0,0.0,0.0,0.0,0.0,0.0,0.0,0.0,0.0,0.0,0.0,0.0,0.0,0.0,0.0,0.0,0.0,0.0,0.0,0.0,0.0,0.0,0.0,0.0,0.0,0.0,0.0,0.0,0.0,0.0,0.0,0.0,0.0,0.0,0.0,0.0,0.0,0.0,0.0,0.0,0.0,0.0,0.0,0.0,0.0,0.0,0.0,0.0,0.0,0.0,0.0,0.0,0.0,0.0,0.0,0.0,0.0,0.0,0.0,0.0,0.0,0.0,0.0,0.0,0.0,0.0,0.0,0.0,0.0,0.0,0.0,0.0,0.0,0.0,0.0,0.0,0.0,0.0,0.0,0.0,0.0,0.0,0.0,0.0,0.0,0.0,0.0,0.0,0.0,0.0,0.0,0.0,0.0,0.0,0.0,0.0,0.0,0.0,0.0,0.0,0.0,0.0,-1.7075,-1.656,-1.6068,0.0,-1.6194,0.0,0.0,0.0,0.0,0.0,0.0,0.0,0.0,0.0,0.0,0.0,0.0,0.0,0.0,0.0,0.0,0.0,0.0,0.0,0.0,0.0,0.0,0.0,0.0,0.0,0.0,0.0,0.0,0.0,0.0,0.0,0.0,0.0,0.0,0.0,0.0,0.0,0.0,0.0,0.0,0.0,0.0,0.0,0.0,0.0,0.0,0.0,0.0,0.0,0.0,0.0,0.0,0.0,0.0,0.0,0.0,0.0,0.0,0.0,0.0,0.0,0.0,0.0,0.0,0.0,0.0,0.0,0.0,0.0,0.0,0.0,0.0,0.0,0.0,0.0,0.0,0.0,0.0,0.0,0.0,0.0,0.0,0.0,0.0,0.0,0.0,0.0,0.0,0.0,0.0,0.0,0.0,0.0,0.0,0.0,0.0,0.0,0.0,0.0,0.0,0.0,0.0,0.0,0.0,0.0,0.0,0.0,0.0,0.0,0.0,-1.7775,-1.7325,-1.6497,-1.61,0.0,0.0,0.0,0.0,0.0,0.0,0.0,0.0,0.0,0.0,0.0,0.0,0.0,0.0,0.0,0.0,0.0,0.0,0.0,0.0,0.0,0.0,0.0,0.0,0.0,0.0,0.0,0.0,0.0,0.0,0.0,0.0,0.0,0.0,0.0,0.0,0.0,0.0,0.0,0.0,0.0,0.0,0.0,0.0,0.0,0.0,0.0,0.0,0.0,0.0,0.0,0.0,0.0,0.0,0.0,0.0,0.0,0.0,0.0,0.0,0.0,0.0,0.0,0.0,0.0,0.0,0.0,0.0,0.0,0.0,0.0,0.0,0.0,0.0,0.0,0.0,0.0,0.0,0.0,0.0,0.0,0.0,0.0,0.0,0.0,0.0,0.0,0.0,0.0,0.0,0.0,0.0,0.0,0.0,0.0,0.0,0.0,0.0,0.0,0.0,0.0,0.0,0.0,0.0,0.0,0.0,0.0,0.0,0.0,0.0,-1.8815,-1.8179,-1.7589,-1.6792,-1.6383,-1.6383,0.0,0.0,0.0,0.0,0.0,0.0,0.0,0.0,0.0,0.0,0.0,0.0,0.0,0.0,0.0,0.0,0.0,0.0,0.0,0.0,0.0,0.0,0.0,0.0,0.0,0.0,0.0,0.0,0.0,0.0,0.0,0.0,0.0,0.0,0.0,0.0,0.0,0.0,0.0,0.0,0.0,0.0,0.0,0.0,0.0,0.0,0.0,0.0,0.0,0.0,0.0,0.0,0.0,0.0,0.0,0.0,0.0,0.0,0.0,0.0,0.0,0.0,0.0,0.0,0.0,0.0,0.0,0.0,0.0,0.0,0.0,0.0,0.0,0.0,0.0,0.0,0.0,0.0,0.0,0.0,0.0,0.0,0.0,0.0,0.0,0.0,0.0,0.0,0.0,0.0,0.0,0.0,0.0,0.0,0.0,0.0,0.0,0.0,0.0,0.0,0.0,0.0,0.0,0.0,0.0,0.0,0.0,0.0,-1.9901,-1.907,-1.8093,-1.7097,-1.6888,-1.682,0.0,0.0,0.0,0.0,0.0,0.0,0.0,0.0,0.0,0.0,0.0,0.0,0.0,0.0,0.0,0.0,0.0,0.0,0.0,0.0,0.0,0.0,0.0,0.0,0.0,0.0,0.0,0.0,0.0,0.0,0.0,0.0,0.0,0.0,0.0,0.0,0.0,0.0,0.0,0.0,0.0,0.0,0.0,0.0,0.0,0.0,0.0,0.0,0.0,0.0,0.0,0.0,0.0,0.0,0.0,0.0,0.0,0.0,0.0,0.0,0.0,0.0,0.0,0.0,0.0,0.0,0.0,0.0,0.0,0.0,0.0,0.0,0.0,0.0,0.0,0.0,0.0,0.0,0.0,0.0,0.0,0.0,0.0,0.0,0.0,0.0,0.0,0.0,0.0,0.0,0.0,0.0,0.0,0.0,0.0,0.0,0.0,0.0,0.0,0.0,0.0,0.0,0.0,0.0,0.0,0.0,0.0,0.0,0.0,-2.0194,-1.9334,-1.8522,-1.7787,-1.7373,-1.703,0.0,0.0,0.0,0.0,0.0,0.0,0.0,0.0,0.0,0.0,0.0,0.0,0.0,0.0,0.0,0.0,0.0,0.0,0.0,0.0,0.0,0.0,0.0,0.0,0.0,0.0,0.0,0.0,0.0,0.0,0.0,0.0,0.0,0.0,0.0,0.0,0.0,0.0,0.0,0.0,0.0,0.0,0.0,0.0,0.0,0.0,0.0,0.0,0.0,0.0,0.0,0.0,0.0,0.0,0.0,0.0,0.0,0.0,0.0,0.0,0.0,0.0,0.0,0.0,0.0,0.0,0.0,0.0,0.0,0.0,0.0,0.0,0.0,0.0,0.0,0.0,0.0,0.0,0.0,0.0,0.0,0.0,0.0,0.0,0.0,0.0,0.0,0.0,0.0,0.0,0.0,0.0,0.0,0.0,0.0,0.0,0.0,0.0,0.0,0.0,0.0,0.0,0.0,0.0,0.0,0.0,0.0,0.0,0.0,-2.0169,0.0,-1.8978,-1.848,-1.8037,-1.7485,0.0,0.0,0.0,0.0,0.0,0.0,0.0,0.0,0.0,0.0,0.0,0.0,0.0,0.0,0.0,0.0,0.0,0.0,0.0,0.0,0.0,0.0,0.0,0.0,0.0,0.0,0.0,0.0,0.0,0.0,0.0,0.0,0.0,0.0,0.0,0.0,0.0,0.0,0.0,0.0,0.0,0.0,0.0,0.0,0.0,0.0,0.0,0.0,0.0,0.0,0.0,0.0,0.0,0.0,0.0,0.0,0.0,0.0,0.0,0.0,0.0,0.0,0.0,0.0,0.0,0.0,0.0,0.0,0.0,0.0,0.0,0.0,0.0,0.0,0.0,0.0,0.0,0.0,0.0,0.0,0.0,0.0,0.0,0.0,0.0,0.0,0.0,0.0,0.0,0.0,0.0,0.0,0.0,0.0,0.0,0.0,0.0,0.0,0.0,0.0,0.0,0.0,0.0,0.0,0.0,0.0,0.0,0.0,-1.9565,-1.9811,-1.9731,-1.9461,-1.9007,-1.8766,-1.8292,0.0,0.0,0.0,0.0,0.0,0.0,0.0,0.0,0.0,0.0,0.0,0.0,0.0,0.0,0.0,0.0,0.0,0.0,0.0,0.0,0.0,0.0,0.0,0.0,0.0,0.0,0.0,0.0,0.0,0.0,0.0,0.0,0.0,0.0,0.0,0.0,0.0,0.0,0.0,0.0,0.0,0.0,0.0,0.0,0.0,0.0,0.0,0.0,0.0,0.0,0.0,0.0,0.0,0.0,0.0,0.0,0.0,0.0,0.0,0.0,0.0,0.0,0.0,0.0,0.0,0.0,0.0,0.0,0.0,0.0,0.0,0.0,0.0,0.0,0.0,0.0,0.0,0.0,0.0,0.0,0.0,0.0,0.0,0.0,0.0,0.0,0.0,0.0,0.0,0.0,0.0,0.0,0.0,0.0,0.0,0.0,0.0,0.0,0.0,0.0,0.0,0.0,0.0,0.0,0.0,0.0,0.0,0.0,0.0,-2.0334,-1.9965,-1.9522,-1.9032,-1.903,-1.8549,0.0,0.0,0.0,0.0,0.0,0.0,0.0,0.0,0.0,0.0,0.0,0.0,0.0,0.0,0.0,0.0,0.0,0.0,0.0,0.0,0.0,0.0,0.0,0.0,0.0,0.0,0.0,0.0,0.0,0.0,0.0,0.0,0.0,0.0,0.0,0.0,0.0,0.0,0.0,0.0,0.0,0.0,0.0,0.0,0.0,0.0,0.0,0.0,0.0,0.0,0.0,0.0,0.0,0.0,0.0,0.0,0.0,0.0,0.0,0.0,0.0,0.0,0.0,0.0,0.0,0.0,0.0,0.0,0.0,0.0,0.0,0.0,0.0,0.0,0.0,0.0,0.0,0.0,0.0,0.0,0.0,0.0,0.0,0.0,0.0,0.0,0.0,0.0,0.0,0.0,0.0,0.0,0.0,0.0,0.0,0.0,0.0,0.0,0.0,0.0,0.0,0.0,0.0,0.0,0.0,0.0,0.0,0.0,0.0,-2.0283,-2.0016,-1.9711,-1.9397,-1.9491,-1.9114,-1.8234,0.0,0.0,0.0,0.0,0.0,0.0,0.0,0.0,0.0,0.0,0.0,0.0,0.0,0.0,0.0,0.0,0.0,0.0,0.0,0.0,0.0,0.0,0.0,0.0,0.0,0.0,0.0,0.0,0.0,0.0,0.0,0.0,0.0,0.0,0.0,0.0,0.0,0.0,0.0,0.0,0.0,0.0,0.0,0.0,0.0,0.0,0.0,0.0,0.0,0.0,0.0,0.0,0.0,0.0,0.0,0.0,0.0,0.0,0.0,0.0,0.0,0.0,0.0,0.0,0.0,0.0,0.0,0.0,0.0,0.0,0.0,0.0,0.0,0.0,0.0,0.0,0.0,0.0,0.0,0.0,0.0,0.0,0.0,0.0,0.0,0.0,0.0,0.0,0.0,0.0,0.0,0.0,0.0,0.0,0.0,0.0,0.0,0.0,0.0,0.0,0.0,0.0,0.0,0.0,0.0,0.0,0.0,0.0,-1.9798,-1.9952,-2.0016,-1.9991,-2.0064,-1.9898,0.0,0.0,0.0,0.0,0.0,0.0,0.0,0.0,0.0,0.0,0.0,0.0,0.0,0.0,0.0,0.0,0.0,0.0,0.0,0.0,0.0,0.0,0.0,0.0,0.0,0.0,0.0,0.0,0.0,0.0,0.0,0.0,0.0,0.0,0.0,0.0,0.0,0.0,0.0,0.0,0.0,0.0,0.0,0.0,0.0,0.0,0.0,0.0,0.0,0.0,0.0,0.0,0.0,0.0,0.0,0.0,0.0,0.0,0.0,0.0,0.0,0.0,0.0,0.0,0.0,0.0,0.0,0.0,0.0,0.0,0.0,0.0,0.0,0.0,0.0,0.0,0.0,0.0,0.0,0.0,0.0,0.0,0.0,0.0,0.0,0.0,0.0,0.0,0.0,0.0,0.0,0.0,0.0,0.0,0.0,0.0,0.0,0.0,0.0,0.0,0.0,0.0,0.0,0.0,0.0,0.0,0.0,0.0,0.0,-1.9952,-2.008,-2.0118,-2.0003,-2.0256,-2.0132,0.0,0.0,0.0,0.0,0.0,0.0,0.0,0.0,0.0,0.0,0.0,0.0,0.0,0.0,0.0,0.0,0.0,0.0,0.0,0.0,0.0,0.0,0.0,0.0,0.0,0.0,0.0,0.0,0.0,0.0,0.0,0.0,0.0,0.0,0.0,0.0,0.0,0.0,0.0,0.0,0.0,0.0,0.0,0.0,0.0,0.0,0.0,0.0,0.0,0.0,0.0,0.0,0.0,0.0,0.0,0.0,0.0,0.0,0.0,0.0,0.0,0.0,0.0,0.0,0.0,0.0,0.0,0.0,0.0,0.0,0.0,0.0,0.0,0.0,0.0,0.0,0.0,0.0,0.0,0.0,0.0,0.0,0.0,0.0,0.0,0.0,0.0,0.0,0.0,0.0,0.0,0.0,0.0,0.0,0.0,0.0,0.0,0.0,0.0,0.0,0.0,0.0,0.0,0.0,0.0,0.0,0.0,0.0,-1.9862,-1.999,-2.0131,-2.022,-2.0207,-2.0461,-2.0444,0.0,0.0,0.0,0.0,0.0,0.0,0.0,0.0,0.0,0.0,0.0,0.0,0.0,0.0,0.0,0.0,0.0,0.0,0.0,0.0,0.0,0.0,0.0,0.0,0.0,0.0,0.0,0.0,0.0,0.0,0.0,0.0,0.0,0.0,0.0,0.0,0.0,0.0,0.0,0.0,0.0,0.0,0.0,0.0,0.0,0.0,0.0,0.0,0.0,0.0,0.0,0.0,0.0,0.0,0.0,0.0,0.0,0.0,0.0,0.0,0.0,0.0,0.0,0.0,0.0,0.0,0.0,0.0,0.0,0.0,0.0,0.0,0.0,0.0,0.0,0.0,0.0,0.0,0.0,0.0,0.0,0.0,0.0,0.0,0.0,0.0,0.0,0.0,0.0,0.0,0.0,0.0,0.0,0.0,0.0,0.0,0.0,0.0,0.0,0.0,0.0,0.0,0.0,0.0,0.0,0.0,0.0,0.0,-1.9862,-2.0016,-2.0131,-2.0322,-2.0524,-2.0637,-2.0699,0.0,0.0,0.0,0.0,0.0,0.0,0.0,0.0,0.0,0.0,0.0,0.0,0.0,0.0,0.0,0.0,0.0,0.0,0.0,0.0,0.0,0.0,0.0,0.0,0.0,0.0,0.0,0.0,0.0,0.0,0.0,0.0,0.0,0.0,0.0,0.0,0.0,0.0,0.0,0.0,0.0,0.0,0.0,0.0,0.0,0.0,0.0,0.0,0.0,0.0,0.0,0.0,0.0,0.0,0.0,0.0,0.0,0.0,0.0,0.0,0.0,0.0,0.0,0.0,0.0,0.0,0.0,0.0,0.0,0.0,0.0,0.0,0.0,0.0,0.0,0.0,0.0,0.0,0.0,0.0,0.0,0.0,0.0,0.0,0.0,0.0,0.0,0.0,0.0,0.0,0.0,0.0,0.0,0.0,0.0,0.0,0.0,0.0,0.0,0.0,0.0,0.0,0.0,0.0,0.0,0.0,0.0,0.0,-1.9914,-2.0169,-2.0182,-2.0334,-2.0637,-2.0687,-2.0699,0.0,0.0,0.0,0.0,0.0,0.0,0.0,0.0,0.0,0.0,0.0,0.0,0.0,0.0,0.0,0.0,0.0,0.0,0.0,0.0,0.0,0.0,0.0,0.0,0.0,0.0,0.0,0.0,0.0,0.0,0.0,0.0,0.0,0.0,0.0,0.0,0.0,0.0,0.0,0.0,0.0,0.0,0.0,0.0,0.0,0.0,0.0,0.0,-1.9798,0.0,0.0,0.0,0.0,0.0,0.0,0.0,0.0,0.0,0.0,0.0,0.0,0.0,0.0,0.0,0.0,0.0,0.0,0.0,0.0,0.0,0.0,0.0,0.0,0.0,0.0,0.0,0.0,0.0,0.0,0.0,0.0,0.0,0.0,0.0,0.0,0.0,0.0,0.0,0.0,0.0,0.0,0.0,0.0,0.0,0.0,0.0,0.0,0.0,0.0,0.0,0.0,0.0,0.0,0.0,0.0,0.0,0.0,0.0,-1.9991,-2.0207,-2.0296,-2.0448,-2.0674,-2.0699,-2.0699,0.0,0.0,0.0,0.0,0.0,0.0,0.0,0.0,0.0,0.0,0.0,0.0,0.0,0.0,0.0,0.0,0.0,0.0,0.0,0.0,0.0,0.0,0.0,0.0,0.0,0.0,0.0,0.0,0.0,0.0,0.0,0.0,0.0,0.0,0.0,0.0,0.0,0.0,0.0,0.0,0.0,0.0,0.0,0.0,0.0,0.0,0.0,0.0,0.0,0.0,0.0,0.0,0.0,0.0,0.0,0.0,0.0,0.0,0.0,0.0,0.0,0.0,0.0,0.0,0.0,0.0,0.0,0.0,0.0,0.0,0.0,0.0,0.0,0.0,0.0,0.0,0.0,0.0,0.0,0.0,0.0,0.0,0.0,0.0,0.0,0.0,0.0,0.0,0.0,0.0,0.0,0.0,0.0,0.0,0.0,0.0,0.0,0.0,0.0,0.0,0.0,0.0,0.0,0.0,0.0,0.0,0.0,-1.9926,-2.0054,-2.0207,-2.041,-2.0562,-2.0699,-2.0699,-2.0699,-2.0699,0.0,0.0,0.0,0.0,0.0,0.0,0.0,0.0,0.0,0.0,0.0,0.0,0.0,0.0,0.0,0.0,0.0,0.0,0.0,0.0,0.0,0.0,0.0,0.0,0.0,0.0,0.0,0.0,0.0,0.0,0.0,0.0,0.0,0.0,0.0,0.0,0.0,0.0,-1.9143,-1.9447,0.0,0.0,0.0,0.0,0.0,0.0,0.0,0.0,-1.9798,0.0,0.0,0.0,0.0,0.0,0.0,0.0,0.0,0.0,0.0,0.0,0.0,0.0,0.0,0.0,0.0,0.0,0.0,0.0,0.0,0.0,0.0,0.0,0.0,0.0,0.0,0.0,0.0,0.0,0.0,0.0,0.0,0.0,0.0,0.0,0.0,0.0,0.0,0.0,0.0,0.0,0.0,0.0,0.0,0.0,0.0,0.0,0.0,0.0,0.0,0.0,0.0,0.0,0.0,0.0,0.0,-1.9798,-1.9926,-2.0067,-2.0207,-2.0398,-2.0562,-2.0699,-2.0699,-2.0699,-2.0699,0.0,0.0,0.0,0.0,0.0,0.0,0.0,0.0,0.0,0.0,0.0,0.0,0.0,0.0,0.0,0.0,0.0,0.0,0.0,0.0,0.0,0.0,0.0,0.0,0.0,0.0,0.0,0.0,0.0,0.0,0.0,0.0,0.0,0.0,0.0,0.0,0.0,0.0,0.0,-1.9486,-1.963,0.0,0.0,0.0,0.0,0.0,0.0,0.0,0.0,-1.9798,0.0,0.0,0.0,0.0,0.0,0.0,0.0,0.0,0.0,0.0,0.0,0.0,0.0,0.0,0.0,0.0,0.0,0.0,0.0,0.0,0.0,0.0,0.0,0.0,0.0,0.0,0.0,0.0,0.0,0.0,0.0,0.0,0.0,0.0,0.0,0.0,0.0,0.0,0.0,0.0,0.0,0.0,0.0,0.0,0.0,0.0,0.0,0.0,0.0,0.0,0.0,0.0,0.0,0.0,0.0,-1.9824,-2.0003,-2.0131,-2.0207,-2.0448,-2.0637,-2.0699,-2.0699,-2.0699,0.0,0.0,0.0,0.0,0.0,0.0,0.0,0.0,0.0,0.0,0.0,0.0,0.0,0.0,0.0,0.0,0.0,0.0,0.0,0.0,0.0,0.0,0.0,0.0,0.0,0.0,0.0,0.0,0.0,0.0,0.0,0.0,0.0,0.0,0.0,0.0,0.0,0.0,0.0,0.0,-1.9565,-1.9734,-1.9798,0.0,0.0,0.0,0.0,0.0,0.0,-1.9798,-1.9798,0.0,0.0,0.0,0.0,0.0,0.0,0.0,0.0,0.0,0.0,0.0,0.0,0.0,0.0,0.0,0.0,0.0,0.0,0.0,0.0,0.0,0.0,0.0,0.0,0.0,0.0,0.0,0.0,0.0,0.0,0.0,0.0,0.0,0.0,0.0,0.0,0.0,0.0,0.0,0.0,0.0,0.0,0.0,0.0,0.0,0.0,0.0,0.0,0.0,0.0,0.0,0.0,0.0,0.0,0.0,-1.9798,-2.0042,-2.0182,-2.0207,-2.0485,-2.0687,-2.0699,-2.0699,-2.0699,0.0,0.0,0.0,0.0,0.0,0.0,0.0,0.0,0.0,0.0,0.0,0.0,0.0,0.0,0.0,0.0,0.0,0.0,0.0,0.0,0.0,0.0,0.0,0.0,0.0,0.0,0.0,0.0,0.0,0.0,0.0,0.0,0.0,0.0,0.0,0.0,0.0,0.0,0.0,0.0,0.0,-1.9773,-1.9798,-1.9798,0.0,0.0,0.0,0.0,-1.9798,-1.9798,0.0,0.0,0.0,0.0,0.0,0.0,0.0,0.0,0.0,0.0,0.0,0.0,0.0,0.0,0.0,0.0,0.0,0.0,0.0,0.0,0.0,0.0,0.0,0.0,0.0,0.0,0.0,0.0,0.0,0.0,0.0,0.0,0.0,0.0,0.0,0.0,0.0,0.0,0.0,0.0,0.0,0.0,0.0,0.0,0.0,0.0,0.0,0.0,0.0,0.0,0.0,0.0,0.0,0.0,0.0,0.0,-1.9798,-1.9965,-2.008,-2.0195,-2.041,-2.0574,-2.0699,-2.0699,-2.0699,0.0,0.0,0.0,0.0,0.0,0.0,0.0,0.0,0.0,0.0,0.0,0.0,0.0,0.0,0.0,0.0,0.0,0.0,0.0,0.0,0.0,0.0,0.0,0.0,0.0,0.0,0.0,0.0,0.0,0.0,0.0,0.0,0.0,0.0,0.0,0.0,0.0,0.0,0.0,0.0,0.0,-1.9656,-1.9773,-1.9798,-1.9798,0.0,0.0,-1.9798,-1.9798,-1.9798,0.0,0.0,0.0,0.0,0.0,0.0,0.0,0.0,0.0,0.0,0.0,0.0,0.0,0.0,0.0,0.0,0.0,0.0,0.0,0.0,0.0,0.0,0.0,0.0,0.0,0.0,0.0,0.0,0.0,0.0,0.0,0.0,0.0,0.0,0.0,0.0,0.0,0.0,0.0,0.0,0.0,0.0,0.0,0.0,0.0,0.0,0.0,0.0,0.0,0.0,0.0,0.0,0.0,0.0,0.0,-1.9798,-1.9798,-1.9926,-2.0003,-2.008,-2.0233,-2.0334,-2.0423,-2.0524,-2.0587,0.0,0.0,0.0,0.0,0.0,0.0,0.0,0.0,0.0,0.0,0.0,0.0,0.0,0.0,0.0,0.0,0.0,0.0,0.0,0.0,0.0,0.0,0.0,0.0,0.0,0.0,0.0,0.0,0.0,0.0,0.0,0.0,0.0,0.0,0.0,0.0,0.0,0.0,0.0,0.0,0.0,0.0,-1.9773,-1.9798,0.0,0.0,0.0,-1.9798,-1.9798,0.0,0.0,0.0,0.0,0.0,0.0,0.0,0.0,0.0,0.0,0.0,0.0,0.0,0.0,0.0,0.0,0.0,0.0,0.0,0.0,0.0,0.0,0.0,0.0,0.0,0.0,0.0,0.0,0.0,0.0,0.0,0.0,0.0,0.0,0.0,0.0,0.0,0.0,0.0,0.0,0.0,0.0,0.0,0.0,0.0,0.0,0.0,0.0,0.0,0.0,0.0,0.0,0.0,0.0,0.0,0.0,0.0,-1.9798,-1.9901,-1.9965,-1.999,-2.0118,-2.0169,-2.022,-2.0347,0.0,0.0,0.0,0.0,0.0,0.0,0.0,0.0,0.0,0.0,0.0,0.0,0.0,0.0,0.0,0.0,0.0,0.0,0.0,0.0,0.0,0.0,0.0,0.0,0.0,0.0,0.0,-1.8827,0.0,0.0,0.0,0.0,0.0,0.0,0.0,0.0,0.0,0.0,0.0,0.0,0.0,0.0,-1.9734,-1.9734,-1.9759,-1.9773,0.0,0.0,-1.9798,-1.9798,-1.9798,-1.9798,0.0,0.0,0.0,0.0,0.0,0.0,0.0,0.0,0.0,0.0,0.0,0.0,0.0,0.0,0.0,0.0,0.0,0.0,0.0,0.0,0.0,0.0,0.0,0.0,0.0,0.0,0.0,0.0,0.0,0.0,0.0,0.0,0.0,0.0,0.0,0.0,0.0,0.0,0.0,0.0,0.0,0.0,0.0,0.0,0.0,0.0,0.0,0.0,0.0,0.0,0.0,0.0,0.0,0.0,-1.9798,-1.9798,-1.9798,-1.9888,-1.9978,-2.0016,-2.0067,-2.0207,-2.0195,-2.0322,0.0,0.0,0.0,0.0,0.0,0.0,0.0,0.0,0.0,0.0,0.0,0.0,0.0,0.0,0.0,0.0,0.0,0.0,0.0,0.0,0.0,0.0,0.0,0.0,0.0,0.0,0.0,0.0,0.0,0.0,0.0,0.0,0.0,0.0,0.0,0.0,0.0,0.0,0.0,0.0,0.0,-1.946,-1.9617,-1.9604,-1.9668,0.0,-1.9798,-1.9798,-1.9798,-1.9798,-1.9798,-1.9798,0.0,0.0,0.0,0.0,0.0,0.0,0.0,0.0,0.0,0.0,0.0,0.0,0.0,0.0,0.0,0.0,0.0,0.0,0.0,0.0,0.0,0.0,0.0,0.0,0.0,0.0,0.0,0.0,0.0,0.0,0.0,0.0,0.0,0.0,0.0,0.0,0.0,0.0,0.0,0.0,0.0,0.0,0.0,0.0,0.0,0.0,0.0,0.0,0.0,0.0,0.0,0.0,0.0,-1.9798,-1.9798,-1.9798,-1.9837,-1.9862,-1.9888,-1.9888,-1.9939,-2.0016,-2.0118,0.0,0.0,0.0,0.0,0.0,0.0,0.0,0.0,0.0,0.0,0.0,0.0,0.0,0.0,0.0,0.0,0.0,0.0,0.0,0.0,0.0,0.0,0.0,0.0,0.0,0.0,0.0,0.0,-1.8228,-1.8093,-1.8093,0.0,0.0,0.0,0.0,0.0,0.0,0.0,0.0,0.0,0.0,-1.9016,-1.9526,-1.9591,0.0,0.0,-1.9798,-1.9798,-1.9798,-1.9798,-1.9798,-1.9798,-1.9798,0.0,0.0,0.0,0.0,0.0,0.0,0.0,0.0,0.0,0.0,0.0,0.0,0.0,0.0,0.0,0.0,0.0,0.0,0.0,0.0,0.0,0.0,0.0,0.0,0.0,0.0,0.0,0.0,0.0,0.0,0.0,0.0,0.0,0.0,0.0,0.0,0.0,0.0,0.0,0.0,0.0,0.0,0.0,0.0,0.0,0.0,0.0,0.0,0.0,0.0,0.0,0.0,-1.9759,-1.9798,-1.9798,-1.9798,-1.9798,-1.9798,-1.9798,-1.9798,-1.9888,-1.9965,0.0,0.0,0.0,0.0,0.0,0.0,0.0,0.0,0.0,0.0,0.0,0.0,0.0,0.0,0.0,0.0,0.0,0.0,0.0,0.0,0.0,0.0,0.0,0.0,0.0,0.0,0.0,0.0,-1.8375,-1.8375,-1.8375,0.0,0.0,0.0,0.0,0.0,0.0,0.0,0.0,0.0,0.0,-1.8325,-1.8845,-1.9133,-1.9305,-1.9449,-1.9669,-1.9798,-1.9798,-1.9798,-1.9798,-1.9798,0.0,0.0,0.0,0.0,0.0,0.0,0.0,0.0,0.0,0.0,0.0,0.0,0.0,0.0,0.0,0.0,0.0,0.0,0.0,0.0,0.0,0.0,0.0,0.0,0.0,0.0,0.0,-2.492,0.0,0.0,-2.3058,0.0,0.0,0.0,0.0,0.0,0.0,0.0,0.0,0.0,0.0,0.0,0.0,0.0,0.0,0.0,0.0,0.0,0.0,0.0,0.0,0.0,0.0,-1.9656,-1.9798,-1.9798,-1.9773,-1.9798,-1.9798,-1.9798,-1.9798,-1.9798,-1.9862,-1.999,0.0,0.0,0.0,0.0,0.0,0.0,0.0,0.0,0.0,0.0,0.0,0.0,0.0,0.0,0.0,0.0,0.0,0.0,0.0,0.0,0.0,0.0,0.0,0.0,0.0,0.0,-1.896,-1.8987,-1.896,0.0,0.0,0.0,0.0,0.0,0.0,0.0,0.0,0.0,0.0,-1.723,-1.7296,-1.7462,-1.8066,-1.8566,-1.8688,-1.9307,-1.9773,-1.9747,-1.9773,-1.9798,0.0,0.0,0.0,0.0,0.0,0.0,0.0,0.0,0.0,0.0,0.0,0.0,0.0,0.0,0.0,0.0,0.0,0.0,0.0,0.0,0.0,0.0,0.0,0.0,0.0,0.0,0.0,-2.3607,-2.3518,0.0,0.0,0.0,0.0,0.0,0.0,0.0,0.0,0.0,0.0,0.0,-2.1761,-2.1792,0.0,0.0,0.0,0.0,0.0,0.0,0.0,0.0,0.0,0.0,0.0,0.0,-1.9499,-1.9539,-1.9539,-1.9565,-1.9656,-1.9656,-1.9708,-1.9798,-1.9798,-1.9837,-1.9862,0.0,0.0,0.0,0.0,0.0,0.0,0.0,0.0,0.0,0.0,0.0,0.0,0.0,0.0,0.0,0.0,0.0,0.0,0.0,0.0,0.0,0.0,0.0,0.0,0.0,-1.9013,0.0,0.0,0.0,0.0,0.0,0.0,0.0,0.0,0.0,0.0,0.0,-1.6978,-1.7174,-1.6866,-1.6782,-1.7324,-1.76,-1.7836,0.0,0.0,0.0,0.0,0.0,0.0,0.0,0.0,0.0,0.0,0.0,0.0,0.0,0.0,-1.8528,-1.916,-1.9486,-1.9591,-1.9317,0.0,0.0,0.0,0.0,0.0,0.0,0.0,0.0,0.0,0.0,0.0,0.0,0.0,0.0,-2.2798,0.0,-2.2018,0.0,0.0,0.0,0.0,0.0,0.0,0.0,0.0,-2.1561,-2.1561,-2.1592,-2.1592,-2.1624,0.0,-2.1623,-2.1234,0.0,0.0,0.0,0.0,0.0,0.0,0.0,0.0,-1.9342,-1.9394,-1.942,-1.9447,-1.9539,-1.9539,-1.9565,-1.9656,-1.9656,-1.9656,-1.9656,-1.9656,-1.9656,0.0,0.0,0.0,0.0,0.0,0.0,0.0,0.0,0.0,0.0,0.0,0.0,0.0,0.0,0.0,0.0,0.0,0.0,0.0,0.0,0.0,0.0,0.0,-1.8759,0.0,0.0,0.0,0.0,0.0,0.0,0.0,0.0,0.0,-1.7396,-1.6765,-1.6312,-1.6528,-1.6226,-1.6169,-1.6652,0.0,0.0,0.0,0.0,0.0,0.0,0.0,-1.8286,-1.8217,-1.8259,-1.8286,-1.819,-1.7863,-1.7715,-1.8108,0.0,0.0,-1.867,-1.8883,-1.8818,-1.8563,-1.8498,-1.8525,-1.8617,-1.8309,-1.8027,0.0,0.0,0.0,0.0,0.0,0.0,0.0,0.0,-2.2834,-2.2531,0.0,-2.1925,0.0,0.0,0.0,0.0,0.0,-2.1474,0.0,0.0,-2.1285,-2.1273,-2.1388,-2.14,-2.1506,-2.1632,-2.1169,-2.0922,-2.0917,-2.0693,0.0,0.0,0.0,0.0,0.0,0.0,-1.9223,-1.9342,-1.9342,-1.9368,-1.9394,-1.9394,-1.9394,-1.942,-1.942,-1.942,-1.942,-1.942,-1.942,-1.942,-1.942,0.0,0.0,0.0,0.0,0.0,0.0,0.0,0.0,0.0,0.0,0.0,0.0,0.0,0.0,0.0,0.0,0.0,0.0,0.0,0.0,-1.8798,0.0,0.0,0.0,0.0,0.0,0.0,0.0,0.0,0.0,0.0,-1.6255,-1.6132,-1.5912,-1.5468,0.0,0.0,0.0,0.0,-1.6464,-1.6454,-1.7062,-1.7523,-1.7523,-1.7539,-1.755,-1.7539,0.0,0.0,-1.7523,-1.7523,-1.7495,-1.755,-1.7495,-1.7715,-1.8271,-1.7988,-1.7633,-1.7594,-1.7727,-1.7852,-1.7852,-1.777,-1.7754,-2.3442,0.0,0.0,0.0,0.0,-2.3135,-2.2834,-2.2665,-2.2032,-2.1753,-2.1733,-2.1474,0.0,0.0,0.0,0.0,0.0,0.0,-2.138,-2.1253,-2.1221,-2.1221,-2.1253,-2.1273,-2.1285,-2.1348,-2.128,-2.1272,-2.1249,-2.0959,-2.06,-2.0151,0.0,0.0,0.0,0.0,-1.8429,-1.8456,-1.8483,-1.8735,-1.9249,-1.9249,-1.9314,-1.9394,-1.942,-1.942,-1.942,-1.942,-1.942,-1.942,-1.942,0.0,0.0,0.0,0.0,0.0,0.0,0.0,0.0,0.0,0.0,0.0,0.0,0.0,0.0,0.0,0.0,0.0,0.0,0.0,-1.8679,-1.8679,-1.8344,0.0,0.0,0.0,0.0,0.0,0.0,0.0,0.0,0.0,-1.5332,-1.5342,-1.5284,0.0,0.0,-1.5284,-1.5381,-1.5575,-1.5729,-1.569,-1.5882,0.0,-1.6026,-1.6482,-1.6793,-1.6687,-1.6669,-1.6528,-1.6112,-1.6026,-1.6159,-1.6585,-1.633,-1.6216,-1.681,-1.723,-1.7313,-1.7101,-1.6989,-1.7,-1.7073,-1.6775,-1.6485,-2.275,-2.3357,-2.328,-2.3027,-2.264,-2.2286,-2.2051,-2.1877,-2.1482,-2.1336,-2.1305,-2.1221,-2.1253,-2.1336,-2.1233,0.0,0.0,0.0,-2.1273,-2.1201,-2.1201,-2.1201,-2.1201,-2.1201,-2.1201,-2.1221,-2.1273,-2.1305,-2.1336,-2.1179,-2.0967,-2.0706,0.0,0.0,-1.916,-1.8885,-1.8655,-1.8467,-1.8456,-1.8682,-1.9117,-1.9105,-1.917,-1.9237,-1.9237,-1.9225,-1.9263,-1.9237,-1.9237,-1.9237,-1.9237,-1.9225,0.0,0.0,0.0,0.0,0.0,0.0,0.0,0.0,0.0,0.0,0.0,-1.8825,-1.8919,0.0,0.0,0.0,-1.8664,-1.8263,-1.7396,-1.7804,0.0,0.0,0.0,0.0,0.0,0.0,0.0,-1.5439,-1.4942,-1.4675,-1.4803,-1.4803,-1.4901,-1.5098,-1.5156,-1.5235,-1.5313,0.0,-1.542,-1.542,-1.542,-1.542,-1.542,-1.5787,-1.6036,-1.5968,-1.594,-1.5825,-1.5497,-1.542,-1.5526,-1.5796,-1.5633,-1.5526,-1.5853,-1.6312,-1.6539,-1.6293,-1.6247,-1.6267,-1.6371,-1.6066,-1.5827,-2.2237,-2.1815,-2.1718,-2.1549,-2.14,-2.1388,-2.1305,-2.1201,-2.1201,-2.1201,-2.1201,-2.1201,-2.1201,-2.1201,-2.1201,0.0,-2.1201,-2.1201,-2.1201,-2.1201,-2.1201,-2.1201,-2.1201,-2.1201,-2.1201,-2.1201,-2.1201,-2.1201,-2.1221,-2.1336,-2.14,-2.1365,-2.0729,-2.0103,-1.9589,-1.9698,-1.9494,-1.8979,-1.8967,-1.8982,-1.9025,-1.9013,-1.9013,-1.9013,-1.9013,-1.9013,-1.9013,-1.9013,-1.9013,-1.9013,-1.9013,-1.9013,-1.9013,0.0,0.0,0.0,0.0,0.0,0.0,0.0,0.0,0.0,0.0,0.0,0.0,0.0,0.0,0.0,-1.8356,0.0,-1.5642,-1.6595,0.0,0.0,0.0,-1.5652,-1.5029,-1.4813,-1.4677,-1.4686,0.0,0.0,-1.4485,-1.4485,-1.4595,-1.4921,-1.5059,-1.5186,-1.5186,-1.5284,-1.5381,-1.5362,-1.5391,-1.5381,-1.541,-1.5439,-1.5468,-1.5468,-1.542,-1.5439,-1.542,-1.542,-1.542,-1.5439,-1.542,-1.541,-1.542,-1.5497,-1.541,-1.5468,-1.5575,-1.5701,-1.5701,-1.5711,-1.5672,-2.1463,-2.138,-2.1328,-2.1296,-2.1253,-2.1253,-2.1221,-2.1201,-2.1201,-2.1201,-2.1201,-2.1201,-2.1201,-2.1201,-2.1201,-2.1201,-2.1201,-2.1201,-2.1201,-2.1201,-2.1201,-2.1201,-2.1201,-2.1201,-2.1201,-2.1201,-2.1201,-2.1201,-2.1201,-2.1221,-2.1253,-2.1242,-2.1187,-2.0711,-1.9901,-1.9513,-1.9166,-1.8785,-1.8774,-1.8838,-1.9011,-1.9013,-1.9013,-1.9013,-1.9013,-1.9013,-1.9013,-1.9013,-1.9013,-1.9013,-1.9013,-1.9013,-1.9013,-1.9013,0.0,0.0,0.0,0.0,0.0,0.0,0.0,0.0,0.0,-1.8518,-1.864,0.0,-1.8236,0.0,-1.7157,-1.6595,-1.614,-1.6386,0.0,0.0,-1.541,-1.5274,-1.4684,-1.4595,-1.4565,-1.4536,-1.4545,-1.4485,-1.4485,-1.4485,-1.4506,-1.4625,-1.4725,-1.4872,-1.5029,-1.5059,-1.5117,-1.5235,-1.5235,-1.5284,-1.5391,-1.542,-1.542,-1.542,-1.542,-1.542,-1.542,-1.542,-1.542,-1.542,-1.542,-1.542,-1.542,-1.542,-1.542,-1.542,-1.5449,-1.5488,-1.5478,-1.5478,-1.5478,-2.1201,-2.1201,-2.1201,-2.1201,-2.1201,-2.1201,-2.1201,-2.1201,-2.1201,-2.1201,-2.1201,-2.1201,-2.1201,-2.1201,-2.1201,-2.1201,-2.1201,-2.1201,-2.1201,-2.1201,-2.1201,-2.1201,-2.1201,-2.1201,-2.1201,-2.1201,-2.1201,-2.1201,-2.1201,-2.1201,-2.1201,-2.1221,-2.1285,-2.1072,-2.0523,-2.0156,-1.9753,-1.9345,-1.9321,-1.9365,-1.9487,-1.925,-1.9158,-1.9215,-1.9039,-1.8893,-1.8919,-1.8919,-1.8919,-1.8919,-1.8919,-1.8919,-1.8893,-1.8919,-1.8881,0.0,0.0,0.0,0.0,0.0,0.0,0.0,0.0,0.0,0.0,0.0,-1.7224,-1.6567,-1.6368,-1.6083,-1.5555,-1.5748,-1.5661,-1.5049,-1.502,-1.4852,-1.4545,-1.4485,-1.4485,-1.4485,-1.4485,-1.4485,-1.4485,-1.4485,-1.4485,-1.4485,-1.4556,-1.4666,-1.4813,-1.4695,-1.4686,-1.5029,-1.4872,-1.4804,-1.5157,-1.5225,-1.5225,-1.5216,-1.5216,-1.5245,-1.5284,-1.5313,-1.5342,-1.5391,-1.542,-1.542,-1.542,-1.542,-1.5391,-1.5332,-1.5313,-1.5332,-1.5391,-1.542,-1.542,-2.1051,-2.1063,-2.1063,-2.1063,-2.1051,-2.1063,-2.1138,-2.1201,-2.1201,-2.1201,-2.1201,-2.1169,-2.1126,-2.1126,-2.1138,-2.1126,-2.1126,-2.1158,-2.1201,-2.1201,-2.1201,-2.1201,-2.1201,-2.1201,-2.1201,-2.1201,-2.1094,-2.1051,-2.1063,-2.0967,-2.0924,-2.0892,-2.0924,-2.0935,-2.0912,-2.0741,-2.0482,-2.0159,-2.0117,-2.0123,-2.0111,-1.9648,-1.947,-1.9546,-1.9199,-1.8973,-1.8973,-1.8973,-1.8973,-1.8961,-1.8973,-1.8937,-1.8878,-1.8878,-1.8777,0.0,-1.8587,0.0,0.0,0.0,0.0,0.0,0.0,0.0,0.0,-1.6624,-1.5968,-1.5439,-1.5796,-1.5633,-1.4595,-1.499,-1.5069,-1.4565,-1.4485,-1.4485,-1.4485,-1.4485,-1.4485,-1.4485,-1.4485,-1.4485,-1.4485,-1.4485,-1.4485,-1.4485,-1.4485,-1.4497,-1.4508,-1.4282,-1.4321,-1.4784,-1.4371,-1.4312,-1.4872,-1.5039,-1.497,-1.4911,-1.497,-1.5,-1.5,-1.5117,-1.5205,-1.5303,-1.5332,-1.5323,-1.5362,-1.5323,-1.5274,-1.5049,-1.5,-1.5079,-1.5303,-1.5362,-1.5362,-2.0302,-2.0291,-2.0291,-2.0302,-2.0302,-2.0302,-2.0667,-2.1201,-2.1201,-2.1201,-2.1169,-2.0839,-2.07,-2.0732,-2.07,-2.0732,-2.0743,-2.1063,-2.1201,-2.1201,-2.1201,-2.1201,-2.1201,-2.1201,-2.1201,-2.1169,-2.0592,-2.0302,-2.0302,-1.9704,-1.9408,-1.9408,-1.9408,-1.9408,-1.9398,0.0,0.0,0.0,-2.0235,-2.0123,-2.0111,-2.0017,-1.9959,-1.9987,-1.9905,0.0,-1.9846,-1.9846,-1.9846,-1.9846,-1.9846,0.0,0.0,0.0,0.0,0.0,0.0,0.0,0.0,0.0,0.0,0.0,-1.6122,-1.5979,-1.6443,-1.595,-1.5517,-1.541,-1.5079,-1.4734,-1.4506,-1.4595,-1.4625,-1.4515,-1.4485,-1.4485,-1.4485,-1.4485,-1.4485,-1.4485,-1.4485,-1.4485,-1.4485,-1.4485,-1.4485,-1.4485,-1.4485,-1.4288,-1.3842,-1.413,-1.4288,-1.4022,-1.3944,-1.4252,-1.4882,-1.498,-1.4784,-1.444,-1.4686,-1.4784,-1.444,-1.4686,-1.5039,-1.5079,-1.5088,-1.5059,-1.5059,-1.5088,-1.4872,-1.4341,-1.4213,-1.443,-1.5079,-1.5235,-1.5158,-2.0096,-2.0096,-2.0096,-2.0096,0.0,-2.0096,-2.0291,-2.0667,-2.0667,-2.0656,-2.0635,-2.0463,-2.0377,-2.0334,-2.0345,-2.0366,-2.0366,-2.0571,-2.0656,-2.0667,-2.0839,-2.0903,-2.0903,-2.0732,-2.0656,-2.0624,-2.0269,-1.9901,-1.9595,-1.9901,-1.9737,-1.9011,-1.9365,-1.954,-1.954,-1.954,-1.9803,-2.0349,-2.0183,-2.0101,-2.009,-1.9852,-1.9757,-1.9848,-1.9579,0.0,0.0,0.0,0.0,0.0,0.0,0.0,0.0,0.0,0.0,-1.9162,-1.8616,-1.8148,-1.7856,-1.7231,-1.6595,-1.6007,-1.5332,-1.5108,-1.5391,-1.5137,-1.4961,-1.4961,-1.4684,-1.4485,-1.4485,-1.4485,-1.4485,-1.4485,-1.4485,-1.4485,-1.4485,-1.4485,-1.4485,-1.4485,-1.4485,-1.4485,-1.4485,-1.4485,-1.4485,-1.4485,-1.4485,-1.4387,-1.407,-1.398,-1.3791,-1.326,-1.3803,-1.4231,-1.427,-1.4586,-1.4645,-1.4359,-1.4526,-1.4616,-1.441,-1.4359,-1.4488,-1.4852,-1.4754,-1.4499,-1.4499,-1.4499,-1.4291,-1.3618,-1.328,-1.3279,-1.372,-1.405,-1.4332,-1.9911,-1.9944,-1.9933,-1.9944,-1.9911,-1.9901,-1.9911,-1.9933,0.0,0.0,0.0,-2.0042,-2.0009,-2.0009,-1.9998,-2.0009,-2.0009,-2.0074,-2.0096,-2.0096,-2.0377,-2.0506,-2.0495,-2.0226,-2.0096,-2.0096,-1.9966,-1.9606,-1.9077,-2.0107,-2.0009,-1.8988,-1.9441,-1.9737,-1.9835,-1.9879,-1.9901,-1.9901,-1.9901,-1.9901,-1.989,-1.949,-1.9316,-1.9506,-1.9062,-1.8897,-1.9019,-1.9019,-1.8825,-1.8361,-1.8875,-1.9199,-1.9121,-1.9661,-1.9846,-1.9488,-1.8651,-1.8017,-1.7782,-1.6811,-1.5973,-1.5284,-1.4764,-1.4485,-1.4485,-1.4485,-1.4485,-1.4485,-1.4485,-1.4485,-1.4455,-1.4455,-1.4455,-1.4426,-1.4417,-1.4417,-1.4426,-1.4426,-1.4396,-1.4417,-1.4387,-1.4417,-1.4387,-1.4426,-1.4455,-1.4455,-1.4485,-1.4485,-1.4426,-1.395,-1.3321,-1.2787,-1.3342,-1.3911,-1.3692,-1.3761,-1.416,-1.4228,-1.4169,-1.4181,-1.4201,-1.3863,-1.3863,-1.4517,-1.4192,-1.3855,-1.3855,-1.3825,-1.3468,-1.2661,-1.2292,-1.2068,-1.2091,-1.2439,-1.2885,-1.9264,-1.9241,-1.9231,-1.9231,-1.9231,-1.9231,-1.9231,-1.9297,-1.9846,-2.0096,-2.0063,-1.9791,-1.9671,-1.9671,-1.9671,-1.9671,-1.9693,-1.9977,-2.0096,-2.0096,-2.0161,-2.0172,-2.0161,-2.0128,-2.0096,-2.0063,-1.9518,-1.9198,-1.9065,-1.8674,-1.8337,-1.8178,-1.8245,-1.8462,-1.871,-1.9011,-1.9177,-1.9177,-1.9144,-1.9177,-1.9144,-1.9071,-1.904,-1.9073,-1.901,-1.9273,-1.9899,-1.9921,-2.0167,-2.0676,-2.0814,-2.0663,-2.0209,-2.0236,-1.986,-1.886,-1.86,-1.8012,-1.6883,-1.6314,-1.5651,-1.4721,-1.4446,-1.4387,-1.4485,-1.4485,-1.4485,-1.4485,-1.4485,-1.4455,-1.4366,-1.4336,-1.4258,-1.41,-1.4079,-1.4079,-1.41,-1.4079,-1.4109,-1.41,-1.4079,-1.407,-1.4109,-1.4237,-1.4327,-1.4366,-1.4396,-1.4455,-1.4297,-1.392,-1.326,-1.2696,-1.2634,-1.297,-1.3282,-1.3039,-1.3161,-1.3541,-1.323,-1.297,-1.3061,-1.2848,-1.297,-1.3623,-1.3221,-1.3,-1.3373,-1.31,-1.2415,-1.1609,-1.1316,-1.1174,-1.0964,-1.0821,-1.0911,-1.9098,-1.9098,-1.9098,-1.9098,-1.9098,-1.9098,-1.9098,-1.9131,-1.9429,-1.9561,-1.9561,-1.9396,-1.933,-1.9341,-1.9341,-1.933,-1.9341,-1.9495,-1.9551,-1.9551,-1.9748,-1.9824,-1.9824,-1.9627,-1.9561,-1.9518,-1.9274,-1.8898,-1.8573,-1.8898,-1.8731,-1.8076,-1.8371,-1.8462,-1.8259,-1.8787,-1.8865,-1.8496,-1.8811,-1.88,-1.8476,-1.8465,-1.8643,-1.9011,-1.9011,-1.9342,-2.0063,-2.0096,-2.0063,-1.9998,-2.0387,-2.0491,-2.0247,-2.0236,-1.9998,-1.942,-1.8501,-1.7671,-1.7083,-1.6021,-1.5164,-1.4601,-1.4294,-1.4169,-1.4228,-1.4228,-1.4228,-1.4228,-1.4228,-1.4198,-1.4139,-1.4139,-1.4109,-1.401,-1.401,-1.401,-1.401,-1.401,-1.401,-1.401,-1.401,-1.401,-1.401,-1.4079,-1.4139,-1.4139,-1.4207,-1.4139,-1.3791,-1.3761,-1.345,-1.2696,-1.2512,-1.2604,-1.2879,-1.2726,-1.2818,-1.339,-1.2948,-1.2696,-1.2856,-1.2551,-1.2428,-1.3199,-1.2681,-1.2158,-1.2428,-1.205,-1.1443,-1.0776,-1.0253,-1.0065,-0.9855,-0.9618,-0.9703,-1.9098,-1.9098,-1.9098,-1.9098,-1.9098,-1.9098,-1.9098,-1.9098,-1.9098,-1.9098,-1.9098,-1.9098,-1.9098,-1.9098,-1.9098,-1.9098,-1.9098,-1.9098,-1.9098,-1.9131,-1.9374,-1.9462,-1.9473,-1.9208,-1.9098,-1.9098,-1.9098,-1.8808,-1.8438,-1.9353,-1.9276,-1.8279,-1.8831,-1.8865,-1.8192,-1.8931,-1.8975,-1.8303,-1.8754,-1.871,-1.8138,-1.8104,-1.8375,-1.8934,-1.8911,-1.9266,-2.0042,-1.9933,-1.9715,-1.9408,-1.9835,-2.0096,-2.0096,-1.9966,-1.9868,-1.9574,-1.8253,-1.73,-1.6977,-1.5845,-1.4939,-1.4622,-1.4268,-1.4047,-1.3959,-1.392,-1.392,-1.398,-1.401,-1.401,-1.395,-1.395,-1.395,-1.389,-1.3881,-1.3851,-1.389,-1.389,-1.389,-1.389,-1.3881,-1.3881,-1.3881,-1.3911,-1.398,-1.401,-1.401,-1.3761,-1.3381,-1.3601,-1.3351,-1.2696,-1.2381,-1.2328,-1.2266,-1.2205,-1.2481,-1.313,-1.2704,-1.2489,-1.262,-1.1981,-1.1794,-1.2558,-1.2066,-1.1494,-1.1381,-1.1138,-1.0675,-1.0048,-0.961,-0.9293,-0.9207,-0.9012,-0.8976,-1.9098,-1.9098,-1.9098,-1.9098,-1.9098,-1.9098,-1.9098,-1.9098,-1.9098,-1.9098,-1.9098,-1.9098,-1.9098,-1.9098,-1.9098,-1.9098,-1.9098,-1.9098,-1.9098,-1.9098,-1.9131,-1.9142,-1.9175,-1.9131,-1.9098,-1.9065,-1.9065,-1.8975,-1.8875,-1.9108,-1.8898,-1.8428,-1.9142,-1.9231,-1.8844,-1.9529,-1.9649,-1.9008,-1.9065,-1.8888,-1.8476,-1.8465,-1.8643,-1.9011,-1.871,-1.9034,-1.9998,-1.9518,-1.9594,-2.0345,-2.0172,-2.0096,-2.0031,-1.9639,-1.9077,-1.8442,-1.7741,-1.6958,-1.5977,-1.5735,-1.5322,-1.4679,-1.4381,-1.4127,-1.3843,-1.367,-1.3692,-1.3911,-1.398,-1.395,-1.3868,-1.383,-1.3761,-1.361,-1.3571,-1.3549,-1.3571,-1.3549,-1.3541,-1.3549,-1.358,-1.3571,-1.3601,-1.3692,-1.386,-1.3941,-1.3941,-1.389,-1.3761,-1.3442,-1.3009,-1.232,-1.2074,-1.1896,-1.16,-1.1428,-1.1725,-1.2328,-1.2027,-1.1756,-1.1639,-1.1303,-1.0958,-1.1574,-1.1229,-1.0833,-1.0845,-1.0636,-1.0018,-0.9603,-0.9277,-0.9124,-0.8925,-0.8831,-0.8877,-1.9098,-1.9098,-1.9098,-1.9098,-1.9098,-1.9098,-1.9098,-1.9098,-1.9098,-1.9098,-1.9098,-1.9098,-1.9098,-1.9098,-1.9098,-1.9098,-1.9098,-1.9098,-1.9098,-1.9098,-1.9098,-1.9098,-1.9098,-1.9098,-1.8931,-1.864,-1.8607,-1.8428,-1.8226,-1.8462,-1.8506,-1.8337,-1.8674,-1.8697,-1.8519,-1.8509,-1.8351,-1.8134,-1.809,-1.8114,-1.8206,-1.8216,-1.8496,-1.8954,-1.8586,-1.87,-1.9464,-1.9088,-1.8944,-1.9311,-1.9245,-1.9145,-1.9166,-1.8523,-1.8051,-1.7721,-1.7113,-1.6496,-1.5964,-1.5711,-1.5335,-1.4704,-1.4357,-1.4024,-1.3683,-1.3541,-1.3571,-1.367,-1.37,-1.367,-1.364,-1.364,-1.358,-1.3511,-1.348,-1.348,-1.348,-1.348,-1.348,-1.348,-1.348,-1.348,-1.3511,-1.3571,-1.3631,-1.3692,-1.3692,-1.37,-1.37,-1.345,-1.3039,-1.2481,-1.2297,-1.1958,-1.1313,-1.0769,-1.0944,-1.1305,-1.1062,-1.0674,-1.1024,-1.0636,-1.0413,-1.0868,-1.0448,-1.0126,-1.0084,-0.9816,-0.935,-0.9136,-0.9031,-0.8911,-0.8798,-0.8778,-0.8778,-1.9008,-1.9042,-1.9075,-1.9098,-1.9098,-1.9098,-1.9098,-1.9098,-1.9098,-1.9098,-1.9098,-1.9098,-1.9098,-1.9098,-1.9098,-1.9098,-1.9098,-1.9098,-1.9098,-1.9098,-1.9098,-1.8998,-1.8908,-1.9042,-1.8808,-1.8405,-1.8472,-1.8293,-1.7954,-1.8259,-1.8438,-1.8337,-1.8438,-1.8438,-1.8269,-1.7828,-1.7647,-1.7647,-1.752,-1.7545,-1.7808,-1.7818,-1.8192,-1.8821,-1.8408,-1.8442,-1.9034,-1.8509,-1.8263,-1.8368,-1.8277,-1.822,-1.8172,-1.7541,-1.7104,-1.6941,-1.6473,-1.6105,-1.6026,-1.5748,-1.5359,-1.4888,-1.4478,-1.4084,-1.375,-1.3571,-1.3511,-1.3511,-1.348,-1.3511,-1.348,-1.348,-1.348,-1.348,-1.348,-1.348,-1.348,-1.348,-1.348,-1.348,-1.348,-1.348,-1.348,-1.3511,-1.3511,-1.3511,-1.3511,-1.348,-1.348,-1.348,-1.326,-1.2596,-1.2351,-1.1958,-1.1313,-1.1,-1.078,-1.0685,-1.0629,-1.0501,-1.0653,-1.0146,-0.9868,-1.0144,-0.9786,-0.9566,-0.9459,-0.9147,-0.8922,-0.8941,-0.885,-0.8738,-0.8718,-0.8752,-0.8778,-1.8808,-1.8841,-1.8998,-1.9065,-1.9098,-1.9098,-1.9098,-1.9065,-1.9098,-1.9098,-1.9098,-1.9098,-1.9098,-1.9098,-1.9098,-1.9098,-1.9098,-1.9098,-1.9098,-1.9098,-1.9098,-1.8841,-1.8371,-1.8841,-1.8808,-1.8371,-1.8697,-1.8908,-1.8865,-1.8975,-1.8808,-1.8371,-1.8741,-1.8774,-1.8337,-1.8168,-1.8202,-1.8032,-1.7554,-1.7373,-1.7407,-1.7417,-1.7731,-1.8311,-1.8162,-1.8104,-1.8365,-1.7808,-1.7604,-1.7993,-1.7604,-1.7442,-1.7373,-1.6915,-1.6403,-1.6008,-1.5876,-1.5841,-1.5841,-1.5798,-1.5574,-1.5206,-1.4846,-1.4478,-1.405,-1.3742,-1.3523,-1.348,-1.348,-1.348,-1.348,-1.348,-1.348,-1.348,-1.348,-1.348,-1.348,-1.348,-1.348,-1.348,-1.348,-1.348,-1.348,-1.348,-1.348,-1.348,-1.348,-1.348,-1.348,-1.348,-1.323,-1.2696,-1.2135,-1.1609,-1.1725,-1.1132,-1.1062,-1.101,-1.0638,-1.0546,-1.0082,-0.9695,-0.9594,-0.9446,-0.9288,-0.9118,-0.8896,-0.8765,-0.8683,-0.8641,-0.8671,-0.8606,-0.8606,-0.8718,-0.8725,-1.8617,-1.8617,-1.8684,-1.8707,-1.8741,-1.8841,-1.8908,-1.8931,-1.9042,-1.9098,-1.9098,-1.9098,-1.9098,-1.9098,-1.9098,-1.9098,-1.9098,-1.9098,-1.9098,-1.9098,-1.9098,-1.8998,-1.8865,-1.9008,-1.8808,-1.8405,-1.8506,-1.8371,-1.809,-1.8395,-1.8506,-1.8371,-1.8472,-1.8472,-1.8192,-1.7579,-1.7192,-1.7166,-1.6656,-1.6386,-1.6412,-1.6386,-1.6517,-1.6768,-1.7019,-1.7148,-1.7285,-1.6682,-1.6456,-1.6586,-1.6447,-1.6386,-1.6351,-1.6211,-1.6,-1.5832,-1.5805,-1.5805,-1.5805,-1.5805,-1.5634,-1.5266,-1.5103,-1.4744,-1.423,-1.3956,-1.3785,-1.3579,-1.348,-1.348,-1.348,-1.348,-1.348,-1.348,-1.348,-1.348,-1.348,-1.348,-1.348,-1.348,-1.348,-1.348,-1.348,-1.348,-1.348,-1.348,-1.348,-1.348,-1.348,-1.348,-1.3381,-1.3199,-1.294,-1.2795,-1.2873,-1.1195,-1.0275,-1.0412,-1.0258,-0.9835,-0.9358,-0.9221,-0.9112,-0.8823,-0.872,-0.8689,-0.8483,-0.849,-0.8422,-0.8451,-0.8448,-0.8474,-0.8441,-0.856,-0.856,-1.8798,-1.8747,-1.8737,-1.8646,-1.8516,-1.865,-1.8717,-1.8707,-1.8831,-1.8908,-1.8908,-1.8908,-1.8908,-1.8908,-1.8908,-1.8908,-1.8931,-1.9031,-1.9098,-1.9098,-1.9098,-1.8965,-1.8808,-1.8975,-1.8774,-1.8337,-1.8472,-1.8337,-1.8032,-1.8361,-1.8539,-1.8573,-1.8563,-1.8573,-1.8395,-1.7604,-1.7166,-1.7019,-1.6438,-1.607,-1.6035,-1.5903,-1.5805,-1.5876,-1.6167,-1.6333,-1.6333,-1.6008,-1.5805,-1.5805,-1.5805,-1.5805,-1.5805,-1.5805,-1.5805,-1.5805,-1.5805,-1.5805,-1.5805,-1.5805,-1.5685,-1.5429,-1.5274,-1.4966,-1.4487,-1.4238,-1.3973,-1.375,-1.3562,-1.348,-1.3359,-1.3329,-1.339,-1.345,-1.339,-1.3329,-1.3338,-1.3238,-1.3246,-1.3277,-1.3299,-1.3359,-1.3472,-1.348,-1.348,-1.348,-1.348,-1.348,-1.348,-1.348,-1.348,-1.345,-1.3199,-1.3169,-1.3047,-1.1779,-1.078,-1.0763,-1.0243,-0.9572,-0.9149,-0.8946,-0.8718,-0.8351,-0.8184,-0.8166,-0.8174,-0.8213,-0.8215,-0.8268,-0.8295,-0.8321,-0.8348,-0.8374,-0.8401,-1.9392,-1.9184,-1.9188,-1.8903,-1.8538,-1.8552,-1.8536,-1.8526,-1.8516,-1.8549,-1.8583,-1.8516,-1.8549,-1.8516,-1.8583,-1.8516,-1.8607,-1.8875,-1.9042,-1.9031,-1.9042,-1.8707,-1.8202,-1.8774,-1.864,-1.8032,-1.8674,-1.8931,-1.8764,-1.8787,-1.8865,-1.8965,-1.8875,-1.8764,-1.8998,-1.8259,-1.81,-1.775,-1.689,-1.6508,-1.6533,-1.6044,-1.5805,-1.5805,-1.5841,-1.5867,-1.5841,-1.5832,-1.5805,-1.5805,-1.5805,-1.5805,-1.5805,-1.5805,-1.5805,-1.5805,-1.5805,-1.5805,-1.5805,-1.5805,-1.5797,-1.5703,-1.5403,-1.5198,-1.5018,-1.4555,-1.4161,-1.3967,-1.3697,-1.3363,-1.3058,-1.3011,-1.3094,-1.339,-1.3155,-1.3011,-1.295,-1.2736,-1.2636,-1.2911,-1.3011,-1.3133,-1.3359,-1.339,-1.3359,-1.3359,-1.3359,-1.3359,-1.3329,-1.3329,-1.342,-1.3329,-1.3047,-1.2903,-1.2734,-1.242,-1.1896,-1.1379,-1.0566,-0.986,-0.9476,-0.922,-0.8991,-0.8668,-0.8367,-0.8325,-0.8244,-0.8235,-0.8035,-0.8062,-0.8115,-0.8195,-0.8195,-0.8215,-0.8268,-1.9354,-1.9282,-1.9272,-1.9025,-1.8606,-1.8706,-1.8626,-1.8381,-1.8448,-1.8482,-1.8482,-1.8482,-1.8482,-1.8482,-1.8482,-1.8482,-1.8516,-1.865,-1.8684,-1.8674,-1.8684,-1.8573,-1.8414,-1.8573,-1.8293,-1.7706,-1.756,-1.7594,-1.7653,-1.7842,-1.7954,-1.792,-1.792,-1.7808,-1.7628,-1.7285,-1.7019,-1.6707,-1.6272,-1.6035,-1.6035,-1.5903,-1.5805,-1.5805,-1.5805,-1.5805,-1.5805,-1.5805,-1.5805,-1.5805,-1.5805,-1.5805,-1.5805,-1.5805,-1.5805,-1.5805,-1.5805,-1.5805,-1.5805,-1.5805,-1.577,-1.578,-1.5633,-1.548,-1.5257,-1.4967,-1.4484,-1.3926,-1.362,-1.3322,-1.2823,-1.2666,-1.2697,-1.282,-1.2728,-1.2644,-1.2613,-1.2544,-1.2544,-1.2605,-1.2666,-1.2728,-1.2789,-1.285,-1.2881,-1.2873,-1.2881,-1.2842,-1.2842,-1.2903,-1.2812,-1.2758,-1.2574,-1.2566,-1.2505,-1.2405,-1.2027,-1.1607,-1.0949,-1.0314,-0.9899,-0.957,-0.9314,-0.901,-0.8699,-0.8521,-0.8441,-0.8335,-0.8215,-0.8008,-0.8115,-0.8115,-0.8035,-0.8062,-0.8135,-1.9668,-1.9521,-1.9521,-1.9268,-1.8896,-1.901,-1.8897,-1.8676,-1.8577,-1.8551,-1.8497,-1.8383,-1.8303,-1.8313,-1.8313,-1.8313,-1.8313,-1.8313,-1.8303,-1.8347,-1.8482,-1.8482,-1.8371,-1.809,-1.7662,-1.706,-1.6784,-1.6689,-1.6689,-1.701,-1.7123,-1.7054,-1.7123,-1.7044,-1.6724,-1.655,-1.6359,-1.6105,-1.5956,-1.585,-1.5823,-1.5682,-1.5584,-1.5549,-1.5434,-1.5371,-1.5363,-1.5363,-1.547,-1.5735,-1.5805,-1.5805,-1.5805,-1.5647,-1.5576,-1.5541,-1.5434,-1.5336,-1.5328,-1.5292,-1.5363,-1.5363,-1.5363,-1.5244,-1.4995,-1.4922,-1.4412,-1.395,-1.3502,-1.3139,-1.2625,-1.2391,-1.2313,-1.2174,-1.2305,-1.2274,-1.2212,-1.2143,-1.2236,-1.2305,-1.2367,-1.239,-1.2482,-1.2521,-1.2521,-1.2521,-1.2521,-1.2521,-1.2521,-1.2544,-1.2482,-1.2482,-1.2513,-1.2513,-1.2459,-1.2297,-1.2073,-1.1738,-1.1323,-1.0799,-1.0351,-1.0107,-0.9833,-0.9494,-0.9171,-0.9119,-0.904,-0.8909,-0.8758,-0.8527,-0.8342,-0.8342,-0.8368,-0.8029,-0.8002,-2.0322,-1.9971,-1.9951,-1.9707,-1.9346,-1.9326,-1.9304,-1.9216,-1.8848,-1.8672,-1.8594,-1.8384,-1.8189,-1.8115,-1.8189,-1.8149,-1.8057,-1.8042,-1.8042,-1.811,-1.8279,-1.8381,-1.8202,-1.756,-1.7001,-1.6541,-1.6367,-1.6341,-1.6411,-1.6768,-1.6689,-1.642,-1.662,-1.6585,-1.6132,-1.6167,-1.6062,-1.5921,-1.586,-1.5806,-1.5798,-1.5417,-1.5169,-1.5169,-1.4883,-1.4713,-1.4713,-1.4713,-1.4999,-1.562,-1.562,-1.5628,-1.562,-1.5355,-1.5169,-1.5161,-1.482,-1.4713,-1.4641,-1.4713,-1.4713,-1.4713,-1.4713,-1.4597,-1.4633,-1.446,-1.4244,-1.3947,-1.3462,-1.2929,-1.2548,-1.227,-1.2002,-1.1723,-1.1903,-1.1934,-1.1685,-1.1654,-1.1809,-1.1996,-1.2089,-1.2151,-1.2328,-1.2359,-1.2398,-1.239,-1.2359,-1.2328,-1.2328,-1.2297,-1.239,-1.239,-1.2297,-1.2243,-1.2151,-1.212,-1.1926,-1.1913,-1.1577,-1.1171,-1.0805,-1.0555,-1.0429,-1.0079,-0.9666,-0.9633,-0.9555,-0.9406,-0.9328,-0.9204,-0.904,-0.8909,-0.86,-0.8209,-0.7928,-2.0537,-2.0439,-2.0429,-2.0146,-1.9775,-1.9756,-1.957,-1.9297,-1.9189,-1.9111,-1.9072,-1.9004,-1.8896,-1.8906,-1.8559,-1.8432,-1.8373,-1.8174,-1.8008,-1.8008,-1.8076,-1.81,-1.793,-1.7329,-1.6862,-1.6655,-1.6376,-1.6306,-1.6341,-1.6673,-1.6499,-1.5974,-1.6,-1.5613,-1.4867,-1.4947,-1.4911,-1.4768,-1.4911,-1.4991,-1.4955,-1.4883,-1.4748,-1.4748,-1.4641,-1.4569,-1.4569,-1.4605,-1.4677,-1.4856,-1.4927,-1.4892,-1.4963,-1.4848,-1.4776,-1.474,-1.4641,-1.4569,-1.4569,-1.4561,-1.4561,-1.4605,-1.4497,-1.4605,-1.4605,-1.4526,-1.423,-1.3859,-1.3484,-1.3073,-1.2349,-1.2084,-1.1873,-1.1667,-1.1731,-1.1716,-1.1622,-1.1591,-1.1654,-1.1716,-1.1755,-1.1809,-1.1872,-1.1903,-1.1903,-1.1895,-1.1895,-1.1895,-1.1957,-1.1926,-1.1988,-1.1872,-1.1809,-1.1809,-1.1817,-1.1809,-1.1856,-1.1989,-1.1774,-1.1451,-1.1143,-1.0942,-1.0924,-1.0837,-1.0241,-1.0035,-0.995,-0.9847,-0.9795,-0.9803,-0.9354,-0.9014,-0.8699,-0.8335,-0.8029,-2.0615,-2.0615,-2.0615,-2.0458,-2.0195,-2.0185,-2.0039,-1.9814,-1.9619,-1.9551,-1.9521,-1.9355,-1.9277,-1.9248,-1.9023,-1.888,-1.8867,-1.8652,-1.8457,-1.8252,-1.8096,-1.7828,-1.7501,-1.7044,-1.6724,-1.6376,-1.6202,-1.5851,-1.5737,-1.628,-1.5974,-1.5125,-1.5303,-1.4939,-1.3992,-1.4029,-1.4065,-1.3956,-1.4201,-1.4382,-1.4382,-1.4382,-1.4382,-1.4353,-1.4245,-1.4137,-1.4145,-1.4101,-1.4245,-1.4497,-1.4605,-1.4605,-1.4569,-1.4453,-1.4389,-1.4382,-1.4245,-1.4137,-1.4145,-1.4145,-1.4137,-1.4137,-1.4137,-1.4137,-1.4101,-1.4137,-1.3914,-1.3643,-1.3442,-1.3026,-1.2579,-1.2178,-1.197,-1.1794,-1.1672,-1.1599,-1.1591,-1.1591,-1.1591,-1.1591,-1.1591,-1.1591,-1.1591,-1.1584,-1.1591,-1.1622,-1.1654,-1.1654,-1.1654,-1.1591,-1.1591,-1.1591,-1.1591,-1.1654,-1.1685,-1.1685,-1.1716,-1.1857,-1.1745,-1.1448,-1.1246,-1.1067,-1.0952,-1.0868,-1.0597,-1.0403,-1.0275,-1.0241,-1.0377,-1.0164,-0.9614,-0.9223,-0.8961,-0.8415,-0.8109,-2.0615,-2.0615,-2.0615,-2.0615,-2.0586,-2.0605,-2.0537,-2.0507,-2.0137,-1.999,-1.9922,-1.959,-1.9551,-1.9414,-1.9424,-1.9346,-1.9346,-1.9209,-1.885,-1.8515,-1.8094,-1.7653,-1.7058,-1.7178,-1.6811,-1.6341,-1.5991,-1.5781,-1.5842,-1.6271,-1.5498,-1.4804,-1.5089,-1.4697,-1.4057,-1.3775,-1.3637,-1.3775,-1.392,-1.4021,-1.4029,-1.4029,-1.4021,-1.3992,-1.3783,-1.3637,-1.3601,-1.3601,-1.3819,-1.4418,-1.4497,-1.4389,-1.4389,-1.4173,-1.4065,-1.3992,-1.3783,-1.3601,-1.3528,-1.3601,-1.3528,-1.3601,-1.3564,-1.3492,-1.3601,-1.3637,-1.3579,-1.3506,-1.3221,-1.3095,-1.287,-1.2404,-1.2127,-1.2043,-1.1816,-1.1665,-1.1635,-1.1613,-1.1584,-1.1555,-1.1547,-1.1584,-1.1555,-1.1569,-1.1591,-1.1591,-1.1591,-1.1591,-1.1591,-1.1591,-1.1591,-1.1591,-1.1591,-1.1591,-1.1622,-1.1622,-1.1622,-1.1663,-1.1545,-1.1309,-1.1111,-1.0911,-1.0748,-1.0577,-1.051,-1.0462,-1.0437,-1.0539,-1.0667,-1.048,-0.9906,-0.9647,-0.9413,-0.8606,-0.8115,-2.0615,-2.0615,-2.0615,-2.0615,-2.0615,-2.0615,-2.0615,-2.0595,-2.0507,-2.0429,-2.0439,-2.0341,-2.0292,-2.0234,-1.9922,-1.9738,-1.9727,-1.9418,-1.8872,-1.8174,-1.8063,-1.7523,-1.7078,-1.7389,-1.7617,-1.7332,-1.7451,-1.7304,-1.7235,-1.6906,-1.6768,-1.5428,-1.5534,-1.5781,-1.4466,-1.415,-1.4358,-1.4258,-1.3912,-1.3666,-1.3666,-1.3674,-1.3666,-1.3637,-1.3564,-1.3492,-1.3492,-1.3492,-1.3564,-1.371,-1.3739,-1.3811,-1.3783,-1.3702,-1.3666,-1.3674,-1.3601,-1.3492,-1.3492,-1.3492,-1.3492,-1.3492,-1.3492,-1.3492,-1.3492,-1.3492,-1.3492,-1.3484,-1.3426,-1.3265,-1.3045,-1.2638,-1.2426,-1.2317,-1.2105,-1.1933,-1.1889,-1.1706,-1.1511,-1.1371,-1.1452,-1.1496,-1.1283,-1.1503,-1.1555,-1.1577,-1.1591,-1.1591,-1.1591,-1.1591,-1.1591,-1.1591,-1.1591,-1.1591,-1.1591,-1.1591,-1.1591,-1.1591,-1.1474,-1.1147,-1.0937,-1.0765,-1.0576,-1.0526,-1.052,-1.047,-1.0308,-1.0445,-1.0496,-1.0334,-1.0146,-0.9829,-0.9387,-0.8685,-0.8162,-2.0615,-2.0615,-2.0615,-2.0615,-2.0615,-2.0615,-2.0615,-2.0615,-2.0615,-2.0615,-2.0615,-2.0615,-2.0615,-2.0595,-2.0332,-2.0215,-2.0003,-1.9335,-1.8976,-1.8714,-1.836,-1.7757,-1.7507,-1.7633,-1.7802,-1.7281,-1.7095,-1.6942,-1.6604,-1.6673,-1.5991,-1.4824,-1.549,-1.5037,-1.4258,-1.4114,-1.4013,-1.3977,-1.3739,-1.3492,-1.3492,-1.3492,-1.3492,-1.3492,-1.3492,-1.3492,-1.3492,-1.3492,-1.3492,-1.3492,-1.3492,-1.3492,-1.3492,-1.3492,-1.3492,-1.3492,-1.3492,-1.3492,-1.3492,-1.3492,-1.3492,-1.3492,-1.3492,-1.3492,-1.3492,-1.3492,-1.3492,-1.3492,-1.3477,-1.3404,-1.3236,-1.2943,-1.2782,-1.2687,-1.2426,-1.2244,-1.2189,-1.186,-1.1547,-1.1393,-1.1496,-1.1496,-1.1474,-1.1503,-1.1547,-1.1591,-1.1591,-1.1591,-1.1591,-1.1591,-1.1591,-1.1591,-1.1591,-1.1591,-1.1591,-1.1591,-1.1591,-1.1591,-1.1555,-1.1104,-1.0699,-1.0538,-1.0392,-1.0297,-1.0155,-1.0051,-0.9958,-1.0146,-1.0239,-1.0154,-0.9966,-0.9751,-0.9387,-0.8791,-0.8309,-2.0615,-2.0615,-2.0615,-2.0615,-2.0615,-2.0615,-2.0615,-2.0615,-2.0615,-2.0615,-2.0615,-2.0615,-2.0615,-2.0605,-2.0595,-2.0605,-2.0294,-1.9649,-1.9354,-1.9393,-1.8712,-1.8024,-1.7734,-1.7541,-1.7084,-1.61,-1.6348,-1.5951,-1.5605,-1.5367,-1.5444,-1.4177,-1.4482,-1.4653,-1.3949,-1.3702,-1.384,-1.3876,-1.3666,-1.3492,-1.3492,-1.3492,-1.3492,-1.3492,-1.3492,-1.3492,-1.3492,-1.3492,-1.3492,-1.3492,-1.3492,-1.3492,-1.3492,-1.3492,-1.3492,-1.3492,-1.3492,-1.3492,-1.3492,-1.3492,-1.3492,-1.3492,-1.3492,-1.3492,-1.3492,-1.3492,-1.3492,-1.3492,-1.3484,-1.3484,-1.347,-1.3258,-1.3104,-1.3023,-1.2789,-1.2621,-1.2489,-1.2098,-1.1819,-1.1577,-1.1547,-1.1511,-1.1496,-1.1503,-1.1547,-1.1591,-1.1591,-1.1591,-1.1591,-1.1591,-1.1591,-1.1591,-1.1591,-1.1591,-1.1591,-1.1591,-1.1591,-1.1591,-1.1591,-1.1174,-1.0648,-1.0425,-1.027,-0.9876,-0.9711,-0.9621,-0.9582,-0.9672,-0.9777,-0.9859,-0.9862,-0.9692,-0.9328,-0.8896,-0.8547,-2.0615,-2.0615,-2.0615,-2.0615,-2.0615,-2.0615,-2.0615,-2.0615,-2.0615,-2.0615,-2.0615,-2.0615,-2.0615,-2.0615,-2.0615,-2.0615,-2.0489,-2.0062,-1.981,-1.9625,-1.9056,-1.8472,-1.7355,-1.7242,-1.6429,-1.5708,-1.597,-1.6283,-1.6084,-1.6139,-1.5369,-1.4982,-1.5129,-1.4971,-1.4446,-1.4394,-1.4194,-1.4049,-1.3739,-1.3492,-1.3492,-1.3492,-1.3492,-1.3492,-1.3492,-1.3492,-1.3492,-1.3492,-1.3492,-1.3492,-1.3492,-1.3492,-1.3492,-1.3492,-1.3492,-1.3492,-1.3492,-1.3492,-1.3492,-1.3492,-1.3492,-1.3492,-1.3492,-1.3492,-1.3492,-1.3492,-1.3492,-1.3492,-1.3492,-1.3492,-1.3492,-1.3397,-1.3404,-1.3323,-1.314,-1.2928,-1.2848,-1.2562,-1.2145,-1.1885,-1.1723,-1.1584,-1.1599,-1.1591,-1.1621,-1.1628,-1.1591,-1.1591,-1.1591,-1.1591,-1.1591,-1.1591,-1.1591,-1.1591,-1.1591,-1.1591,-1.1591,-1.1591,-1.1529,-1.1303,-1.0832,-1.0482,-1.0162,-0.98,-0.9482,-0.9302,-0.9289,-0.9352,-0.9346,-0.9475,-0.9532,-0.9614,-0.9309,-0.8975,-0.8929,-2.0615,-2.0615,-2.0615,-2.0615,-2.0615,-2.0615,-2.0615,-2.0615,-2.0615,-2.0615,-2.0615,-2.0615,-2.0615,-2.0615,-2.0615,-2.0615,-2.0527,-2.005,-1.9932,-1.9814,-1.946,-1.8647,-1.7472,-1.735,-1.6423,-1.5698,-1.5773,-1.5874,-1.5582,-1.5363,-1.5114,-1.4695,-1.4738,-1.4561,-1.416,-1.3985,-1.4057,-1.3949,-1.3702,-1.3492,-1.3492,-1.3492,-1.3492,-1.3492,-1.3492,-1.3492,-1.3492,-1.3492,-1.3492,-1.3492,-1.3492,-1.3492,-1.3492,-1.3492,-1.3492,-1.3492,-1.3492,-1.3492,-1.3492,-1.3492,-1.3492,-1.3492,-1.3492,-1.3492,-1.3492,-1.3492,-1.3492,-1.3492,-1.3492,-1.3492,-1.3492,-1.3492,-1.3492,-1.347,-1.3338,-1.3265,-1.3184,-1.295,-1.2621,-1.2303,-1.2211,-1.2058,-1.1743,-1.1728,-1.1731,-1.1679,-1.1613,-1.1599,-1.1599,-1.1591,-1.1591,-1.1591,-1.1591,-1.1591,-1.1591,-1.1591,-1.1591,-1.1591,-1.1529,-1.1303,-1.0954,-1.054,-1.017,-0.9844,-0.9511,-0.9398,-0.928,-0.9445,-0.9266,-0.9076,-0.9167,-0.9246,-0.9225,-0.914,-0.9061,-2.0615,-2.0615,-2.0615,-2.0615,-2.0615,-2.0615,-2.0615,-2.0615,-2.0615,-2.0615,-2.0615,-2.0615,-2.0615,-2.0615,-2.0615,-2.0576,-2.0527,-1.9893,-2.005,-2.0284,-1.9932,-1.9085,-1.8238,-1.7796,-1.705,-1.5538,-1.5433,-1.5167,-1.5008,-1.4808,-1.4491,-1.439,-1.4196,-1.3954,-1.3756,-1.3785,-1.3579,-1.3499,-1.3492,-1.3492,-1.3492,-1.3492,-1.3492,-1.3492,-1.3492,-1.3492,-1.3492,-1.3492,-1.3492,-1.3492,-1.3492,-1.3492,-1.3492,-1.3492,-1.3492,-1.3492,-1.3492,-1.3492,-1.3492,-1.3492,-1.3492,-1.3492,-1.3492,-1.3492,-1.3492,-1.3492,-1.3492,-1.3492,-1.3492,-1.3492,-1.3492,-1.3492,-1.3492,-1.3484,-1.3484,-1.347,-1.3397,-1.3265,-1.3148,-1.2921,-1.2819,-1.2541,-1.2197,-1.2043,-1.2036,-1.1845,-1.1772,-1.1657,-1.165,-1.1599,-1.1591,-1.1591,-1.1591,-1.1591,-1.1591,-1.1591,-1.1591,-1.1591,-1.1529,-1.1373,-1.0958,-1.0533,-1.0273,-1.012,-1.0118,-0.9975,-0.9765,-0.943,-0.9171,-0.8997,-0.8924,-0.8858,-0.8871,-0.8989,-0.9041,-2.0615,-2.0615,-2.0615,-2.0615,-2.0615,-2.0615,-2.0615,-2.0615,-2.0566,-2.0615,-2.0489,-2.0527,-2.045,-2.0411,-2.045,-2.0489,-2.045,-2.0206,-2.0089,-2.0206,-2.0089,-1.9195,-1.8109,-1.7997,-1.6919,-1.5631,-1.5389,-1.5409,-1.5189,-1.4977,-1.486,-1.4728,-1.4479,-1.4284,-1.396,-1.3865,-1.377,-1.355,-1.3499,-1.3492,-1.3492,-1.3492,-1.3492,-1.3492,-1.3492,-1.3492,-1.3492,-1.3492,-1.3492,-1.3492,-1.3492,-1.3492,-1.3492,-1.3492,-1.3492,-1.3492,-1.3492,-1.3492,-1.3492,-1.3492,-1.3492,-1.3492,-1.3492,-1.3492,-1.3492,-1.3492,-1.3492,-1.3492,-1.3492,-1.3492,-1.3492,-1.3492,-1.3492,-1.3492,-1.3492,-1.3492,-1.3462,-1.3433,-1.3338,-1.3331,-1.3148,-1.2899,-1.2606,-1.2482,-1.2332,-1.2113,-1.1948,-1.1802,-1.167,-1.165,-1.1591,-1.1591,-1.1591,-1.1591,-1.1591,-1.1591,-1.1591,-1.1591,-1.1529,-1.1466,-1.1115,-1.0793,-1.0769,-1.0656,-1.0595,-1.0414,-1.0043,-0.9629,-0.9163,-0.8907,-0.8815,-0.8654,-0.848,-0.8679,-0.8917,-2.0615,-2.0615,-2.0615,-2.0615,-2.0615,-2.0615,-2.0615,-2.0489,-2.005,-1.9854,-1.9726,-1.9323,-1.9116,-1.9234,-1.9116,-1.9116,-1.9155,-1.9195,-1.9125,-1.9204,-1.9116,-1.847,-1.7513,-1.7188,-1.6509,-1.5756,-1.5389,-1.5389,-1.5323,-1.525,-1.5112,-1.49,-1.4769,-1.4575,-1.4267,-1.4108,-1.3923,-1.3755,-1.3616,-1.3499,-1.3492,-1.3492,-1.3492,-1.3492,-1.3492,-1.3492,-1.3492,-1.3492,-1.3492,-1.3492,-1.3492,-1.3492,-1.3492,-1.3492,-1.3492,-1.3492,-1.3492,-1.3492,-1.3492,-1.3492,-1.3492,-1.3492,-1.3492,-1.3492,-1.3492,-1.3492,-1.3492,-1.3492,-1.3492,-1.3492,-1.3492,-1.3492,-1.3492,-1.3492,-1.3492,-1.3492,-1.3492,-1.3492,-1.3455,-1.3477,-1.347,-1.3171,-1.2909,-1.2758,-1.2611,-1.2383,-1.2156,-1.1967,-1.1823,-1.1709,-1.165,-1.1591,-1.1591,-1.1591,-1.1591,-1.1591,-1.1591,-1.1591,-1.1591,-1.1498,-1.1341,-1.1146,-1.1059,-1.0996,-1.0881,-1.0612,-1.0296,-0.9932,-0.9607,-0.9135,-0.8692,-0.8506,-0.8349,-0.8413,-0.8592,-2.0615,-2.0615,-2.0615,-2.0615,-2.0615,-2.0615,-2.0615,-2.0489,-1.9696,-1.9292,-1.9054,-1.8487,-1.8078,-1.8037,-1.8118,-1.8198,-1.8078,-1.7997,-1.7997,-1.7997,-1.7917,-1.7553,-1.7025,-1.6698,-1.6304,-1.5389,-1.5389,-1.5389,-1.5389,-1.5352,-1.5228,-1.5031,-1.5046,-1.4842,-1.4604,-1.4392,-1.4216,-1.3931,-1.3755,-1.3609,-1.3514,-1.3492,-1.3492,-1.3492,-1.3492,-1.3492,-1.3492,-1.3492,-1.3492,-1.3492,-1.3492,-1.3492,-1.3492,-1.3492,-1.3492,-1.3492,-1.3492,-1.3492,-1.3492,-1.3492,-1.3492,-1.3492,-1.3492,-1.3492,-1.3492,-1.3492,-1.3492,-1.3492,-1.3492,-1.3492,-1.3492,-1.3492,-1.3492,-1.3492,-1.3492,-1.3492,-1.3492,-1.3455,-1.3411,-1.3375,-1.3339,-1.3302,-1.3122,-1.3035,-1.2861,-1.2667,-1.2419,-1.22,-1.1989,-1.1823,-1.1731,-1.1672,-1.1613,-1.1606,-1.1591,-1.1591,-1.1591,-1.1591,-1.1591,-1.156,-1.1435,-1.1341,-1.1279,-1.1216,-1.1146,-1.1111,-1.0902,-1.0465,-0.9992,-0.9285,-0.8645,-0.8381,-0.825,-0.8306,-0.8352,-2.0615,-2.0615,-2.0615,-2.0615,-2.0615,-2.0615,-2.0615,-2.0527,-1.9608,-1.9173,-1.8926,-1.8359,-1.7876,-1.7876,-1.7755,-1.7755,-1.7917,-1.7997,-1.7755,-1.7796,-1.7917,-1.7269,-1.6747,-1.6378,-1.6188,-1.5555,-1.5389,-1.5389,-1.5389,-1.5389,-1.5367,-1.5352,-1.5272,-1.5119,-1.4929,-1.4732,-1.4457,-1.4172,-1.4005,-1.3829,-1.3631,-1.3543,-1.3528,-1.3492,-1.3492,-1.3492,-1.3492,-1.3492,-1.3492,-1.3492,-1.3492,-1.3492,-1.3492,-1.3492,-1.3492,-1.3492,-1.3492,-1.3492,-1.3492,-1.3492,-1.3492,-1.3492,-1.3492,-1.3492,-1.3492,-1.3492,-1.3492,-1.3492,-1.3492,-1.3492,-1.3492,-1.3492,-1.3492,-1.3492,-1.3455,-1.3419,-1.3419,-1.3382,-1.3339,-1.3229,-1.3193,-1.3156,-1.3119,-1.2998,-1.3028,-1.2854,-1.2782,-1.2562,-1.2215,-1.1996,-1.1845,-1.1767,-1.1672,-1.1628,-1.1599,-1.1591,-1.1591,-1.1591,-1.1591,-1.1591,-1.156,-1.1498,-1.1373,-1.1404,-1.1341,-1.1435,-1.1327,-1.0539,-0.9792,-0.9118,-0.8659,-0.8521,-0.823,-0.8069,-0.8153,-2.0615,-2.0615,-2.0615,-2.0615,-2.0615,-2.0615,-2.0615,-2.0372,-1.9125,-1.8158,-1.7706,-1.7342,-1.7188,-1.7066,-1.655,-1.6394,-1.6394,-1.6394,-1.6476,-1.6394,-1.6319,-1.6196,-1.5906,-1.5906,-1.5707,-1.5472,-1.5389,-1.5389,-1.5389,-1.5389,-1.5389,-1.5389,-1.5389,-1.5372,-1.5185,-1.4995,-1.4652,-1.4428,-1.4291,-1.4152,-1.3902,-1.3777,-1.3704,-1.3506,-1.3492,-1.3492,-1.3492,-1.3492,-1.3492,-1.3492,-1.3492,-1.3492,-1.3492,-1.3492,-1.3492,-1.3492,-1.3492,-1.3492,-1.3492,-1.3492,-1.3492,-1.3492,-1.3492,-1.3492,-1.3492,-1.3492,-1.3492,-1.3492,-1.3492,-1.3455,-1.3492,-1.3492,-1.3492,-1.3455,-1.3419,-1.3382,-1.3309,-1.3273,-1.3156,-1.3039,-1.301,-1.301,-1.2973,-1.2922,-1.3005,-1.305,-1.299,-1.287,-1.248,-1.2192,-1.204,-1.1873,-1.1786,-1.1694,-1.1658,-1.1624,-1.1606,-1.1575,-1.1582,-1.1529,-1.1498,-1.1428,-1.1334,-1.1404,-1.1404,-1.1373,-1.1014,-1.0281,-0.9699,-0.9306,-0.9051,-0.8866,-0.8462,-0.7907,-0.7869,-2.0615,-2.0615,-2.0615,-2.0615,-2.0615,-2.0615,-2.0615,-2.0294,-1.8767,-1.7318,-1.6345,-1.6304,-1.6304,-1.6105,-1.579,-1.5472,-1.5555,-1.5555,-1.5472,-1.5514,-1.5555,-1.5389,-1.5389,-1.5431,-1.5514,-1.5389,-1.5389,-1.5389,-1.5389,-1.5389,-1.5389,-1.5389,-1.5389,-1.5416,-1.5365,-1.5163,-1.4885,-1.4684,-1.4582,-1.4482,-1.421,-1.4114,-1.3967,-1.3718,-1.3667,-1.3579,-1.3536,-1.3492,-1.3492,-1.3492,-1.3492,-1.3492,-1.3492,-1.3492,-1.3492,-1.3492,-1.3492,-1.3492,-1.3492,-1.3492,-1.3492,-1.3492,-1.3492,-1.3492,-1.3492,-1.3492,-1.3492,-1.3499,-1.3455,-1.3419,-1.3455,-1.3455,-1.3382,-1.3346,-1.3309,-1.3236,-1.3119,-1.3046,-1.2929,-1.282,-1.282,-1.279,-1.2753,-1.2709,-1.2879,-1.2976,-1.297,-1.2813,-1.2499,-1.2299,-1.2192,-1.2028,-1.1885,-1.1815,-1.175,-1.1668,-1.1578,-1.1482,-1.146,-1.1394,-1.1341,-1.1286,-1.1254,-1.1279,-1.1247,-1.1178,-1.0926,-1.0541,-1.0123,-0.9723,-0.918,-0.8437,-0.8043,-0.7491,-0.7404,-2.0615,-2.0615,-2.0615,-2.0615,-2.0615,-2.0615,-2.0615,-2.0401,-1.8838,-1.7196,-1.5831,-1.5673,-1.5673,-1.5624,-1.5548,-1.5431,-1.5389,-1.5389,-1.5389,-1.5389,-1.5389,-1.5389,-1.5389,-1.5389,-1.5389,-1.5389,-1.5389,-1.5389,-1.5389,-1.5389,-1.5389,-1.5389,-1.5389,-1.5389,-1.5389,-1.5389,-1.5206,-1.4944,-1.49,-1.475,-1.4531,-1.445,-1.4275,-1.4048,-1.3939,-1.3814,-1.3645,-1.3514,-1.3499,-1.3492,-1.3492,-1.3492,-1.3492,-1.3492,-1.3492,-1.3455,-1.3455,-1.3455,-1.3455,-1.3455,-1.3455,-1.3492,-1.3492,-1.3499,-1.3499,-1.3492,-1.3419,-1.3353,-1.3266,-1.3309,-1.3309,-1.3346,-1.3229,-1.3193,-1.3163,-1.309,-1.2936,-1.282,-1.2673,-1.2592,-1.2599,-1.2562,-1.2489,-1.2489,-1.2673,-1.2813,-1.2893,-1.2775,-1.2515,-1.2445,-1.2389,-1.2212,-1.2057,-1.1923,-1.1829,-1.165,-1.154,-1.1469,-1.1439,-1.1432,-1.1326,-1.1203,-1.1182,-1.115,-1.109,-1.1021,-1.1028,-1.0965,-1.0066,-0.9064,-0.8328,-0.7678,-0.7324,-0.7183,-0.7215,-2.0615,-2.0615,-2.0615,-2.0615,-2.0615,-2.0615,-2.0615,-2.0411,-1.9332,-1.7876,-1.6501,-1.6263,-1.6263,-1.6147,-1.5631,-1.5389,-1.5389,-1.5389,-1.5389,-1.5389,-1.5389,-1.5389,-1.5389,-1.5389,-1.5389,-1.5389,-1.5389,-1.5389,-1.5389,-1.5389,-1.5389,-1.5389,-1.5389,-1.5389,-1.5389,-1.5389,-1.5301,-1.5236,-1.5199,-1.5082,-1.4823,-1.4765,-1.4633,-1.4357,-1.4166,-1.3967,-1.3814,-1.3667,-1.3543,-1.3528,-1.3521,-1.3492,-1.3492,-1.3492,-1.3419,-1.3346,-1.3273,-1.3236,-1.3156,-1.3119,-1.3236,-1.3382,-1.3455,-1.3419,-1.3346,-1.3309,-1.3236,-1.3163,-1.3046,-1.3053,-1.3046,-1.3046,-1.2973,-1.2973,-1.29,-1.279,-1.2673,-1.2526,-1.2415,-1.2409,-1.2372,-1.2415,-1.2378,-1.2378,-1.2526,-1.2636,-1.2709,-1.282,-1.2668,-1.269,-1.267,-1.2459,-1.2249,-1.2095,-1.1943,-1.1804,-1.1701,-1.1686,-1.1657,-1.1654,-1.1502,-1.1251,-1.1081,-1.1026,-1.0957,-1.0863,-1.0744,-1.039,-0.9198,-0.8199,-0.7684,-0.7396,-0.7233,-0.7232,-0.7294,-2.0527,-2.0615,-2.0615,-2.0615,-2.0615,-2.0615,-2.0323,-1.9638,-1.8767,-1.7561,-1.6427,-1.6221,-1.618,-1.6023,-1.5707,-1.5389,-1.5389,-1.5389,-1.5389,-1.5389,-1.5389,-1.5389,-1.5389,-1.5389,-1.5389,-1.5389,-1.5389,-1.5389,-1.5389,-1.5389,-1.5389,-1.5389,-1.5389,-1.5389,-1.5389,-1.5389,-1.5382,-1.5352,-1.5323,-1.5272,-1.5112,-1.5031,-1.4915,-1.4677,-1.445,-1.4282,-1.4099,-1.3887,-1.366,-1.3638,-1.3572,-1.3506,-1.3499,-1.3426,-1.3346,-1.3236,-1.3119,-1.3046,-1.2973,-1.2936,-1.309,-1.3236,-1.3273,-1.3229,-1.3119,-1.3119,-1.3046,-1.2936,-1.2826,-1.2863,-1.2863,-1.2856,-1.279,-1.2753,-1.2716,-1.2599,-1.2489,-1.2378,-1.2342,-1.2298,-1.2298,-1.2305,-1.2305,-1.2305,-1.2378,-1.2452,-1.2526,-1.2636,-1.2746,-1.2725,-1.2705,-1.2496,-1.2342,-1.2238,-1.2079,-1.1949,-1.1895,-1.1888,-1.184,-1.1778,-1.1553,-1.1296,-1.1113,-1.095,-1.0929,-1.0818,-1.0365,-0.9716,-0.878,-0.8004,-0.7423,-0.7228,-0.7134,-0.7135,-0.7131,-2.0294,-2.0479,-2.0527,-2.0401,-2.044,-2.0206,-1.9402,-1.8029,-1.7139,-1.6304,-1.5465,-1.5506,-1.5548,-1.5514,-1.5389,-1.5389,-1.5389,-1.5389,-1.5389,-1.5389,-1.5389,-1.5389,-1.5389,-1.5389,-1.5389,-1.5389,-1.5389,-1.5389,-1.5389,-1.5389,-1.5389,-1.5389,-1.5389,-1.5389,-1.5389,-1.5389,-1.5389,-1.5389,-1.5382,-1.5352,-1.5287,-1.5316,-1.5163,-1.4984,-1.4831,-1.4662,-1.445,-1.4225,-1.4011,-1.3872,-1.3704,-1.3579,-1.347,-1.3317,-1.3236,-1.3127,-1.2973,-1.2863,-1.2826,-1.279,-1.2826,-1.29,-1.29,-1.2863,-1.29,-1.29,-1.2826,-1.2746,-1.2673,-1.2746,-1.2783,-1.2673,-1.2599,-1.2599,-1.2599,-1.2489,-1.2378,-1.2305,-1.2305,-1.2305,-1.2305,-1.2305,-1.2305,-1.2305,-1.2305,-1.2342,-1.2415,-1.2415,-1.2489,-1.2452,-1.2439,-1.2432,-1.2321,-1.2325,-1.2174,-1.2022,-1.206,-1.2055,-1.1836,-1.1728,-1.1544,-1.141,-1.133,-1.1189,-1.1048,-1.0778,-1.027,-0.9538,-0.8651,-0.7939,-0.7232,-0.6905,-0.6778,-0.6679,-0.6658,-1.8189,-1.827,-1.847,-1.855,-1.8461,-1.8029,-1.7876,-1.7868,-1.7058,-1.6221,-1.5389,-1.5389,-1.5389,-1.5389,-1.5389,-1.5389,-1.5389,-1.5389,-1.5389,-1.5389,-1.5389,-1.5389,-1.5389,-1.5389,-1.5389,-1.5389,-1.5389,-1.5389,-1.5389,-1.5389,-1.5389,-1.5389,-1.5389,-1.5389,-1.5389,-1.5389,-1.5389,-1.5389,-1.5389,-1.5389,-1.5389,-1.5389,-1.5287,-1.5206,-1.4983,-1.4831,-1.4685,-1.4455,-1.4243,-1.4011,-1.3923,-1.3784,-1.3499,-1.3309,-1.3119,-1.279,-1.2599,-1.2452,-1.2452,-1.2496,-1.2496,-1.2532,-1.2526,-1.2599,-1.2636,-1.2673,-1.2643,-1.2562,-1.2489,-1.2562,-1.2562,-1.2489,-1.2452,-1.2452,-1.2452,-1.2378,-1.2305,-1.2305,-1.2305,-1.2305,-1.2305,-1.2305,-1.2305,-1.2305,-1.2305,-1.2305,-1.2305,-1.2305,-1.2305,-1.2305,-1.2305,-1.2305,-1.2268,-1.2268,-1.2231,-1.2085,-1.2171,-1.2194,-1.1775,-1.1537,-1.1501,-1.1403,-1.1459,-1.1375,-1.1155,-1.0697,-1.0186,-0.9375,-0.8543,-0.7731,-0.704,-0.6683,-0.642,-0.642,-0.642,-1.722,-1.7334,-1.7496,-1.7617,-1.7536,-1.6903,-1.6944,-1.7269,-1.6542,-1.5865,-1.5431,-1.5389,-1.5389,-1.5389,-1.5389,-1.5389,-1.5389,-1.5389,-1.5389,-1.5389,-1.5389,-1.5389,-1.5389,-1.5389,-1.5389,-1.5389,-1.5389,-1.5389,-1.5389,-1.5389,-1.5389,-1.5389,-1.5389,-1.5389,-1.5389,-1.5389,-1.5389,-1.5389,-1.5389,-1.5389,-1.5389,-1.5347,-1.5298,-1.5262,-1.4977,-1.4892,-1.4787,-1.4561,-1.4317,-1.4101,-1.4057,-1.3746,-1.3407,-1.3138,-1.2826,-1.2526,-1.2415,-1.2342,-1.2342,-1.2342,-1.2305,-1.2305,-1.2305,-1.2378,-1.2409,-1.2482,-1.2415,-1.2372,-1.2342,-1.2305,-1.2305,-1.2305,-1.2305,-1.2305,-1.2305,-1.2305,-1.2305,-1.2305,-1.2305,-1.2305,-1.2305,-1.2305,-1.2305,-1.2305,-1.2305,-1.2305,-1.2305,-1.2305,-1.2305,-1.2305,-1.2305,-1.2305,-1.2231,-1.2194,-1.215,-1.1966,-1.1718,-1.1471,-1.0984,-1.0845,-1.1125,-1.1099,-1.0857,-1.0965,-1.1171,-1.0674,-1.0141,-0.9325,-0.8502,-0.7735,-0.7032,-0.6634,-0.6432,-0.642,-0.642,-1.6846,-1.6976,-1.705,-1.709,-1.7302,-1.6501,-1.6337,-1.6501,-1.5748,-1.5389,-1.5389,-1.5389,-1.5389,-1.5389,-1.5389,-1.5389,-1.5389,-1.5389,-1.5389,-1.5389,-1.5389,-1.5389,-1.5389,-1.5389,-1.5389,-1.5389,-1.5389,-1.5389,-1.5389,-1.5389,-1.5389,-1.5389,-1.5389,-1.5389,-1.5389,-1.5389,-1.5389,-1.5389,-1.5389,-1.5389,-1.5389,-1.5257,-1.5131,-1.5082,-1.4929,-1.4747,-1.4643,-1.4496,-1.4307,-1.4221,-1.4053,-1.3744,-1.3341,-1.2981,-1.2641,-1.2442,-1.2375,-1.2305,-1.2305,-1.2305,-1.2305,-1.2305,-1.2305,-1.2305,-1.2335,-1.2335,-1.2342,-1.2305,-1.2305,-1.2305,-1.2305,-1.2305,-1.2305,-1.2305,-1.2305,-1.2305,-1.2305,-1.2305,-1.2305,-1.2305,-1.2305,-1.2305,-1.2305,-1.2305,-1.2305,-1.2305,-1.2305,-1.2305,-1.2305,-1.2305,-1.2305,-1.2305,-1.2268,-1.2157,-1.1929,-1.1663,-1.1105,-1.072,-1.0346,-1.0222,-1.051,-1.0387,-1.0144,-1.0363,-1.0603,-1.0528,-1.006,-0.9178,-0.8438,-0.7899,-0.7259,-0.666,-0.6419,-0.6457,-0.642,-1.4817,-1.4908,-1.5054,-1.5213,-1.5387,-1.5186,-1.5276,-1.545,-1.5291,-1.5257,-1.5389,-1.5389,-1.5389,-1.5389,-1.5389,-1.5389,-1.5347,-1.5347,-1.5389,-1.5389,-1.5389,-1.5389,-1.5389,-1.5389,-1.5389,-1.5389,-1.5389,-1.5389,-1.5389,-1.5389,-1.5389,-1.5389,-1.5389,-1.5389,-1.5389,-1.5389,-1.5347,-1.5347,-1.5347,-1.5389,-1.5389,-1.534,-1.5298,-1.5124,-1.495,-1.4783,-1.4706,-1.4594,-1.4427,-1.43,-1.4237,-1.3926,-1.3485,-1.3105,-1.2848,-1.2681,-1.2472,-1.2405,-1.2351,-1.2351,-1.2345,-1.2311,-1.2305,-1.2305,-1.2305,-1.2305,-1.2305,-1.2305,-1.2305,-1.2305,-1.2305,-1.2305,-1.2305,-1.2305,-1.2305,-1.2305,-1.2305,-1.2291,-1.2291,-1.2305,-1.2305,-1.2305,-1.2305,-1.2305,-1.2305,-1.2305,-1.2305,-1.2305,-1.2305,-1.2305,-1.2305,-1.2305,-1.2305,-1.2157,-1.1855,-1.1366,-1.0801,-1.0501,-1.0276,-1.0083,-0.9857,-0.9798,-0.9697,-0.9819,-0.9983,-0.9974,-0.9691,-0.8821,-0.8163,-0.7776,-0.7389,-0.675,-0.657,-0.6558,-0.6481,-1.4088,-1.413,-1.4243,-1.4363,-1.4566,-1.4566,-1.4692,-1.4908,-1.5041,-1.5082,-1.5124,-1.5257,-1.5347,-1.5298,-1.5347,-1.5215,-1.5173,-1.5215,-1.5222,-1.5264,-1.5257,-1.5347,-1.5347,-1.5389,-1.5389,-1.5389,-1.5389,-1.5389,-1.5389,-1.5389,-1.5389,-1.5389,-1.534,-1.5257,-1.5264,-1.5173,-1.5166,-1.5257,-1.5257,-1.5305,-1.5347,-1.5215,-1.5082,-1.4915,-1.4748,-1.4622,-1.4538,-1.4412,-1.4358,-1.4179,-1.4042,-1.3879,-1.3507,-1.3224,-1.3089,-1.2958,-1.2812,-1.2639,-1.2545,-1.2529,-1.2452,-1.2405,-1.2325,-1.2331,-1.2305,-1.2305,-1.2305,-1.2305,-1.2305,-1.2305,-1.2305,-1.2305,-1.2305,-1.2305,-1.2305,-1.2305,-1.2231,-1.2158,-1.2225,-1.2305,-1.2305,-1.2305,-1.2305,-1.2305,-1.2305,-1.2305,-1.2305,-1.2305,-1.2305,-1.2305,-1.2305,-1.2305,-1.2305,-1.1972,-1.1484,-1.0993,-1.0426,-1.0239,-1.0094,-0.9258,-0.8727,-0.9112,-0.9319,-0.9306,-0.9387,-0.9537,-0.9144,-0.8493,-0.7961,-0.7568,-0.7229,-0.6845,-0.6745,-0.668,-0.6607,-1.4088,-1.4088,-1.4088,-1.4201,-1.4356,-1.4356,-1.4482,-1.4692,-1.4915,-1.4908,-1.4817,-1.5131,-1.5173,-1.5173,-1.5215,-1.4957,-1.4866,-1.4957,-1.5048,-1.5048,-1.5048,-1.509,-1.5173,-1.5305,-1.5347,-1.5389,-1.5389,-1.5389,-1.5389,-1.5347,-1.5305,-1.5305,-1.5215,-1.5041,-1.4957,-1.4866,-1.4824,-1.4999,-1.5041,-1.5124,-1.5082,-1.4999,-1.4873,-1.4622,-1.437,-1.4173,-1.413,-1.4082,-1.4124,-1.4043,-1.3944,-1.3816,-1.3675,-1.3427,-1.3313,-1.3233,-1.3133,-1.2979,-1.2904,-1.2844,-1.2679,-1.2545,-1.2432,-1.2398,-1.2412,-1.2385,-1.2385,-1.2318,-1.2318,-1.2311,-1.2311,-1.2305,-1.2305,-1.2298,-1.2298,-1.2305,-1.2191,-1.2098,-1.2191,-1.2298,-1.2305,-1.2305,-1.2305,-1.2305,-1.2305,-1.2305,-1.2305,-1.2305,-1.2305,-1.2305,-1.2305,-1.2305,-1.2305,-1.1861,-1.1409,-1.0844,-1.0389,-0.975,-0.9448,-0.8313,-0.7672,-0.8241,-0.8585,-0.8618,-0.8704,-0.8864,-0.8835,-0.8361,-0.7873,-0.7537,-0.7224,-0.6989,-0.6944,-0.6875,-0.6777,-1.4088,-1.4088,-1.4088,-1.413,-1.4166,-1.4166,-1.4286,-1.444,-1.4524,-1.4566,-1.4692,-1.4734,-1.4783,-1.4783,-1.4824,-1.4692,-1.4657,-1.4741,-1.4783,-1.4783,-1.4783,-1.4824,-1.4957,-1.5131,-1.5257,-1.5347,-1.5389,-1.5389,-1.5305,-1.5215,-1.5131,-1.5131,-1.4866,-1.4776,-1.4776,-1.4692,-1.4657,-1.4783,-1.4783,-1.4824,-1.4908,-1.4866,-1.4915,-1.4699,-1.4489,-1.4286,-1.4166,-1.4088,-1.4088,-1.4068,-1.4028,-1.3975,-1.3874,-1.368,-1.3567,-1.3527,-1.3427,-1.3273,-1.3166,-1.3126,-1.2993,-1.2939,-1.2866,-1.2819,-1.2779,-1.271,-1.2623,-1.2378,-1.2358,-1.2331,-1.2325,-1.2311,-1.2305,-1.2291,-1.2285,-1.2291,-1.2238,-1.2204,-1.2225,-1.2285,-1.2305,-1.2305,-1.2305,-1.2305,-1.2305,-1.2305,-1.2305,-1.2305,-1.2305,-1.2305,-1.2305,-1.2268,-1.2231,-1.2305,-1.2046,-1.1105,-1.0464,-0.9712,-0.8917,-0.8127,-0.7633,-0.7557,-0.7787,-0.8012,-0.805,-0.8109,-0.8007,-0.8094,-0.8098,-0.7777,-0.7414,-0.7171,-0.7131,-0.7058,-0.6952]},{"header":{"parameterUnit":"m.s-1","parameterCategory":1,"la1":31.0,"la2":29.5877,"lo1":-88.7671,"lo2":-86.6584,"dy":0.0162,"dx":0.0185,"nx":115,"ny":88,"refTime":"2023-05-28T00:00:00:Z","depth":0,"parameterNumber":3,"parameterNumberName":"V-component_of_WINDS"},"data":[0.0,0.0,0.0,0.0,0.0,0.0,0.0,0.0,0.0,0.0,0.0,0.0,0.0,0.0,0.0,0.0,0.0,0.0,0.0,0.0,0.0,0.0,0.0,0.0,0.0,0.0,0.0,0.0,0.0,0.0,0.0,0.0,0.0,0.0,0.0,0.0,0.0,0.0,0.0,0.0,0.0,0.0,0.0,0.0,0.0,0.0,0.0,0.0,0.0,0.0,0.0,0.0,0.0,0.0,0.0,0.0,0.0,0.0,0.0,0.0,0.0,0.0,0.0,0.0,0.0,0.0,0.0,0.0,0.0,0.0,0.0,0.0,0.0,0.0,0.0,0.0,0.0,0.0,0.0,0.0,0.0,0.0,0.0,0.0,0.0,0.0,0.0,0.0,0.0,0.0,0.0,0.0,0.0,0.0,0.0,0.0,0.0,0.0,0.0,0.0,0.0,0.0,0.0,0.0,0.0,0.0,0.0,0.0,0.0,0.0,0.0,0.0,0.0,0.0,0.0,0.0,0.0,0.0,0.0,0.0,0.0,0.0,0.0,0.0,0.0,0.0,0.0,0.0,0.0,0.0,0.0,0.0,0.0,0.0,0.0,0.0,0.0,0.0,0.0,0.0,0.0,0.0,0.0,0.0,0.0,0.0,0.0,0.0,0.0,0.0,0.0,0.0,0.0,0.0,0.0,0.0,0.0,0.0,0.0,0.0,0.0,0.0,0.0,0.0,0.0,0.0,0.0,0.0,0.0,0.0,0.0,0.0,0.0,0.0,0.0,0.0,0.0,0.0,0.0,0.0,0.0,0.0,0.0,0.0,0.0,0.0,0.0,0.0,0.0,0.0,0.0,0.0,0.0,0.0,0.0,0.0,0.0,0.0,0.0,0.0,0.0,0.0,0.0,0.0,0.0,0.0,0.0,0.0,0.0,0.0,0.0,0.0,0.0,0.0,0.0,0.0,0.0,0.0,0.0,0.0,0.0,0.0,0.0,0.0,0.0,0.0,0.0,0.0,0.0,0.0,0.0,0.0,0.0,0.0,0.0,0.0,0.0,0.0,0.0,0.0,0.0,0.0,0.0,0.0,0.0,0.0,0.0,0.0,0.0,0.0,0.0,0.0,0.0,0.0,0.0,0.0,0.0,0.0,0.0,0.0,0.0,0.0,0.0,0.0,0.0,0.0,0.0,0.0,0.0,0.0,0.0,0.0,0.0,0.0,0.0,0.0,0.0,0.0,0.0,0.0,0.0,0.0,0.0,0.0,0.0,0.0,0.0,0.0,0.0,0.0,0.0,0.0,0.0,0.0,0.0,0.0,0.0,0.0,0.0,0.0,0.0,0.0,0.0,0.0,0.0,0.0,0.0,0.0,0.0,0.0,0.0,0.0,0.0,0.0,0.0,0.0,0.0,0.0,0.0,0.0,0.0,0.0,0.0,0.0,0.0,0.0,0.0,0.0,0.0,0.0,0.0,0.0,0.0,0.0,0.0,0.0,0.0,0.0,0.0,0.0,0.0,0.0,0.0,0.0,0.0,0.0,0.0,0.0,0.0,0.0,0.0,0.0,0.0,0.0,0.0,0.0,0.0,0.0,0.0,0.0,0.0,0.0,0.0,0.0,0.0,0.0,0.0,0.0,0.0,0.0,0.0,0.0,0.0,0.0,0.0,0.0,0.0,0.0,0.0,0.0,0.0,0.0,0.0,0.0,0.0,0.0,0.0,0.0,0.0,0.0,0.0,0.0,0.0,0.0,0.0,0.0,0.0,0.0,0.0,0.0,0.0,0.0,0.0,0.0,0.0,0.0,0.0,0.0,0.0,0.0,0.0,0.0,0.0,0.0,0.0,0.0,0.0,0.0,0.0,0.0,0.0,0.0,0.0,0.0,0.0,0.0,0.0,0.0,0.0,0.0,0.0,0.0,0.0,0.0,0.0,0.0,0.0,0.0,0.0,0.0,0.0,0.0,0.0,0.0,0.0,0.0,0.0,0.0,0.0,0.0,0.0,0.0,0.0,0.0,0.0,0.0,0.0,0.0,0.0,0.0,0.0,0.0,0.0,0.0,0.0,0.0,0.0,0.0,0.0,0.0,0.0,0.0,0.0,0.0,0.0,0.0,0.0,0.0,0.0,0.0,0.0,0.0,0.0,0.0,0.0,0.0,0.0,0.0,0.0,0.0,0.0,0.0,0.0,0.0,0.0,0.0,0.0,0.0,0.0,0.0,0.0,0.0,0.0,0.0,0.0,0.0,0.0,0.0,0.0,0.0,0.0,0.0,0.0,0.0,0.0,0.0,0.0,0.0,0.0,0.0,0.0,0.0,0.0,0.0,0.0,0.0,0.0,0.0,0.0,0.0,0.0,0.0,0.0,0.0,0.0,0.0,0.0,0.0,0.0,0.0,0.0,0.0,0.0,0.0,0.0,0.0,0.0,0.0,0.0,0.0,0.0,0.0,0.0,0.0,0.0,0.0,0.0,0.0,0.0,0.0,0.0,0.0,0.0,0.0,0.0,0.0,0.0,0.0,0.0,0.0,0.0,0.0,0.0,0.0,0.0,0.0,0.0,0.0,0.0,0.0,0.0,0.0,0.0,0.0,0.0,0.0,0.0,0.0,0.0,0.0,0.0,0.0,0.0,0.0,0.0,0.0,0.0,0.0,0.0,0.0,0.0,0.0,0.0,0.0,0.0,0.0,0.0,0.0,0.0,0.0,0.0,0.0,0.0,0.0,0.0,0.0,0.0,0.0,0.0,0.0,0.0,0.0,0.0,0.0,0.0,0.0,0.0,0.0,0.0,0.0,0.0,0.0,0.0,0.0,0.0,0.0,0.0,0.0,0.0,0.0,0.0,0.0,0.0,0.0,0.0,0.0,0.0,0.0,0.0,0.0,0.0,0.0,0.0,0.0,0.0,0.0,0.0,0.0,0.0,0.0,0.0,0.0,0.0,0.0,0.0,0.0,0.0,0.0,0.0,0.0,0.0,0.0,0.0,0.0,0.0,0.0,0.0,0.0,0.0,0.0,0.0,0.0,0.0,0.0,0.0,0.0,0.0,0.0,0.0,0.0,0.0,0.0,0.0,0.0,0.0,0.0,0.0,0.0,0.0,0.0,0.0,0.0,0.0,0.0,0.0,0.0,0.0,0.0,0.0,0.0,0.0,0.0,0.0,0.0,0.0,0.0,0.0,0.0,0.0,0.0,0.0,0.0,0.0,0.0,0.0,0.0,0.0,0.0,0.0,0.0,0.0,0.0,0.0,0.0,0.0,0.0,0.0,0.0,0.0,0.0,0.0,0.0,0.0,0.0,0.0,0.0,0.0,0.0,0.0,0.0,0.0,0.0,0.0,0.0,0.0,0.0,0.0,0.0,0.0,0.0,0.0,0.0,0.0,0.0,0.0,0.0,0.0,0.0,0.0,0.0,0.0,0.0,0.0,0.0,0.0,0.0,0.0,0.0,0.0,0.0,0.0,0.0,0.0,0.0,0.0,0.0,0.0,0.0,0.0,0.0,0.0,0.0,0.0,0.0,0.0,0.0,0.0,0.0,0.0,0.0,0.0,0.0,0.0,0.0,0.0,0.0,0.0,0.0,0.0,0.0,0.0,0.0,0.0,0.0,0.0,0.0,0.0,0.0,0.0,0.0,0.0,0.0,0.0,0.0,0.0,0.0,0.0,0.0,0.0,0.0,0.0,0.0,0.0,0.0,0.0,0.0,0.0,0.0,0.0,0.0,0.0,0.0,0.0,0.0,0.0,0.0,0.0,0.0,0.0,0.0,0.0,0.0,0.0,0.0,0.0,0.0,0.0,0.0,0.0,0.0,0.0,0.0,0.0,0.0,0.0,0.0,0.0,0.0,0.0,0.0,0.0,0.0,0.0,0.0,0.0,0.0,0.0,0.0,0.0,0.0,0.0,0.0,0.0,0.0,0.0,0.0,0.0,0.0,0.0,0.0,0.0,0.0,0.0,0.0,0.0,0.0,0.0,0.0,0.0,0.0,0.0,0.0,0.0,0.0,0.0,0.0,0.0,0.0,0.0,0.0,0.0,0.0,0.0,0.0,0.0,0.0,0.0,0.0,0.0,0.0,0.0,0.0,0.0,0.0,0.0,0.0,0.0,0.0,0.0,0.0,0.0,0.0,0.0,0.0,0.0,0.0,0.0,0.0,0.0,0.0,0.0,0.0,0.0,0.0,0.0,0.0,0.0,0.0,0.0,0.0,0.0,0.0,0.0,0.0,0.0,0.0,0.0,0.0,0.0,0.0,0.0,0.0,0.0,0.0,0.0,0.0,2.0729,0.0,0.0,0.0,0.0,0.0,0.0,0.0,0.0,0.0,0.0,0.0,0.0,0.0,0.0,0.0,0.0,0.0,0.0,0.0,0.0,0.0,0.0,0.0,0.0,0.0,0.0,0.0,0.0,0.0,0.0,0.0,0.0,0.0,0.0,0.0,0.0,0.0,0.0,0.0,0.0,0.0,0.0,0.0,0.0,0.0,0.0,0.0,0.0,0.0,0.0,0.0,0.0,0.0,0.0,0.0,0.0,0.0,0.0,0.0,0.0,0.0,0.0,0.0,0.0,0.0,0.0,0.0,0.0,0.0,0.0,0.0,0.0,0.0,0.0,0.0,0.0,0.0,0.0,0.0,0.0,0.0,0.0,0.0,0.0,0.0,0.0,0.0,0.0,0.0,0.0,0.0,0.0,0.0,0.0,0.0,0.0,0.0,0.0,0.0,0.0,0.0,0.0,0.0,0.0,0.0,0.0,0.0,0.0,0.0,0.0,2.1627,2.1345,2.11,2.0828,2.0527,0.0,0.0,0.0,0.0,0.0,0.0,0.0,0.0,0.0,0.0,0.0,0.0,0.0,0.0,0.0,0.0,0.0,0.0,0.0,0.0,0.0,0.0,0.0,0.0,0.0,0.0,0.0,0.0,0.0,0.0,0.0,0.0,0.0,0.0,0.0,0.0,0.0,0.0,0.0,0.0,0.0,0.0,0.0,0.0,0.0,0.0,0.0,0.0,0.0,0.0,0.0,0.0,0.0,0.0,0.0,0.0,0.0,0.0,0.0,0.0,0.0,0.0,0.0,0.0,0.0,0.0,0.0,0.0,0.0,0.0,0.0,0.0,0.0,0.0,0.0,0.0,0.0,0.0,0.0,0.0,0.0,0.0,0.0,0.0,0.0,0.0,0.0,0.0,0.0,0.0,0.0,0.0,0.0,0.0,0.0,0.0,0.0,0.0,0.0,0.0,0.0,0.0,0.0,0.0,0.0,0.0,0.0,0.0,0.0,0.0,0.0,0.0,2.0833,2.041,2.0342,0.0,0.0,0.0,0.0,0.0,0.0,0.0,0.0,0.0,0.0,0.0,0.0,0.0,0.0,0.0,0.0,0.0,0.0,0.0,0.0,0.0,0.0,0.0,0.0,0.0,0.0,0.0,0.0,0.0,0.0,0.0,0.0,0.0,0.0,0.0,0.0,0.0,0.0,0.0,0.0,0.0,0.0,0.0,0.0,0.0,0.0,0.0,0.0,0.0,0.0,0.0,0.0,0.0,0.0,0.0,0.0,0.0,0.0,0.0,0.0,0.0,0.0,0.0,0.0,0.0,0.0,0.0,0.0,0.0,0.0,0.0,0.0,0.0,0.0,0.0,0.0,0.0,0.0,0.0,0.0,0.0,0.0,0.0,0.0,0.0,0.0,0.0,0.0,0.0,0.0,0.0,0.0,0.0,0.0,0.0,0.0,0.0,0.0,0.0,0.0,0.0,0.0,0.0,0.0,0.0,0.0,0.0,0.0,0.0,0.0,2.1954,2.134,2.0659,0.0,1.9909,0.0,0.0,0.0,0.0,0.0,0.0,0.0,0.0,0.0,0.0,0.0,0.0,0.0,0.0,0.0,0.0,0.0,0.0,0.0,0.0,0.0,0.0,0.0,0.0,0.0,0.0,0.0,0.0,0.0,0.0,0.0,0.0,0.0,0.0,0.0,0.0,0.0,0.0,0.0,0.0,0.0,0.0,0.0,0.0,0.0,0.0,0.0,0.0,0.0,0.0,0.0,0.0,0.0,0.0,0.0,0.0,0.0,0.0,0.0,0.0,0.0,0.0,0.0,0.0,0.0,0.0,0.0,0.0,0.0,0.0,0.0,0.0,0.0,0.0,0.0,0.0,0.0,0.0,0.0,0.0,0.0,0.0,0.0,0.0,0.0,0.0,0.0,0.0,0.0,0.0,0.0,0.0,0.0,0.0,0.0,0.0,0.0,0.0,0.0,0.0,0.0,0.0,0.0,0.0,0.0,0.0,0.0,0.0,0.0,0.0,2.2447,2.1732,2.0694,2.0061,0.0,0.0,0.0,0.0,0.0,0.0,0.0,0.0,0.0,0.0,0.0,0.0,0.0,0.0,0.0,0.0,0.0,0.0,0.0,0.0,0.0,0.0,0.0,0.0,0.0,0.0,0.0,0.0,0.0,0.0,0.0,0.0,0.0,0.0,0.0,0.0,0.0,0.0,0.0,0.0,0.0,0.0,0.0,0.0,0.0,0.0,0.0,0.0,0.0,0.0,0.0,0.0,0.0,0.0,0.0,0.0,0.0,0.0,0.0,0.0,0.0,0.0,0.0,0.0,0.0,0.0,0.0,0.0,0.0,0.0,0.0,0.0,0.0,0.0,0.0,0.0,0.0,0.0,0.0,0.0,0.0,0.0,0.0,0.0,0.0,0.0,0.0,0.0,0.0,0.0,0.0,0.0,0.0,0.0,0.0,0.0,0.0,0.0,0.0,0.0,0.0,0.0,0.0,0.0,0.0,0.0,0.0,0.0,0.0,0.0,2.3391,2.265,2.1721,2.0506,1.983,1.983,0.0,0.0,0.0,0.0,0.0,0.0,0.0,0.0,0.0,0.0,0.0,0.0,0.0,0.0,0.0,0.0,0.0,0.0,0.0,0.0,0.0,0.0,0.0,0.0,0.0,0.0,0.0,0.0,0.0,0.0,0.0,0.0,0.0,0.0,0.0,0.0,0.0,0.0,0.0,0.0,0.0,0.0,0.0,0.0,0.0,0.0,0.0,0.0,0.0,0.0,0.0,0.0,0.0,0.0,0.0,0.0,0.0,0.0,0.0,0.0,0.0,0.0,0.0,0.0,0.0,0.0,0.0,0.0,0.0,0.0,0.0,0.0,0.0,0.0,0.0,0.0,0.0,0.0,0.0,0.0,0.0,0.0,0.0,0.0,0.0,0.0,0.0,0.0,0.0,0.0,0.0,0.0,0.0,0.0,0.0,0.0,0.0,0.0,0.0,0.0,0.0,0.0,0.0,0.0,0.0,0.0,0.0,0.0,2.3457,2.3134,2.2393,2.1113,1.9994,1.9435,0.0,0.0,0.0,0.0,0.0,0.0,0.0,0.0,0.0,0.0,0.0,0.0,0.0,0.0,0.0,0.0,0.0,0.0,0.0,0.0,0.0,0.0,0.0,0.0,0.0,0.0,0.0,0.0,0.0,0.0,0.0,0.0,0.0,0.0,0.0,0.0,0.0,0.0,0.0,0.0,0.0,0.0,0.0,0.0,0.0,0.0,0.0,0.0,0.0,0.0,0.0,0.0,0.0,0.0,0.0,0.0,0.0,0.0,0.0,0.0,0.0,0.0,0.0,0.0,0.0,0.0,0.0,0.0,0.0,0.0,0.0,0.0,0.0,0.0,0.0,0.0,0.0,0.0,0.0,0.0,0.0,0.0,0.0,0.0,0.0,0.0,0.0,0.0,0.0,0.0,0.0,0.0,0.0,0.0,0.0,0.0,0.0,0.0,0.0,0.0,0.0,0.0,0.0,0.0,0.0,0.0,0.0,0.0,0.0,2.3231,2.2939,2.237,2.1482,2.0658,2.0028,0.0,0.0,0.0,0.0,0.0,0.0,0.0,0.0,0.0,0.0,0.0,0.0,0.0,0.0,0.0,0.0,0.0,0.0,0.0,0.0,0.0,0.0,0.0,0.0,0.0,0.0,0.0,0.0,0.0,0.0,0.0,0.0,0.0,0.0,0.0,0.0,0.0,0.0,0.0,0.0,0.0,0.0,0.0,0.0,0.0,0.0,0.0,0.0,0.0,0.0,0.0,0.0,0.0,0.0,0.0,0.0,0.0,0.0,0.0,0.0,0.0,0.0,0.0,0.0,0.0,0.0,0.0,0.0,0.0,0.0,0.0,0.0,0.0,0.0,0.0,0.0,0.0,0.0,0.0,0.0,0.0,0.0,0.0,0.0,0.0,0.0,0.0,0.0,0.0,0.0,0.0,0.0,0.0,0.0,0.0,0.0,0.0,0.0,0.0,0.0,0.0,0.0,0.0,0.0,0.0,0.0,0.0,0.0,0.0,2.3253,0.0,2.2319,2.2024,2.0887,2.0203,0.0,0.0,0.0,0.0,0.0,0.0,0.0,0.0,0.0,0.0,0.0,0.0,0.0,0.0,0.0,0.0,0.0,0.0,0.0,0.0,0.0,0.0,0.0,0.0,0.0,0.0,0.0,0.0,0.0,0.0,0.0,0.0,0.0,0.0,0.0,0.0,0.0,0.0,0.0,0.0,0.0,0.0,0.0,0.0,0.0,0.0,0.0,0.0,0.0,0.0,0.0,0.0,0.0,0.0,0.0,0.0,0.0,0.0,0.0,0.0,0.0,0.0,0.0,0.0,0.0,0.0,0.0,0.0,0.0,0.0,0.0,0.0,0.0,0.0,0.0,0.0,0.0,0.0,0.0,0.0,0.0,0.0,0.0,0.0,0.0,0.0,0.0,0.0,0.0,0.0,0.0,0.0,0.0,0.0,0.0,0.0,0.0,0.0,0.0,0.0,0.0,0.0,0.0,0.0,0.0,0.0,0.0,0.0,2.3839,2.3558,2.2598,2.2289,2.2601,2.066,1.9875,0.0,0.0,0.0,0.0,0.0,0.0,0.0,0.0,0.0,0.0,0.0,0.0,0.0,0.0,0.0,0.0,0.0,0.0,0.0,0.0,0.0,0.0,0.0,0.0,0.0,0.0,0.0,0.0,0.0,0.0,0.0,0.0,0.0,0.0,0.0,0.0,0.0,0.0,0.0,0.0,0.0,0.0,0.0,0.0,0.0,0.0,0.0,0.0,0.0,0.0,0.0,0.0,0.0,0.0,0.0,0.0,0.0,0.0,0.0,0.0,0.0,0.0,0.0,0.0,0.0,0.0,0.0,0.0,0.0,0.0,0.0,0.0,0.0,0.0,0.0,0.0,0.0,0.0,0.0,0.0,0.0,0.0,0.0,0.0,0.0,0.0,0.0,0.0,0.0,0.0,0.0,0.0,0.0,0.0,0.0,0.0,0.0,0.0,0.0,0.0,0.0,0.0,0.0,0.0,0.0,0.0,0.0,0.0,0.0,2.3135,2.3119,2.2959,2.2682,2.194,2.1245,0.0,0.0,0.0,0.0,0.0,0.0,0.0,0.0,0.0,0.0,0.0,0.0,0.0,0.0,0.0,0.0,0.0,0.0,0.0,0.0,0.0,0.0,0.0,0.0,0.0,0.0,0.0,0.0,0.0,0.0,0.0,0.0,0.0,0.0,0.0,0.0,0.0,0.0,0.0,0.0,0.0,0.0,0.0,0.0,0.0,0.0,0.0,0.0,0.0,0.0,0.0,0.0,0.0,0.0,0.0,0.0,0.0,0.0,0.0,0.0,0.0,0.0,0.0,0.0,0.0,0.0,0.0,0.0,0.0,0.0,0.0,0.0,0.0,0.0,0.0,0.0,0.0,0.0,0.0,0.0,0.0,0.0,0.0,0.0,0.0,0.0,0.0,0.0,0.0,0.0,0.0,0.0,0.0,0.0,0.0,0.0,0.0,0.0,0.0,0.0,0.0,0.0,0.0,0.0,0.0,0.0,0.0,0.0,0.0,2.3179,2.3436,2.3387,2.3014,2.2471,2.1892,2.1208,0.0,0.0,0.0,0.0,0.0,0.0,0.0,0.0,0.0,0.0,0.0,0.0,0.0,0.0,0.0,0.0,0.0,0.0,0.0,0.0,0.0,0.0,0.0,0.0,0.0,0.0,0.0,0.0,0.0,0.0,0.0,0.0,0.0,0.0,0.0,0.0,0.0,0.0,0.0,0.0,0.0,0.0,0.0,0.0,0.0,0.0,0.0,0.0,0.0,0.0,0.0,0.0,0.0,0.0,0.0,0.0,0.0,0.0,0.0,0.0,0.0,0.0,0.0,0.0,0.0,0.0,0.0,0.0,0.0,0.0,0.0,0.0,0.0,0.0,0.0,0.0,0.0,0.0,0.0,0.0,0.0,0.0,0.0,0.0,0.0,0.0,0.0,0.0,0.0,0.0,0.0,0.0,0.0,0.0,0.0,0.0,0.0,0.0,0.0,0.0,0.0,0.0,0.0,0.0,0.0,0.0,0.0,0.0,2.3595,2.3516,2.3487,2.3458,2.2382,2.1954,0.0,0.0,0.0,0.0,0.0,0.0,0.0,0.0,0.0,0.0,0.0,0.0,0.0,0.0,0.0,0.0,0.0,0.0,0.0,0.0,0.0,0.0,0.0,0.0,0.0,0.0,0.0,0.0,0.0,0.0,0.0,0.0,0.0,0.0,0.0,0.0,0.0,0.0,0.0,0.0,0.0,0.0,0.0,0.0,0.0,0.0,0.0,0.0,0.0,0.0,0.0,0.0,0.0,0.0,0.0,0.0,0.0,0.0,0.0,0.0,0.0,0.0,0.0,0.0,0.0,0.0,0.0,0.0,0.0,0.0,0.0,0.0,0.0,0.0,0.0,0.0,0.0,0.0,0.0,0.0,0.0,0.0,0.0,0.0,0.0,0.0,0.0,0.0,0.0,0.0,0.0,0.0,0.0,0.0,0.0,0.0,0.0,0.0,0.0,0.0,0.0,0.0,0.0,0.0,0.0,0.0,0.0,0.0,0.0,2.3516,2.3407,2.34,2.3473,2.2996,2.2557,0.0,0.0,0.0,0.0,0.0,0.0,0.0,0.0,0.0,0.0,0.0,0.0,0.0,0.0,0.0,0.0,0.0,0.0,0.0,0.0,0.0,0.0,0.0,0.0,0.0,0.0,0.0,0.0,0.0,0.0,0.0,0.0,0.0,0.0,0.0,0.0,0.0,0.0,0.0,0.0,0.0,0.0,0.0,0.0,0.0,0.0,0.0,0.0,0.0,0.0,0.0,0.0,0.0,0.0,0.0,0.0,0.0,0.0,0.0,0.0,0.0,0.0,0.0,0.0,0.0,0.0,0.0,0.0,0.0,0.0,0.0,0.0,0.0,0.0,0.0,0.0,0.0,0.0,0.0,0.0,0.0,0.0,0.0,0.0,0.0,0.0,0.0,0.0,0.0,0.0,0.0,0.0,0.0,0.0,0.0,0.0,0.0,0.0,0.0,0.0,0.0,0.0,0.0,0.0,0.0,0.0,0.0,0.0,2.3566,2.3509,2.3363,2.3312,2.3349,2.3127,2.2855,0.0,0.0,0.0,0.0,0.0,0.0,0.0,0.0,0.0,0.0,0.0,0.0,0.0,0.0,0.0,0.0,0.0,0.0,0.0,0.0,0.0,0.0,0.0,0.0,0.0,0.0,0.0,0.0,0.0,0.0,0.0,0.0,0.0,0.0,0.0,0.0,0.0,0.0,0.0,0.0,0.0,0.0,0.0,0.0,0.0,0.0,0.0,0.0,0.0,0.0,0.0,0.0,0.0,0.0,0.0,0.0,0.0,0.0,0.0,0.0,0.0,0.0,0.0,0.0,0.0,0.0,0.0,0.0,0.0,0.0,0.0,0.0,0.0,0.0,0.0,0.0,0.0,0.0,0.0,0.0,0.0,0.0,0.0,0.0,0.0,0.0,0.0,0.0,0.0,0.0,0.0,0.0,0.0,0.0,0.0,0.0,0.0,0.0,0.0,0.0,0.0,0.0,0.0,0.0,0.0,0.0,0.0,0.0,2.3566,2.3487,2.3363,2.3223,2.3097,2.297,2.2888,0.0,0.0,0.0,0.0,0.0,0.0,0.0,0.0,0.0,0.0,0.0,0.0,0.0,0.0,0.0,0.0,0.0,0.0,0.0,0.0,0.0,0.0,0.0,0.0,0.0,0.0,0.0,0.0,0.0,0.0,0.0,0.0,0.0,0.0,0.0,0.0,0.0,0.0,0.0,0.0,0.0,0.0,0.0,0.0,0.0,0.0,0.0,0.0,0.0,0.0,0.0,0.0,0.0,0.0,0.0,0.0,0.0,0.0,0.0,0.0,0.0,0.0,0.0,0.0,0.0,0.0,0.0,0.0,0.0,0.0,0.0,0.0,0.0,0.0,0.0,0.0,0.0,0.0,0.0,0.0,0.0,0.0,0.0,0.0,0.0,0.0,0.0,0.0,0.0,0.0,0.0,0.0,0.0,0.0,0.0,0.0,0.0,0.0,0.0,0.0,0.0,0.0,0.0,0.0,0.0,0.0,0.0,0.0,2.3523,2.3356,2.3319,2.3187,2.297,2.2925,2.2888,0.0,0.0,0.0,0.0,0.0,0.0,0.0,0.0,0.0,0.0,0.0,0.0,0.0,0.0,0.0,0.0,0.0,0.0,0.0,0.0,0.0,0.0,0.0,0.0,0.0,0.0,0.0,0.0,0.0,0.0,0.0,0.0,0.0,0.0,0.0,0.0,0.0,0.0,0.0,0.0,0.0,0.0,0.0,0.0,0.0,0.0,0.0,0.0,2.3595,0.0,0.0,0.0,0.0,0.0,0.0,0.0,0.0,0.0,0.0,0.0,0.0,0.0,0.0,0.0,0.0,0.0,0.0,0.0,0.0,0.0,0.0,0.0,0.0,0.0,0.0,0.0,0.0,0.0,0.0,0.0,0.0,0.0,0.0,0.0,0.0,0.0,0.0,0.0,0.0,0.0,0.0,0.0,0.0,0.0,0.0,0.0,0.0,0.0,0.0,0.0,0.0,0.0,0.0,0.0,0.0,0.0,0.0,0.0,2.3458,2.3297,2.3246,2.3112,2.291,2.2888,2.2888,0.0,0.0,0.0,0.0,0.0,0.0,0.0,0.0,0.0,0.0,0.0,0.0,0.0,0.0,0.0,0.0,0.0,0.0,0.0,0.0,0.0,0.0,0.0,0.0,0.0,0.0,0.0,0.0,0.0,0.0,0.0,0.0,0.0,0.0,0.0,0.0,0.0,0.0,0.0,0.0,0.0,0.0,0.0,0.0,0.0,0.0,0.0,0.0,0.0,0.0,0.0,0.0,0.0,0.0,0.0,0.0,0.0,0.0,0.0,0.0,0.0,0.0,0.0,0.0,0.0,0.0,0.0,0.0,0.0,0.0,0.0,0.0,0.0,0.0,0.0,0.0,0.0,0.0,0.0,0.0,0.0,0.0,0.0,0.0,0.0,0.0,0.0,0.0,0.0,0.0,0.0,0.0,0.0,0.0,0.0,0.0,0.0,0.0,0.0,0.0,0.0,0.0,0.0,0.0,0.0,0.0,0.0,2.3538,2.3429,2.3297,2.3171,2.3037,2.2888,2.2888,2.2888,2.2888,0.0,0.0,0.0,0.0,0.0,0.0,0.0,0.0,0.0,0.0,0.0,0.0,0.0,0.0,0.0,0.0,0.0,0.0,0.0,0.0,0.0,0.0,0.0,0.0,0.0,0.0,0.0,0.0,0.0,0.0,0.0,0.0,0.0,0.0,0.0,0.0,0.0,0.0,2.4229,2.3961,0.0,0.0,0.0,0.0,0.0,0.0,0.0,0.0,2.3595,0.0,0.0,0.0,0.0,0.0,0.0,0.0,0.0,0.0,0.0,0.0,0.0,0.0,0.0,0.0,0.0,0.0,0.0,0.0,0.0,0.0,0.0,0.0,0.0,0.0,0.0,0.0,0.0,0.0,0.0,0.0,0.0,0.0,0.0,0.0,0.0,0.0,0.0,0.0,0.0,0.0,0.0,0.0,0.0,0.0,0.0,0.0,0.0,0.0,0.0,0.0,0.0,0.0,0.0,0.0,0.0,2.3595,2.3538,2.3444,2.3297,2.3157,2.3037,2.2888,2.2888,2.2888,2.2888,0.0,0.0,0.0,0.0,0.0,0.0,0.0,0.0,0.0,0.0,0.0,0.0,0.0,0.0,0.0,0.0,0.0,0.0,0.0,0.0,0.0,0.0,0.0,0.0,0.0,0.0,0.0,0.0,0.0,0.0,0.0,0.0,0.0,0.0,0.0,0.0,0.0,0.0,0.0,2.3903,2.376,0.0,0.0,0.0,0.0,0.0,0.0,0.0,0.0,2.3595,0.0,0.0,0.0,0.0,0.0,0.0,0.0,0.0,0.0,0.0,0.0,0.0,0.0,0.0,0.0,0.0,0.0,0.0,0.0,0.0,0.0,0.0,0.0,0.0,0.0,0.0,0.0,0.0,0.0,0.0,0.0,0.0,0.0,0.0,0.0,0.0,0.0,0.0,0.0,0.0,0.0,0.0,0.0,0.0,0.0,0.0,0.0,0.0,0.0,0.0,0.0,0.0,0.0,0.0,0.0,2.3573,2.3473,2.3363,2.3297,2.3112,2.297,2.2888,2.2888,2.2888,0.0,0.0,0.0,0.0,0.0,0.0,0.0,0.0,0.0,0.0,0.0,0.0,0.0,0.0,0.0,0.0,0.0,0.0,0.0,0.0,0.0,0.0,0.0,0.0,0.0,0.0,0.0,0.0,0.0,0.0,0.0,0.0,0.0,0.0,0.0,0.0,0.0,0.0,0.0,0.0,2.3839,2.3674,2.3595,0.0,0.0,0.0,0.0,0.0,0.0,2.3595,2.3595,0.0,0.0,0.0,0.0,0.0,0.0,0.0,0.0,0.0,0.0,0.0,0.0,0.0,0.0,0.0,0.0,0.0,0.0,0.0,0.0,0.0,0.0,0.0,0.0,0.0,0.0,0.0,0.0,0.0,0.0,0.0,0.0,0.0,0.0,0.0,0.0,0.0,0.0,0.0,0.0,0.0,0.0,0.0,0.0,0.0,0.0,0.0,0.0,0.0,0.0,0.0,0.0,0.0,0.0,0.0,2.3595,2.3414,2.3319,2.3297,2.3053,2.2925,2.2888,2.2888,2.2888,0.0,0.0,0.0,0.0,0.0,0.0,0.0,0.0,0.0,0.0,0.0,0.0,0.0,0.0,0.0,0.0,0.0,0.0,0.0,0.0,0.0,0.0,0.0,0.0,0.0,0.0,0.0,0.0,0.0,0.0,0.0,0.0,0.0,0.0,0.0,0.0,0.0,0.0,0.0,0.0,0.0,2.3616,2.3595,2.3595,0.0,0.0,0.0,0.0,2.3595,2.3595,0.0,0.0,0.0,0.0,0.0,0.0,0.0,0.0,0.0,0.0,0.0,0.0,0.0,0.0,0.0,0.0,0.0,0.0,0.0,0.0,0.0,0.0,0.0,0.0,0.0,0.0,0.0,0.0,0.0,0.0,0.0,0.0,0.0,0.0,0.0,0.0,0.0,0.0,0.0,0.0,0.0,0.0,0.0,0.0,0.0,0.0,0.0,0.0,0.0,0.0,0.0,0.0,0.0,0.0,0.0,0.0,2.3595,2.3531,2.3407,2.3282,2.3171,2.3,2.2888,2.2888,2.2888,0.0,0.0,0.0,0.0,0.0,0.0,0.0,0.0,0.0,0.0,0.0,0.0,0.0,0.0,0.0,0.0,0.0,0.0,0.0,0.0,0.0,0.0,0.0,0.0,0.0,0.0,0.0,0.0,0.0,0.0,0.0,0.0,0.0,0.0,0.0,0.0,0.0,0.0,0.0,0.0,0.0,2.3739,2.3616,2.3595,2.3595,0.0,0.0,2.3595,2.3595,2.3595,0.0,0.0,0.0,0.0,0.0,0.0,0.0,0.0,0.0,0.0,0.0,0.0,0.0,0.0,0.0,0.0,0.0,0.0,0.0,0.0,0.0,0.0,0.0,0.0,0.0,0.0,0.0,0.0,0.0,0.0,0.0,0.0,0.0,0.0,0.0,0.0,0.0,0.0,0.0,0.0,0.0,0.0,0.0,0.0,0.0,0.0,0.0,0.0,0.0,0.0,0.0,0.0,0.0,0.0,0.0,2.3595,2.3595,2.3538,2.3473,2.3407,2.3275,2.3187,2.3135,2.3045,2.3015,0.0,0.0,0.0,0.0,0.0,0.0,0.0,0.0,0.0,0.0,0.0,0.0,0.0,0.0,0.0,0.0,0.0,0.0,0.0,0.0,0.0,0.0,0.0,0.0,0.0,0.0,0.0,0.0,0.0,0.0,0.0,0.0,0.0,0.0,0.0,0.0,0.0,0.0,0.0,0.0,0.0,0.0,2.3616,2.3595,0.0,0.0,0.0,2.3595,2.3595,0.0,0.0,0.0,0.0,0.0,0.0,0.0,0.0,0.0,0.0,0.0,0.0,0.0,0.0,0.0,0.0,0.0,0.0,0.0,0.0,0.0,0.0,0.0,0.0,0.0,0.0,0.0,0.0,0.0,0.0,0.0,0.0,0.0,0.0,0.0,0.0,0.0,0.0,0.0,0.0,0.0,0.0,0.0,0.0,0.0,0.0,0.0,0.0,0.0,0.0,0.0,0.0,0.0,0.0,0.0,0.0,0.0,2.3595,2.356,2.3531,2.3509,2.34,2.3356,2.3312,2.3201,0.0,0.0,0.0,0.0,0.0,0.0,0.0,0.0,0.0,0.0,0.0,0.0,0.0,0.0,0.0,0.0,0.0,0.0,0.0,0.0,0.0,0.0,0.0,0.0,0.0,0.0,0.0,2.4426,0.0,0.0,0.0,0.0,0.0,0.0,0.0,0.0,0.0,0.0,0.0,0.0,0.0,0.0,2.3674,2.3674,2.3653,2.3616,0.0,0.0,2.3595,2.3595,2.3595,2.3595,0.0,0.0,0.0,0.0,0.0,0.0,0.0,0.0,0.0,0.0,0.0,0.0,0.0,0.0,0.0,0.0,0.0,0.0,0.0,0.0,0.0,0.0,0.0,0.0,0.0,0.0,0.0,0.0,0.0,0.0,0.0,0.0,0.0,0.0,0.0,0.0,0.0,0.0,0.0,0.0,0.0,0.0,0.0,0.0,0.0,0.0,0.0,0.0,0.0,0.0,0.0,0.0,0.0,0.0,2.3595,2.3595,2.3595,2.3545,2.3494,2.3487,2.3444,2.3297,2.3282,2.3223,0.0,0.0,0.0,0.0,0.0,0.0,0.0,0.0,0.0,0.0,0.0,0.0,0.0,0.0,0.0,0.0,0.0,0.0,0.0,0.0,0.0,0.0,0.0,0.0,0.0,0.0,0.0,0.0,0.0,0.0,0.0,0.0,0.0,0.0,0.0,0.0,0.0,0.0,0.0,0.0,0.0,2.3925,2.3797,2.3782,2.3754,0.0,2.3595,2.3595,2.3595,2.3595,2.3595,2.3595,0.0,0.0,0.0,0.0,0.0,0.0,0.0,0.0,0.0,0.0,0.0,0.0,0.0,0.0,0.0,0.0,0.0,0.0,0.0,0.0,0.0,0.0,0.0,0.0,0.0,0.0,0.0,0.0,0.0,0.0,0.0,0.0,0.0,0.0,0.0,0.0,0.0,0.0,0.0,0.0,0.0,0.0,0.0,0.0,0.0,0.0,0.0,0.0,0.0,0.0,0.0,0.0,0.0,2.3595,2.3595,2.3595,2.3588,2.3566,2.3545,2.3545,2.3501,2.3436,2.34,0.0,0.0,0.0,0.0,0.0,0.0,0.0,0.0,0.0,0.0,0.0,0.0,0.0,0.0,0.0,0.0,0.0,0.0,0.0,0.0,0.0,0.0,0.0,0.0,0.0,0.0,0.0,0.0,2.4803,2.4902,2.4902,0.0,0.0,0.0,0.0,0.0,0.0,0.0,0.0,0.0,0.0,2.423,2.3846,2.3818,0.0,0.0,2.3595,2.3595,2.3595,2.3595,2.3595,2.3595,2.3595,0.0,0.0,0.0,0.0,0.0,0.0,0.0,0.0,0.0,0.0,0.0,0.0,0.0,0.0,0.0,0.0,0.0,0.0,0.0,0.0,0.0,0.0,0.0,0.0,0.0,0.0,0.0,0.0,0.0,0.0,0.0,0.0,0.0,0.0,0.0,0.0,0.0,0.0,0.0,0.0,0.0,0.0,0.0,0.0,0.0,0.0,0.0,0.0,0.0,0.0,0.0,0.0,2.3653,2.3595,2.3595,2.3595,2.3595,2.3595,2.3595,2.3595,2.3545,2.3531,0.0,0.0,0.0,0.0,0.0,0.0,0.0,0.0,0.0,0.0,0.0,0.0,0.0,0.0,0.0,0.0,0.0,0.0,0.0,0.0,0.0,0.0,0.0,0.0,0.0,0.0,0.0,0.0,2.4719,2.4719,2.4719,0.0,0.0,0.0,0.0,0.0,0.0,0.0,0.0,0.0,0.0,2.4708,2.4338,2.4162,2.4,2.3858,2.3702,2.3595,2.3595,2.3595,2.3595,2.3595,0.0,0.0,0.0,0.0,0.0,0.0,0.0,0.0,0.0,0.0,0.0,0.0,0.0,0.0,0.0,0.0,0.0,0.0,0.0,0.0,0.0,0.0,0.0,0.0,0.0,0.0,0.0,2.5975,0.0,0.0,2.754,0.0,0.0,0.0,0.0,0.0,0.0,0.0,0.0,0.0,0.0,0.0,0.0,0.0,0.0,0.0,0.0,0.0,0.0,0.0,0.0,0.0,0.0,2.3739,2.3595,2.3595,2.3616,2.3595,2.3595,2.3595,2.3595,2.3595,2.3566,2.3509,0.0,0.0,0.0,0.0,0.0,0.0,0.0,0.0,0.0,0.0,0.0,0.0,0.0,0.0,0.0,0.0,0.0,0.0,0.0,0.0,0.0,0.0,0.0,0.0,0.0,0.0,2.4323,2.4302,2.4323,0.0,0.0,0.0,0.0,0.0,0.0,0.0,0.0,0.0,0.0,2.5484,2.5462,2.5349,2.4922,2.4527,2.441,2.3948,2.3616,2.3638,2.3616,2.3595,0.0,0.0,0.0,0.0,0.0,0.0,0.0,0.0,0.0,0.0,0.0,0.0,0.0,0.0,0.0,0.0,0.0,0.0,0.0,0.0,0.0,0.0,0.0,0.0,0.0,0.0,0.0,2.7097,2.7174,0.0,0.0,0.0,0.0,0.0,0.0,0.0,0.0,0.0,0.0,0.0,2.8747,2.8723,0.0,0.0,0.0,0.0,0.0,0.0,0.0,0.0,0.0,0.0,0.0,0.0,2.3919,2.3861,2.3861,2.3839,2.3739,2.3739,2.3696,2.3595,2.3595,2.3588,2.3566,0.0,0.0,0.0,0.0,0.0,0.0,0.0,0.0,0.0,0.0,0.0,0.0,0.0,0.0,0.0,0.0,0.0,0.0,0.0,0.0,0.0,0.0,0.0,0.0,0.0,2.4281,0.0,0.0,0.0,0.0,0.0,0.0,0.0,0.0,0.0,0.0,0.0,2.5652,2.5521,2.5726,2.5781,2.5443,2.5253,2.5063,0.0,0.0,0.0,0.0,0.0,0.0,0.0,0.0,0.0,0.0,0.0,0.0,0.0,0.0,2.4532,2.4141,2.3903,2.3818,2.4015,0.0,0.0,0.0,0.0,0.0,0.0,0.0,0.0,0.0,0.0,0.0,0.0,0.0,0.0,2.778,0.0,2.8501,0.0,0.0,0.0,0.0,0.0,0.0,0.0,0.0,2.8873,2.8873,2.885,2.885,2.8826,0.0,2.8435,2.7798,0.0,0.0,0.0,0.0,0.0,0.0,0.0,0.0,2.4046,2.4003,2.3982,2.3961,2.3861,2.3861,2.3839,2.3739,2.3739,2.3739,2.3739,2.3739,2.3739,0.0,0.0,0.0,0.0,0.0,0.0,0.0,0.0,0.0,0.0,0.0,0.0,0.0,0.0,0.0,0.0,0.0,0.0,0.0,0.0,0.0,0.0,0.0,2.4503,0.0,0.0,0.0,0.0,0.0,0.0,0.0,0.0,0.0,2.537,2.5815,2.6104,2.5944,2.6157,2.6192,2.5888,0.0,0.0,0.0,0.0,0.0,0.0,0.0,2.4712,2.4788,2.4732,2.4712,2.4808,2.5044,2.5125,2.4867,0.0,0.0,2.4497,2.4333,2.4359,2.4578,2.4603,2.4583,2.4538,2.4744,2.4926,0.0,0.0,0.0,0.0,0.0,0.0,0.0,0.0,2.77,2.7947,0.0,2.8573,0.0,0.0,0.0,0.0,0.0,2.8889,0.0,0.0,2.9029,2.9013,2.8904,2.892,2.8865,2.8771,2.8093,2.7765,2.7695,2.6786,0.0,0.0,0.0,0.0,0.0,0.0,2.4166,2.4046,2.4046,2.4024,2.4003,2.4003,2.4003,2.3982,2.3982,2.3982,2.3982,2.3982,2.3982,2.3982,2.3982,0.0,0.0,0.0,0.0,0.0,0.0,0.0,0.0,0.0,0.0,0.0,0.0,0.0,0.0,0.0,0.0,0.0,0.0,0.0,0.0,2.4498,0.0,0.0,0.0,0.0,0.0,0.0,0.0,0.0,0.0,0.0,2.6139,2.6261,2.6418,2.6657,0.0,0.0,0.0,0.0,2.6031,2.6015,2.5596,2.5259,2.5259,2.5224,2.524,2.5224,0.0,0.0,2.5259,2.5259,2.5278,2.524,2.5278,2.5125,2.4748,2.493,2.5182,2.5186,2.5141,2.5028,2.5028,2.5086,2.5121,2.7265,0.0,0.0,0.0,0.0,2.7449,2.77,2.7864,2.8391,2.8606,2.8646,2.8889,0.0,0.0,0.0,0.0,0.0,0.0,2.8959,2.9052,2.9075,2.9075,2.9052,2.9013,2.9029,2.8982,2.8693,2.8552,2.8521,2.7688,2.6907,2.6143,0.0,0.0,0.0,0.0,2.4679,2.4659,2.4639,2.4472,2.4145,2.4145,2.4118,2.4003,2.3982,2.3982,2.3982,2.3982,2.3982,2.3982,2.3982,0.0,0.0,0.0,0.0,0.0,0.0,0.0,0.0,0.0,0.0,0.0,0.0,0.0,0.0,0.0,0.0,0.0,0.0,0.0,2.4564,2.4564,2.4791,0.0,0.0,0.0,0.0,0.0,0.0,0.0,0.0,0.0,2.6758,2.6775,2.6809,0.0,0.0,2.6809,2.6708,2.6573,2.6504,2.6505,2.6367,0.0,2.628,2.5997,2.5797,2.5819,2.5854,2.5944,2.6228,2.628,2.6176,2.5908,2.607,2.6141,2.5762,2.5484,2.5427,2.5594,2.5668,2.5684,2.5612,2.5832,2.6064,2.7845,2.7287,2.7378,2.7565,2.7834,2.8143,2.8352,2.8511,2.8834,2.8967,2.899,2.9075,2.9052,2.8967,2.9091,0.0,0.0,0.0,2.9013,2.9114,2.9114,2.9114,2.9114,2.9114,2.9114,2.9075,2.9013,2.899,2.8967,2.8427,2.7951,2.7415,0.0,0.0,2.5717,2.529,2.4925,2.4675,2.4659,2.4513,2.425,2.4234,2.4208,2.413,2.413,2.4114,2.4109,2.413,2.413,2.413,2.413,2.4114,0.0,0.0,0.0,0.0,0.0,0.0,0.0,0.0,0.0,0.0,0.0,2.4477,2.438,0.0,0.0,0.0,2.46,2.4851,2.537,2.5134,0.0,0.0,0.0,0.0,0.0,0.0,0.0,2.6674,2.6956,2.7169,2.7122,2.7122,2.709,2.6959,2.6926,2.6859,2.6792,0.0,2.6708,2.6708,2.6708,2.6708,2.6708,2.647,2.6297,2.6315,2.6333,2.6402,2.6641,2.6708,2.6624,2.6419,2.6539,2.6624,2.6385,2.6104,2.5961,2.6138,2.619,2.6224,2.6136,2.6347,2.6537,2.8207,2.8559,2.8755,2.8858,2.892,2.8904,2.899,2.9114,2.9114,2.9114,2.9114,2.9114,2.9114,2.9114,2.9114,0.0,2.9114,2.9114,2.9114,2.9114,2.9114,2.9114,2.9114,2.9114,2.9114,2.9114,2.9114,2.9114,2.9075,2.8967,2.892,2.8873,2.7446,2.6377,2.5761,2.5555,2.512,2.4457,2.4441,2.4405,2.4297,2.4281,2.4281,2.4281,2.4281,2.4281,2.4281,2.4281,2.4281,2.4281,2.4281,2.4281,2.4281,0.0,0.0,0.0,0.0,0.0,0.0,0.0,0.0,0.0,0.0,0.0,0.0,0.0,0.0,0.0,2.4806,0.0,2.6556,2.5924,0.0,0.0,0.0,2.6572,2.6975,2.7071,2.7101,2.7119,0.0,0.0,2.7315,2.7315,2.7234,2.7057,2.6958,2.6909,2.6909,2.6809,2.6708,2.6742,2.6725,2.6708,2.6691,2.6674,2.6657,2.6657,2.6708,2.6674,2.6708,2.6708,2.6708,2.6674,2.6708,2.6691,2.6708,2.6641,2.6691,2.6657,2.664,2.6589,2.6589,2.6606,2.6606,2.8873,2.8959,2.9021,2.9045,2.9052,2.9052,2.9075,2.9114,2.9114,2.9114,2.9114,2.9114,2.9114,2.9114,2.9114,2.9114,2.9114,2.9114,2.9114,2.9114,2.9114,2.9114,2.9114,2.9114,2.9114,2.9114,2.9114,2.9114,2.9114,2.9075,2.9052,2.9036,2.8567,2.8117,2.7644,2.7105,2.644,2.5679,2.5663,2.5227,2.4333,2.4281,2.4281,2.4281,2.4281,2.4281,2.4281,2.4281,2.4281,2.4281,2.4281,2.4281,2.4281,2.4281,0.0,0.0,0.0,0.0,0.0,0.0,0.0,0.0,0.0,2.4686,2.4569,0.0,2.4871,0.0,2.5556,2.5924,2.621,2.6034,0.0,0.0,2.6691,2.6792,2.7186,2.7234,2.725,2.7266,2.7283,2.7315,2.7315,2.7315,2.7282,2.7218,2.712,2.7039,2.6975,2.6958,2.6925,2.6859,2.6859,2.6809,2.6725,2.6708,2.6708,2.6708,2.6708,2.6708,2.6708,2.6708,2.6708,2.6708,2.6708,2.6708,2.6708,2.6708,2.6708,2.6708,2.6691,2.6691,2.6674,2.6674,2.6674,2.9114,2.9114,2.9114,2.9114,2.9114,2.9114,2.9114,2.9114,2.9114,2.9114,2.9114,2.9114,2.9114,2.9114,2.9114,2.9114,2.9114,2.9114,2.9114,2.9114,2.9114,2.9114,2.9114,2.9114,2.9114,2.9114,2.9114,2.9114,2.9114,2.9114,2.9114,2.9075,2.9029,2.887,2.864,2.787,2.7125,2.6383,2.6351,2.6052,2.5397,2.5087,2.4911,2.4817,2.4534,2.44,2.438,2.438,2.438,2.438,2.438,2.438,2.44,2.438,2.4385,0.0,0.0,0.0,0.0,0.0,0.0,0.0,0.0,0.0,0.0,0.0,2.5535,2.5943,2.6068,2.6245,2.6607,2.647,2.6522,2.6941,2.6957,2.7072,2.7283,2.7315,2.7315,2.7315,2.7315,2.7315,2.7315,2.7315,2.7315,2.7315,2.7233,2.7152,2.7071,2.7136,2.7119,2.6975,2.7039,2.7054,2.6858,2.6842,2.6842,2.6825,2.6825,2.6808,2.6809,2.6792,2.6775,2.6725,2.6708,2.6708,2.6708,2.6708,2.6725,2.6758,2.6792,2.6758,2.6725,2.6708,2.6708,2.9175,2.919,2.919,2.919,2.9175,2.919,2.916,2.9114,2.9114,2.9114,2.9114,2.9137,2.9144,2.9144,2.916,2.9144,2.9144,2.9121,2.9114,2.9114,2.9114,2.9114,2.9114,2.9114,2.9114,2.9114,2.9167,2.9175,2.919,2.9259,2.9266,2.9289,2.9266,2.9282,2.925,2.8483,2.768,2.6873,2.6757,2.6704,2.6689,2.6133,2.5778,2.5647,2.5077,2.4782,2.4782,2.4782,2.4782,2.4766,2.4782,2.4735,2.4658,2.4658,2.4637,0.0,2.4609,0.0,0.0,0.0,0.0,0.0,0.0,0.0,0.0,2.5906,2.6315,2.6674,2.6419,2.6539,2.7234,2.6974,2.6908,2.725,2.7315,2.7315,2.7315,2.7315,2.7315,2.7315,2.7315,2.7315,2.7315,2.7315,2.7315,2.7315,2.7315,2.7264,2.7214,2.7289,2.7291,2.7087,2.7243,2.7274,2.7039,2.6992,2.7007,2.704,2.7007,2.6991,2.6991,2.6925,2.6876,2.6775,2.6758,2.6741,2.6742,2.6741,2.6792,2.6941,2.6991,2.6925,2.6775,2.6742,2.6674,2.9677,2.9661,2.9661,2.9677,2.9677,2.9677,2.9448,2.9114,2.9114,2.9114,2.9137,2.935,2.9425,2.9403,2.9425,2.9403,2.9418,2.919,2.9114,2.9114,2.9114,2.9114,2.9114,2.9114,2.9114,2.9137,2.9477,2.9677,2.9677,3.0054,3.0246,3.0246,3.0246,3.0246,3.023,0.0,0.0,0.0,2.7036,2.6704,2.6689,2.6564,2.6486,2.6464,2.6355,0.0,2.6277,2.6277,2.6277,2.6277,2.6277,0.0,0.0,0.0,0.0,0.0,0.0,0.0,0.0,0.0,0.0,0.0,2.6244,2.6332,2.5998,2.6349,2.6607,2.6691,2.6925,2.7137,2.7282,2.7234,2.7218,2.7299,2.7315,2.7315,2.7315,2.7315,2.7315,2.7315,2.7315,2.7315,2.7315,2.7315,2.7315,2.7315,2.7315,2.7374,2.7537,2.7434,2.7374,2.7446,2.7441,2.7305,2.7056,2.7024,2.7087,2.7228,2.7119,2.7087,2.7228,2.7119,2.6992,2.6925,2.6942,2.6958,2.6958,2.6942,2.7039,2.7258,2.7303,2.7211,2.6925,2.6859,2.6656,2.9793,2.9793,2.9793,2.9793,0.0,2.9793,2.9661,2.9448,2.9448,2.9432,2.947,2.9566,2.9649,2.9655,2.9671,2.9633,2.9633,2.9515,2.9432,2.9448,2.935,2.9305,2.9305,2.9403,2.9432,2.9454,2.97,2.9924,3.0102,2.9924,3.0032,3.0497,3.0251,3.0161,3.0161,3.0161,2.9708,2.886,2.8427,2.8246,2.823,2.7896,2.7699,2.7634,2.7322,0.0,0.0,0.0,0.0,0.0,0.0,0.0,0.0,0.0,0.0,2.5837,2.5681,2.5679,2.586,2.5788,2.5924,2.6314,2.6758,2.6908,2.6725,2.6892,2.699,2.699,2.7186,2.7315,2.7315,2.7315,2.7315,2.7315,2.7315,2.7315,2.7315,2.7315,2.7315,2.7315,2.7315,2.7315,2.7315,2.7315,2.7315,2.7315,2.7315,2.7345,2.7465,2.7511,2.7585,2.78,2.7535,2.7338,2.734,2.7217,2.7185,2.7293,2.7249,2.7201,2.7244,2.7293,2.7247,2.7072,2.7104,2.7197,2.7197,2.7197,2.7307,2.7539,2.7379,2.7075,2.6854,2.6705,2.6466,2.9941,2.9919,2.9903,2.9919,2.9941,2.9924,2.9941,2.9903,0.0,0.0,0.0,2.9853,2.9875,2.9875,2.9859,2.9875,2.9875,2.9832,2.9793,2.9793,2.9649,2.956,2.9544,2.9705,2.9793,2.9793,2.9881,3.0118,3.0456,2.981,2.9875,3.0535,3.0225,3.0032,2.9968,2.9962,2.9924,2.9924,2.9924,2.9924,2.9908,2.9376,2.9046,2.8919,2.8394,2.8082,2.7999,2.7999,2.8106,2.8341,2.8049,2.7805,2.7692,2.7311,2.7129,2.7195,2.6948,2.6837,2.6994,2.6644,2.6518,2.6809,2.7121,2.7315,2.7315,2.7315,2.7315,2.7315,2.7315,2.7315,2.733,2.733,2.733,2.7346,2.7329,2.7329,2.7346,2.7346,2.7362,2.7329,2.7345,2.7329,2.7345,2.7346,2.733,2.733,2.7315,2.7315,2.7346,2.7526,2.7771,2.7978,2.7739,2.7524,2.7612,2.76,2.7419,2.7405,2.7436,2.7386,2.7353,2.7504,2.7504,2.7231,2.7336,2.7487,2.7487,2.7502,2.7613,2.7864,2.7366,2.6867,2.6685,2.6374,2.5985,3.0384,3.0422,3.0405,3.0405,3.0405,3.0405,3.0405,3.0363,2.9984,2.9793,2.9815,3.0044,3.0146,3.0146,3.0146,3.0146,3.0108,2.9897,2.9793,2.9793,2.975,2.9766,2.975,2.9772,2.9793,2.9815,3.0199,3.0426,3.051,3.0773,3.0975,3.1092,3.1052,3.0878,3.0683,3.0497,3.0393,3.0393,3.0414,3.0393,3.0414,3.0298,3.0249,3.0228,3.0129,2.9892,2.9502,2.9464,2.9343,2.8987,2.8912,2.8636,2.8072,2.7981,2.7842,2.7635,2.7575,2.7869,2.859,2.7973,2.7453,2.7255,2.7313,2.7345,2.7315,2.7315,2.7315,2.7315,2.7315,2.733,2.7378,2.7393,2.739,2.745,2.7483,2.7483,2.745,2.7483,2.7467,2.745,2.7483,2.7465,2.7467,2.7423,2.7376,2.7378,2.7362,2.733,2.7392,2.7542,2.78,2.802,2.8047,2.7894,2.7768,2.7883,2.7826,2.7686,2.7815,2.7894,2.7851,2.795,2.7894,2.7624,2.7797,2.788,2.7725,2.7855,2.7803,2.7599,2.7319,2.6976,2.6387,2.5727,2.5094,3.0489,3.0489,3.0489,3.0489,3.0489,3.0489,3.0489,3.0468,3.0279,3.0194,3.0194,3.03,3.0342,3.0359,3.0359,3.0342,3.0359,3.0236,3.0177,3.0177,3.0049,3.0022,3.0022,3.0151,3.0194,3.0199,3.0401,3.0613,3.0834,3.0613,3.0716,3.1151,3.0955,3.0878,3.0998,3.0658,3.0634,3.0858,3.0621,3.0605,3.0825,3.0808,3.0723,3.0497,3.0497,3.0288,2.9815,2.9793,2.9815,2.9859,2.9595,2.9333,2.905,2.9034,2.8962,2.8859,2.8902,2.912,2.9514,2.868,2.8148,2.8048,2.7679,2.7436,2.7405,2.7405,2.7405,2.7405,2.7405,2.7421,2.7452,2.7452,2.7467,2.7496,2.7496,2.7496,2.7496,2.7496,2.7496,2.7496,2.7496,2.7496,2.7496,2.7483,2.7452,2.7452,2.7438,2.7452,2.7585,2.76,2.773,2.802,2.8102,2.8061,2.7936,2.8006,2.7964,2.776,2.7926,2.802,2.7968,2.8106,2.8161,2.7829,2.8069,2.8299,2.8161,2.7878,2.7711,2.7621,2.6797,2.622,2.5757,2.5137,2.4475,3.0489,3.0489,3.0489,3.0489,3.0489,3.0489,3.0489,3.0489,3.0489,3.0489,3.0489,3.0489,3.0489,3.0489,3.0489,3.0489,3.0489,3.0489,3.0489,3.0468,3.0338,3.0258,3.0274,3.0443,3.0489,3.0489,3.0489,3.0692,3.0915,3.0305,3.033,3.1032,3.0654,3.0634,3.1038,3.0593,3.0589,3.0995,3.0679,3.0683,3.1024,3.1044,3.0885,3.0522,3.0559,3.0314,2.9853,2.9903,3.007,3.0246,2.9968,2.9793,2.9793,2.9881,2.9946,3.0069,3.0229,3.0268,3.016,2.9489,2.8929,2.8697,2.8154,2.7718,2.7544,2.7542,2.7542,2.7511,2.7496,2.7496,2.7526,2.7526,2.7526,2.7557,2.7539,2.7554,2.7557,2.7557,2.7557,2.7557,2.7539,2.7539,2.7539,2.7524,2.7511,2.7496,2.7496,2.76,2.7742,2.7657,2.7757,2.802,2.8139,2.8183,2.821,2.8237,2.8116,2.784,2.8037,2.8134,2.8097,2.8396,2.8474,2.8124,2.8339,2.8449,2.8347,2.7919,2.745,2.7145,2.6224,2.5446,2.5124,2.4675,2.4168,3.0489,3.0489,3.0489,3.0489,3.0489,3.0489,3.0489,3.0489,3.0489,3.0489,3.0489,3.0489,3.0489,3.0489,3.0489,3.0489,3.0489,3.0489,3.0489,3.0489,3.0468,3.0485,3.0464,3.0468,3.0489,3.051,3.051,3.0589,3.0651,3.0506,3.0613,3.0898,3.0485,3.0405,3.0601,3.0145,3.0113,3.0568,3.051,3.0597,3.0825,3.0808,3.0723,3.0497,3.0683,3.046,2.9859,3.0199,3.0172,2.9671,2.9766,2.9793,2.9837,3.0097,3.0456,3.0845,3.1118,3.1152,3.0855,3.0716,3.0071,2.8887,2.8687,2.8334,2.7689,2.7644,2.7612,2.7524,2.7511,2.7526,2.7589,2.7587,2.76,2.7674,2.7672,2.7704,2.7672,2.7704,2.7686,2.7704,2.7689,2.7672,2.7657,2.7612,2.7572,2.7509,2.7509,2.7557,2.76,2.7713,2.7897,2.8166,2.8272,2.8368,2.8533,2.8644,2.8482,2.8183,2.8334,2.8469,2.8538,2.8694,2.8827,2.829,2.8597,2.8499,2.7887,2.7528,2.7156,2.6206,2.5576,2.5154,2.452,2.4263,2.4142,3.0489,3.0489,3.0489,3.0489,3.0489,3.0489,3.0489,3.0489,3.0489,3.0489,3.0489,3.0489,3.0489,3.0489,3.0489,3.0489,3.0489,3.0489,3.0489,3.0489,3.0489,3.0489,3.0489,3.0489,3.0593,3.0794,3.0814,3.0898,3.1018,3.0878,3.0875,3.0975,3.0773,3.0736,3.0821,3.0804,3.0922,3.1095,3.1098,3.1061,3.0985,3.1001,3.0858,3.0555,3.0781,3.0666,3.0187,3.0472,3.0539,3.0239,3.0281,3.0344,3.0377,3.0751,3.103,3.1242,3.1601,3.1774,3.1673,3.1254,3.059,2.9573,2.9113,2.8515,2.7747,2.7686,2.7672,2.7644,2.763,2.7644,2.7659,2.7659,2.7689,2.7701,2.7716,2.7716,2.7716,2.7716,2.7716,2.7716,2.7716,2.7716,2.7701,2.7672,2.7642,2.7612,2.7612,2.763,2.763,2.773,2.7883,2.8116,2.8197,2.8342,2.8627,2.8899,2.8791,2.8609,2.8725,2.8934,2.8718,2.8927,2.8904,2.813,2.8226,2.8011,2.7153,2.6606,2.6131,2.5358,2.4897,2.4566,2.4254,2.4199,2.4199,3.0568,3.0547,3.0526,3.0489,3.0489,3.0489,3.0489,3.0489,3.0489,3.0489,3.0489,3.0489,3.0489,3.0489,3.0489,3.0489,3.0489,3.0489,3.0489,3.0489,3.0489,3.0551,3.063,3.0547,3.0692,3.0935,3.0895,3.0978,3.1176,3.0998,3.0915,3.0975,3.0915,3.0915,3.1015,3.1271,3.1351,3.1351,3.1445,3.1408,3.1237,3.1254,3.1038,3.0638,3.0865,3.0845,3.046,3.0804,3.0928,3.0798,3.0874,3.0931,3.1004,3.1321,3.1584,3.1694,3.1984,3.2214,3.2232,3.1759,3.1145,3.0441,2.9685,2.8877,2.8193,2.7824,2.7701,2.7701,2.7716,2.7701,2.7716,2.7716,2.7716,2.7716,2.7716,2.7716,2.7716,2.7716,2.7716,2.7716,2.7716,2.7716,2.7716,2.7701,2.7701,2.7701,2.7701,2.7716,2.7716,2.7716,2.78,2.8043,2.8152,2.8342,2.8627,2.8749,2.8832,2.8867,2.8909,2.8851,2.8587,2.8751,2.8558,2.7589,2.7635,2.7298,2.6528,2.5831,2.5371,2.5075,2.4651,2.4255,2.42,2.4209,2.4199,3.0692,3.0671,3.0551,3.051,3.0489,3.0489,3.0489,3.051,3.0489,3.0489,3.0489,3.0489,3.0489,3.0489,3.0489,3.0489,3.0489,3.0489,3.0489,3.0489,3.0489,3.0671,3.0955,3.0671,3.0692,3.0955,3.0736,3.063,3.0634,3.0589,3.0692,3.0955,3.0733,3.0712,3.0975,3.1075,3.1055,3.1154,3.1426,3.1504,3.1485,3.1502,3.1259,3.0854,3.0988,3.1044,3.0868,3.1237,3.1353,3.1086,3.1353,3.1466,3.1504,3.173,3.202,3.2284,3.2371,3.2388,3.2388,3.2301,3.1932,3.1177,3.044,2.9685,2.8807,2.8175,2.7804,2.7716,2.7716,2.7716,2.7716,2.7716,2.7716,2.7716,2.7716,2.7716,2.7716,2.7716,2.7716,2.7716,2.7716,2.7716,2.7716,2.7716,2.7716,2.7716,2.7716,2.7716,2.7716,2.7716,2.7815,2.802,2.8246,2.8466,2.8482,2.8719,2.8725,2.8682,2.8739,2.8585,2.8276,2.7957,2.7474,2.705,2.6878,2.6482,2.5835,2.5364,2.5041,2.4745,2.4487,2.4219,2.4219,2.42,2.4218,3.0831,3.0831,3.079,3.0753,3.0733,3.0671,3.063,3.0593,3.0547,3.0489,3.0489,3.0489,3.0489,3.0489,3.0489,3.0489,3.0489,3.0489,3.0489,3.0489,3.0489,3.0551,3.0634,3.0568,3.0692,3.0935,3.0875,3.0955,3.1098,3.0918,3.0875,3.0955,3.0895,3.0895,3.1038,3.1389,3.1581,3.1617,3.1911,3.2072,3.2037,3.2072,3.1983,3.1786,3.1674,3.1582,3.1507,3.1875,3.2036,3.1947,3.2019,3.2072,3.209,3.2161,3.2267,3.2371,3.2406,3.2406,3.2406,3.2406,3.2055,3.13,3.0966,3.0229,2.9176,2.8614,2.8263,2.7841,2.7716,2.7716,2.7716,2.7716,2.7716,2.7716,2.7716,2.7716,2.7716,2.7716,2.7716,2.7716,2.7716,2.7716,2.7716,2.7716,2.7716,2.7716,2.7716,2.7716,2.7716,2.7716,2.7742,2.7829,2.7908,2.7996,2.8003,2.8694,2.9016,2.8801,2.8669,2.8363,2.8071,2.7458,2.6938,2.6273,2.606,2.5782,2.5171,2.4922,2.4635,2.4543,2.4275,2.4266,2.4257,2.4257,2.4257,3.1519,3.1277,3.126,3.1109,3.0892,3.081,3.077,3.0753,3.0654,3.063,3.063,3.063,3.063,3.063,3.063,3.063,3.0593,3.0531,3.0489,3.0489,3.0489,3.0572,3.0692,3.0589,3.0712,3.0975,3.0895,3.0975,3.1154,3.0938,3.0855,3.0834,3.0818,3.0834,3.0918,3.1353,3.1617,3.1674,3.2002,3.2232,3.2249,3.2336,3.2406,3.2371,3.2161,3.2055,3.2055,3.2284,3.2406,3.2406,3.2406,3.2406,3.2406,3.2406,3.2406,3.2406,3.2406,3.2406,3.2406,3.2406,3.216,3.1633,3.1317,3.0685,2.9702,2.9193,2.8649,2.8193,2.7806,2.7716,2.7774,2.7789,2.776,2.773,2.776,2.7789,2.7806,2.7832,2.785,2.7836,2.7803,2.7774,2.7698,2.7716,2.7716,2.7716,2.7716,2.7716,2.7716,2.7716,2.7716,2.773,2.7829,2.7844,2.7901,2.8438,2.8832,2.8692,2.8239,2.7999,2.7544,2.6932,2.6246,2.5606,2.5188,2.4947,2.4698,2.4458,2.4375,2.4358,2.4348,2.4339,2.433,2.4321,2.4312,3.2757,3.2085,3.2014,3.1616,3.1083,3.1029,3.0925,3.0908,3.0892,3.0871,3.0851,3.0892,3.0871,3.0892,3.0851,3.0892,3.0814,3.0651,3.0547,3.0531,3.0547,3.0753,3.1055,3.0712,3.0794,3.1154,3.0773,3.0593,3.0695,3.0658,3.0634,3.0572,3.0651,3.0695,3.0551,3.0998,3.1114,3.1293,3.1765,3.1966,3.193,3.2267,3.2406,3.2406,3.2388,3.2354,3.2388,3.2371,3.2406,3.2406,3.2406,3.2406,3.2406,3.2406,3.2406,3.2406,3.2406,3.2406,3.2406,3.2406,3.2388,3.2195,3.1668,3.1246,3.0791,2.9843,2.9035,2.8717,2.824,2.7859,2.8003,2.7982,2.7922,2.776,2.7893,2.7982,2.8011,2.8109,2.8132,2.8007,2.7982,2.7925,2.7774,2.776,2.7774,2.7774,2.7774,2.7774,2.7789,2.7789,2.7745,2.7789,2.7901,2.7989,2.8024,2.8143,2.8368,2.8432,2.789,2.7463,2.6853,2.6219,2.5389,2.4736,2.4737,2.4524,2.4551,2.4348,2.4456,2.4447,2.443,2.4403,2.4403,2.4375,2.4358,3.3187,3.298,3.2963,3.2542,3.1904,3.1756,3.1463,3.0972,3.0932,3.0912,3.0912,3.0912,3.0912,3.0912,3.0912,3.0912,3.0892,3.081,3.079,3.0773,3.079,3.0834,3.0952,3.0834,3.0978,3.1295,3.1355,3.1336,3.1281,3.1218,3.1176,3.1196,3.1196,3.1237,3.1317,3.1507,3.1674,3.184,3.2108,3.2249,3.2249,3.2336,3.2406,3.2406,3.2406,3.2406,3.2406,3.2406,3.2406,3.2406,3.2406,3.2406,3.2406,3.2406,3.2406,3.2406,3.2406,3.2406,3.2406,3.2406,3.2423,3.2353,3.2142,3.1739,3.1282,3.0772,3.0029,2.9279,2.8797,2.857,2.8219,2.8119,2.8105,2.8049,2.8091,2.815,2.8164,2.8174,2.8174,2.8146,2.8119,2.8091,2.8063,2.8035,2.8021,2.8003,2.8021,2.8017,2.8017,2.7989,2.8031,2.8077,2.816,2.8142,2.8169,2.8192,2.8334,2.8108,2.7532,2.7045,2.6388,2.5427,2.4584,2.426,2.4228,2.4229,2.4257,2.4293,2.4375,2.4465,2.443,2.443,2.4456,2.4447,2.4402,3.4066,3.3812,3.3812,3.3372,3.273,3.2596,3.2323,3.1864,3.1537,3.1416,3.1402,3.113,3.0995,3.1012,3.1012,3.1012,3.1012,3.1012,3.0995,3.0992,3.0912,3.0912,3.0955,3.1098,3.1298,3.1585,3.1733,3.1805,3.1805,3.1657,3.1618,3.1656,3.1618,3.1638,3.1787,3.1878,3.202,3.2127,3.2266,3.2318,3.2353,3.2422,3.2491,3.2508,3.2541,3.2592,3.2574,3.2574,3.2524,3.244,3.2406,3.2406,3.2406,3.2439,3.2473,3.249,3.2541,3.2609,3.2591,3.2608,3.2574,3.2574,3.2574,3.2414,3.1884,3.1638,3.0906,3.026,2.9541,2.9084,2.8778,2.8412,2.8318,2.8335,2.83,2.8313,2.834,2.8349,2.8309,2.83,2.8273,2.8242,2.8201,2.8205,2.8205,2.8205,2.8205,2.8205,2.8205,2.8174,2.8201,2.8201,2.8187,2.8187,2.8232,2.8282,2.8357,2.7821,2.7168,2.6729,2.6193,2.486,2.3811,2.3948,2.3969,2.3989,2.4019,2.4068,2.4144,2.4247,2.4312,2.4312,2.4303,2.4437,2.4446,3.5199,3.459,3.4556,3.4134,3.3508,3.3474,3.3351,3.3199,3.2645,3.2341,3.2205,3.1762,3.1424,3.1376,3.1424,3.1357,3.1275,3.1171,3.1171,3.1131,3.1032,3.0972,3.1055,3.1355,3.164,3.186,3.195,3.1985,3.195,3.1786,3.1805,3.1967,3.1841,3.186,3.2092,3.2074,3.2127,3.2196,3.2249,3.2318,3.2301,3.2506,3.2622,3.2622,3.2753,3.2852,3.2852,3.2852,3.2722,3.2474,3.2474,3.2491,3.2474,3.2557,3.2622,3.2605,3.2804,3.2852,3.2884,3.2852,3.2852,3.2852,3.2852,3.2882,3.2674,3.2195,3.1713,3.1418,3.0415,2.9647,2.9471,2.8995,2.8621,2.8567,2.8471,2.8458,2.8562,2.8574,2.851,2.8432,2.8393,2.8367,2.8268,2.8255,2.8259,2.8242,2.8255,2.8268,2.8268,2.8282,2.8242,2.8242,2.8282,2.8327,2.8367,2.838,2.844,2.8065,2.7273,2.6639,2.5924,2.4567,2.3492,2.3602,2.3774,2.3767,2.3798,2.3878,2.3909,2.3978,2.4019,2.4068,2.4201,2.4357,2.4491,3.5481,3.5312,3.5295,3.4895,3.4252,3.4218,3.3897,3.3423,3.3237,3.3102,3.3034,3.2916,3.273,3.2747,3.2226,3.2005,3.1904,3.1478,3.119,3.119,3.1151,3.1114,3.1213,3.1506,3.1714,3.1823,3.1967,3.2003,3.1985,3.1858,3.1948,3.2214,3.2179,3.2369,3.2718,3.2703,3.2719,3.2784,3.2719,3.2705,3.2721,3.2753,3.2836,3.2836,3.2884,3.2916,3.2916,3.29,3.2868,3.2787,3.2755,3.2771,3.2739,3.277,3.2802,3.2818,3.2884,3.2916,3.2916,3.2898,3.2898,3.29,3.2948,3.29,3.29,3.2721,3.234,3.1969,3.1386,3.0797,2.9999,2.9538,2.9202,2.8696,2.8585,2.8549,2.8587,2.86,2.8574,2.8549,2.8554,2.851,2.8484,2.8471,2.8471,2.8453,2.8453,2.8453,2.8427,2.844,2.8414,2.8484,2.851,2.851,2.8528,2.851,2.8448,2.8244,2.7571,2.6733,2.5781,2.4504,2.3697,2.3307,2.3553,2.3642,2.3657,2.37,2.3721,2.3739,2.3899,2.4029,2.4145,2.4293,2.4437,3.5616,3.5616,3.5616,3.5346,3.4979,3.4962,3.4709,3.432,3.3981,3.3863,3.3812,3.3525,3.3389,3.3339,3.2949,3.2784,3.2679,3.2307,3.1968,3.1613,3.1343,3.1271,3.1411,3.1638,3.1787,3.1967,3.2056,3.2231,3.2265,3.2038,3.2214,3.2621,3.2538,3.2685,3.3165,3.315,3.3135,3.318,3.3055,3.2977,3.2977,3.2977,3.2977,3.3011,3.3057,3.3104,3.3122,3.3119,3.3057,3.2948,3.29,3.29,3.2916,3.2945,3.2995,3.2977,3.3057,3.3104,3.3122,3.3122,3.3104,3.3104,3.3104,3.3104,3.3119,3.3104,3.288,3.2634,3.2252,3.1642,3.0939,3.0237,2.9626,2.9192,2.8799,2.8618,2.86,2.86,2.86,2.86,2.86,2.86,2.86,2.8582,2.86,2.8587,2.8574,2.8574,2.8574,2.86,2.86,2.86,2.86,2.8574,2.8562,2.8562,2.8549,2.8363,2.7923,2.7052,2.5864,2.464,2.3963,2.3508,2.3524,2.3504,2.356,2.3553,2.3515,2.3587,2.3795,2.3949,2.4049,2.4266,2.4411,3.5616,3.5616,3.5616,3.5616,3.5566,3.56,3.5481,3.543,3.4878,3.4624,3.4506,3.3931,3.3863,3.3626,3.3643,3.3508,3.3508,3.3271,3.2981,3.2476,3.2063,3.1929,3.2251,3.1721,3.1785,3.1985,3.2162,3.2266,3.2214,3.2021,3.2402,3.2768,3.2638,3.2816,3.3117,3.3256,3.3334,3.3256,3.3196,3.3132,3.315,3.315,3.3132,3.3165,3.3274,3.3334,3.3349,3.3349,3.3259,3.2961,3.2948,3.2995,3.2995,3.3088,3.3135,3.3165,3.3274,3.3349,3.3378,3.3349,3.3378,3.3349,3.3364,3.3393,3.3349,3.3334,3.3294,3.3219,3.2723,3.231,3.1854,3.0799,3.011,2.9807,2.9246,2.8781,2.8708,2.8654,2.8582,2.8509,2.8491,2.8582,2.8509,2.8545,2.86,2.86,2.86,2.86,2.86,2.86,2.86,2.86,2.86,2.86,2.8587,2.8587,2.8587,2.8507,2.8133,2.7386,2.6177,2.5094,2.4355,2.3897,2.3606,2.3499,2.351,2.3464,2.3407,2.347,2.3696,2.3803,2.3896,2.4219,2.443,3.5616,3.5616,3.5616,3.5616,3.5616,3.5616,3.5616,3.5583,3.543,3.5295,3.5312,3.5143,3.5059,3.5047,3.4506,3.4273,3.4167,3.3804,3.3441,3.3648,3.353,3.3661,3.3517,3.2362,3.1457,3.1593,3.1483,3.1542,3.1579,3.1712,3.1786,3.2436,3.2385,3.2266,3.2876,3.3034,3.2923,3.2988,3.3178,3.3301,3.3301,3.3319,3.3301,3.3334,3.3364,3.3393,3.3393,3.3393,3.3364,3.3304,3.3271,3.3241,3.3274,3.3286,3.3301,3.3319,3.3349,3.3393,3.3393,3.3393,3.3393,3.3393,3.3393,3.3393,3.3393,3.3393,3.3393,3.3375,3.323,3.2832,3.2288,3.1379,3.0853,3.0581,3.0056,2.9536,2.9427,2.8974,2.8401,2.8057,2.8256,2.8364,2.7839,2.8382,2.8509,2.8563,2.86,2.86,2.86,2.86,2.86,2.86,2.86,2.86,2.86,2.86,2.86,2.86,2.831,2.7852,2.6652,2.575,2.5067,2.4281,2.3559,2.3517,2.3567,2.3528,2.3505,2.3555,2.3616,2.3728,2.3907,2.4191,2.4393,3.5616,3.5616,3.5616,3.5616,3.5616,3.5616,3.5616,3.5616,3.5616,3.5616,3.5616,3.5616,3.5616,3.5583,3.5216,3.5013,3.491,3.4525,3.4233,3.4199,3.408,3.4112,3.4175,3.325,3.2449,3.2331,3.232,3.2202,3.1982,3.1858,3.2162,3.2716,3.2384,3.2619,3.2988,3.305,3.3114,3.3129,3.3271,3.3393,3.3393,3.3393,3.3393,3.3393,3.3393,3.3393,3.3393,3.3393,3.3393,3.3393,3.3393,3.3393,3.3393,3.3393,3.3393,3.3393,3.3393,3.3393,3.3393,3.3393,3.3393,3.3393,3.3393,3.3393,3.3393,3.3393,3.3393,3.3393,3.3357,3.3176,3.2759,3.2035,3.1636,3.1401,3.0853,3.04,3.017,2.9355,2.8491,2.8111,2.8364,2.8364,2.831,2.8382,2.8491,2.86,2.86,2.86,2.86,2.86,2.86,2.86,2.86,2.86,2.86,2.86,2.86,2.86,2.8509,2.81,2.7336,2.6581,2.5882,2.5014,2.4143,2.3678,2.3675,2.3616,2.3618,2.3634,2.3693,2.3761,2.3907,2.4153,2.4302,3.5616,3.5616,3.5616,3.5616,3.5616,3.5616,3.5616,3.5616,3.5616,3.5616,3.5616,3.5616,3.5616,3.56,3.5583,3.56,3.5508,3.5356,3.5006,3.4895,3.4733,3.4809,3.4805,3.4706,3.4454,3.4041,3.3705,3.3441,3.3087,3.2767,3.2839,3.3299,3.2912,3.2814,3.3162,3.3286,3.3208,3.3193,3.3301,3.3393,3.3393,3.3393,3.3393,3.3393,3.3393,3.3393,3.3393,3.3393,3.3393,3.3393,3.3393,3.3393,3.3393,3.3393,3.3393,3.3393,3.3393,3.3393,3.3393,3.3393,3.3393,3.3393,3.3393,3.3393,3.3393,3.3393,3.3393,3.3393,3.3375,3.3375,3.3339,3.2814,3.2433,3.2234,3.1655,3.1238,3.0912,2.9849,2.9161,2.8563,2.8491,2.8401,2.8364,2.8382,2.8491,2.86,2.86,2.86,2.86,2.86,2.86,2.86,2.86,2.86,2.86,2.86,2.86,2.86,2.86,2.8367,2.7921,2.7337,2.6581,2.5644,2.4891,2.4423,2.4018,2.394,2.3898,2.3801,2.3736,2.3764,2.3909,2.4114,2.422,3.5616,3.5616,3.5616,3.5616,3.5616,3.5616,3.5616,3.5616,3.5616,3.5616,3.5616,3.5616,3.5616,3.5616,3.5616,3.5616,3.5577,3.555,3.5646,3.5771,3.5745,3.5963,3.6385,3.6353,3.647,3.6127,3.5349,3.4624,3.42,3.3741,3.3627,3.3651,3.3006,3.2756,3.2928,3.2908,3.3037,3.3099,3.3271,3.3393,3.3393,3.3393,3.3393,3.3393,3.3393,3.3393,3.3393,3.3393,3.3393,3.3393,3.3393,3.3393,3.3393,3.3393,3.3393,3.3393,3.3393,3.3393,3.3393,3.3393,3.3393,3.3393,3.3393,3.3393,3.3393,3.3393,3.3393,3.3393,3.3393,3.3393,3.3393,3.3158,3.3176,3.2977,3.2524,3.1999,3.1799,3.1093,3.0061,2.9324,2.8925,2.8582,2.8618,2.86,2.8672,2.869,2.86,2.86,2.86,2.86,2.86,2.86,2.86,2.86,2.86,2.86,2.86,2.86,2.8625,2.8694,2.8311,2.7942,2.727,2.6654,2.5876,2.5214,2.4844,2.4444,2.4111,2.3977,2.3891,2.3795,2.3937,2.4085,2.4123,3.5616,3.5616,3.5616,3.5616,3.5616,3.5616,3.5616,3.5616,3.5616,3.5616,3.5616,3.5616,3.5616,3.5616,3.5616,3.5616,3.5644,3.5893,3.5958,3.6023,3.6216,3.6597,3.7151,3.7208,3.7435,3.7321,3.6823,3.5969,3.5308,3.4914,3.4554,3.4203,3.3695,3.3389,3.3158,3.3147,3.3117,3.3162,3.3286,3.3393,3.3393,3.3393,3.3393,3.3393,3.3393,3.3393,3.3393,3.3393,3.3393,3.3393,3.3393,3.3393,3.3393,3.3393,3.3393,3.3393,3.3393,3.3393,3.3393,3.3393,3.3393,3.3393,3.3393,3.3393,3.3393,3.3393,3.3393,3.3393,3.3393,3.3393,3.3393,3.3393,3.3393,3.3339,3.3013,3.2832,3.2632,3.2053,3.1238,3.0355,3.0224,2.9844,2.9065,2.9029,2.8944,2.8817,2.8654,2.8618,2.8618,2.86,2.86,2.86,2.86,2.86,2.86,2.86,2.86,2.86,2.8625,2.8694,2.8724,2.8379,2.8327,2.8091,2.7235,2.6176,2.5409,2.4931,2.4539,2.4194,2.4117,2.4087,2.4032,2.4044,2.4074,3.5616,3.5616,3.5616,3.5616,3.5616,3.5616,3.5616,3.5616,3.5616,3.5616,3.5616,3.5616,3.5616,3.5616,3.5616,3.5639,3.5644,3.598,3.5893,3.5761,3.5958,3.6371,3.6781,3.6997,3.7304,3.798,3.7959,3.754,3.6571,3.6083,3.5643,3.5284,3.5025,3.4428,3.3834,3.3695,3.361,3.3411,3.3393,3.3393,3.3393,3.3393,3.3393,3.3393,3.3393,3.3393,3.3393,3.3393,3.3393,3.3393,3.3393,3.3393,3.3393,3.3393,3.3393,3.3393,3.3393,3.3393,3.3393,3.3393,3.3393,3.3393,3.3393,3.3393,3.3393,3.3393,3.3393,3.3393,3.3393,3.3393,3.3393,3.3393,3.3393,3.3375,3.3375,3.3339,3.3158,3.2832,3.2542,3.1981,3.1727,3.1039,3.0188,2.9807,2.9789,2.9318,2.9137,2.8763,2.8744,2.8618,2.86,2.86,2.86,2.86,2.86,2.86,2.86,2.86,2.8625,2.8687,2.8827,2.884,2.8809,2.8677,2.818,2.713,2.6292,2.5562,2.5283,2.4972,2.4603,2.4337,2.4207,2.4122,2.4102,3.5616,3.5616,3.5616,3.5616,3.5616,3.5616,3.5616,3.5616,3.5622,3.5616,3.5667,3.5644,3.5689,3.5711,3.5689,3.5667,3.5689,3.5805,3.5871,3.5805,3.5871,3.6291,3.6823,3.69,3.7449,3.8089,3.8209,3.8138,3.7594,3.7069,3.6779,3.6453,3.5838,3.5243,3.4552,3.4317,3.4081,3.3538,3.3411,3.3393,3.3393,3.3393,3.3393,3.3393,3.3393,3.3393,3.3393,3.3393,3.3393,3.3393,3.3393,3.3393,3.3393,3.3393,3.3393,3.3393,3.3393,3.3393,3.3393,3.3393,3.3393,3.3393,3.3393,3.3393,3.3393,3.3393,3.3393,3.3393,3.3393,3.3393,3.3393,3.3393,3.3393,3.3393,3.3393,3.3393,3.3321,3.3248,3.3013,3.2995,3.2542,3.1926,3.1202,3.0894,3.0618,3.0074,2.9572,2.921,2.8884,2.8744,2.86,2.86,2.86,2.86,2.86,2.86,2.86,2.86,2.8625,2.865,2.8767,2.8868,2.8899,2.8691,2.8338,2.8134,2.7501,2.682,2.6239,2.5687,2.5243,2.4782,2.4367,2.4256,2.4169,3.5616,3.5616,3.5616,3.5616,3.5616,3.5616,3.5616,3.5667,3.5893,3.6002,3.6049,3.6245,3.6333,3.627,3.6333,3.6333,3.6312,3.6291,3.635,3.6308,3.6333,3.6643,3.7132,3.7283,3.7632,3.8038,3.8209,3.8209,3.8046,3.7865,3.752,3.6995,3.6669,3.6073,3.5313,3.4808,3.4461,3.4045,3.3701,3.3411,3.3393,3.3393,3.3393,3.3393,3.3393,3.3393,3.3393,3.3393,3.3393,3.3393,3.3393,3.3393,3.3393,3.3393,3.3393,3.3393,3.3393,3.3393,3.3393,3.3393,3.3393,3.3393,3.3393,3.3393,3.3393,3.3393,3.3393,3.3393,3.3393,3.3393,3.3393,3.3393,3.3393,3.3393,3.3393,3.3393,3.3393,3.3393,3.3302,3.3357,3.3339,3.2701,3.2154,3.1878,3.1411,3.0745,3.0183,2.9712,2.9264,2.8889,2.8744,2.86,2.86,2.86,2.86,2.86,2.86,2.86,2.86,2.8637,2.87,2.8755,2.881,2.8834,2.8627,2.8478,2.8385,2.7853,2.7035,2.6435,2.5884,2.5514,2.5134,2.4432,2.4349,3.5616,3.5616,3.5616,3.5616,3.5616,3.5616,3.5616,3.5667,3.6088,3.6284,3.6409,3.6678,3.686,3.688,3.6841,3.6801,3.686,3.69,3.69,3.69,3.6939,3.7113,3.7358,3.7505,3.7721,3.8209,3.8209,3.8209,3.8209,3.8118,3.781,3.7321,3.7357,3.685,3.6146,3.562,3.5186,3.448,3.4045,3.3683,3.3447,3.3393,3.3393,3.3393,3.3393,3.3393,3.3393,3.3393,3.3393,3.3393,3.3393,3.3393,3.3393,3.3393,3.3393,3.3393,3.3393,3.3393,3.3393,3.3393,3.3393,3.3393,3.3393,3.3393,3.3393,3.3393,3.3393,3.3393,3.3393,3.3393,3.3393,3.3393,3.3393,3.3393,3.3393,3.3393,3.3393,3.3408,3.3404,3.3419,3.3433,3.3448,3.2994,3.2776,3.2236,3.1451,3.0835,3.0292,2.9766,2.9264,2.8944,2.8799,2.8654,2.8636,2.86,2.86,2.86,2.86,2.86,2.8612,2.8662,2.87,2.8724,2.8749,2.8755,2.8664,2.8493,2.8178,2.7831,2.7354,2.6907,2.6479,2.5967,2.5189,2.4515,3.5616,3.5616,3.5616,3.5616,3.5616,3.5616,3.5616,3.5644,3.6114,3.6346,3.6454,3.6721,3.6958,3.6958,3.7017,3.7017,3.6939,3.69,3.7017,3.6997,3.6939,3.7246,3.7505,3.7667,3.7792,3.8141,3.8209,3.8209,3.8209,3.8209,3.8154,3.8118,3.7919,3.7538,3.7067,3.6578,3.5783,3.5077,3.4555,3.412,3.3737,3.352,3.3484,3.3393,3.3393,3.3393,3.3393,3.3393,3.3393,3.3393,3.3393,3.3393,3.3393,3.3393,3.3393,3.3393,3.3393,3.3393,3.3393,3.3393,3.3393,3.3393,3.3393,3.3393,3.3393,3.3393,3.3393,3.3393,3.3393,3.3393,3.3393,3.3393,3.3393,3.3393,3.3408,3.3422,3.3422,3.3437,3.3433,3.3477,3.3491,3.3506,3.352,3.3211,3.2968,3.2218,3.1636,3.1093,3.0328,2.9784,2.9318,2.9034,2.8799,2.869,2.8618,2.86,2.86,2.86,2.86,2.86,2.8612,2.8637,2.8687,2.8675,2.87,2.8662,2.8663,2.8567,2.8439,2.8273,2.7886,2.7233,2.671,2.6085,2.528,3.5616,3.5616,3.5616,3.5616,3.5616,3.5616,3.5616,3.5734,3.635,3.6821,3.7018,3.719,3.7283,3.7339,3.7613,3.7703,3.7703,3.7703,3.7667,3.7703,3.7757,3.781,3.7933,3.7933,3.8037,3.8175,3.8209,3.8209,3.8209,3.8209,3.8209,3.8209,3.8209,3.8047,3.7701,3.723,3.6379,3.5711,3.5261,3.4917,3.4301,3.4099,3.3918,3.3429,3.3393,3.3393,3.3393,3.3393,3.3393,3.3393,3.3393,3.3393,3.3393,3.3393,3.3393,3.3393,3.3393,3.3393,3.3393,3.3393,3.3393,3.3393,3.3393,3.3393,3.3393,3.3393,3.3393,3.3393,3.3393,3.3408,3.3393,3.3393,3.3393,3.3408,3.3422,3.3437,3.3466,3.3481,3.3506,3.353,3.3563,3.3563,3.3577,3.3555,3.3334,3.3023,3.2458,3.1854,3.1084,3.0463,3.0082,2.9665,2.9448,2.9127,2.9036,2.886,2.8636,2.8648,2.8667,2.8625,2.8637,2.8644,2.8682,2.8675,2.8675,2.8687,2.8785,2.9034,2.8987,2.8746,2.8274,2.7698,2.7252,2.6909,2.6248,3.5616,3.5616,3.5616,3.5616,3.5616,3.5616,3.5616,3.5778,3.6536,3.7245,3.7703,3.7721,3.7721,3.7827,3.8003,3.8175,3.8141,3.8141,3.8175,3.8158,3.8141,3.8209,3.8209,3.8192,3.8158,3.8209,3.8209,3.8209,3.8209,3.8209,3.8209,3.8209,3.8209,3.8156,3.8029,3.7647,3.6959,3.6345,3.6091,3.5731,3.5062,3.4932,3.457,3.3954,3.3828,3.361,3.3502,3.3393,3.3393,3.3393,3.3393,3.3393,3.3393,3.3393,3.3393,3.3393,3.3393,3.3393,3.3393,3.3393,3.3393,3.3393,3.3393,3.3393,3.3393,3.3393,3.3393,3.3411,3.3408,3.3422,3.3408,3.3408,3.3437,3.3452,3.3466,3.3495,3.352,3.3549,3.3573,3.3615,3.3615,3.3647,3.3661,3.3657,3.355,3.3367,3.3138,3.2528,3.1833,3.1324,3.1051,3.0633,3.027,2.9899,2.9546,2.9432,2.9299,2.9148,2.9094,2.8742,2.87,2.8743,2.8755,2.8724,2.8737,2.8743,2.8839,2.8962,2.909,2.9164,2.8786,2.8484,2.8049,2.7716,2.7275,3.5616,3.5616,3.5616,3.5616,3.5616,3.5616,3.5616,3.5694,3.6478,3.7301,3.7985,3.8072,3.8072,3.8071,3.8123,3.8192,3.8209,3.8209,3.8209,3.8209,3.8209,3.8209,3.8209,3.8209,3.8209,3.8209,3.8209,3.8209,3.8209,3.8209,3.8209,3.8209,3.8209,3.8209,3.8209,3.8209,3.7756,3.7104,3.6995,3.6508,3.5965,3.5765,3.5331,3.4769,3.4392,3.4084,3.3773,3.3447,3.3411,3.3393,3.3393,3.3393,3.3393,3.3393,3.3393,3.3408,3.3408,3.3408,3.3408,3.3408,3.3408,3.3393,3.3393,3.3411,3.3411,3.3393,3.3422,3.347,3.3462,3.3466,3.3466,3.3452,3.3477,3.3491,3.3524,3.3553,3.3591,3.3615,3.3671,3.368,3.3698,3.3712,3.3739,3.3739,3.3671,3.3597,3.3587,3.3172,3.2498,3.2211,3.196,3.1505,3.1104,3.0758,3.0418,3.0152,2.9964,2.9782,2.9605,2.9398,2.9125,2.9089,2.9035,2.8858,2.8798,2.8803,2.8822,2.8846,2.913,2.9416,2.9653,2.9425,2.8971,2.8544,2.8153,3.5616,3.5616,3.5616,3.5616,3.5616,3.5616,3.5616,3.5711,3.6262,3.6958,3.7614,3.7739,3.7739,3.781,3.8089,3.8209,3.8209,3.8209,3.8209,3.8209,3.8209,3.8209,3.8209,3.8209,3.8209,3.8209,3.8209,3.8209,3.8209,3.8209,3.8209,3.8209,3.8209,3.8209,3.8209,3.8209,3.7991,3.7828,3.7738,3.7448,3.6689,3.6544,3.6218,3.5424,3.4953,3.457,3.419,3.3828,3.352,3.3484,3.3465,3.3393,3.3393,3.3393,3.3422,3.3452,3.3481,3.3495,3.3506,3.352,3.3495,3.3437,3.3408,3.3422,3.3452,3.3466,3.3495,3.3524,3.3549,3.3567,3.3549,3.3549,3.3577,3.3577,3.3605,3.3647,3.3671,3.3726,3.3766,3.3748,3.3762,3.3766,3.378,3.378,3.3726,3.3684,3.3657,3.3615,3.3108,3.3058,3.2898,3.2352,3.1909,3.1613,3.1316,3.1055,3.0885,3.0744,3.0567,3.036,3.0062,2.9698,2.9345,2.9198,2.9016,2.8863,2.8929,2.9037,2.9395,2.9689,2.9847,2.994,2.9558,2.9276,2.912,3.5644,3.5616,3.5616,3.5616,3.5616,3.5616,3.5739,3.6075,3.6536,3.7131,3.7667,3.7756,3.7774,3.7862,3.8037,3.8209,3.8209,3.8209,3.8209,3.8209,3.8209,3.8209,3.8209,3.8209,3.8209,3.8209,3.8209,3.8209,3.8209,3.8209,3.8209,3.8209,3.8209,3.8209,3.8209,3.8209,3.8191,3.8118,3.8046,3.7919,3.752,3.7321,3.7031,3.6327,3.5765,3.5349,3.4896,3.4371,3.381,3.3755,3.3592,3.3429,3.3411,3.3441,3.3452,3.3495,3.352,3.3549,3.3577,3.3591,3.3553,3.3495,3.3481,3.3477,3.352,3.352,3.3549,3.3591,3.3633,3.3619,3.3619,3.3601,3.3647,3.3661,3.3675,3.3698,3.3739,3.378,3.3793,3.3788,3.3788,3.3807,3.3807,3.3807,3.378,3.3753,3.3726,3.3684,3.3643,3.3588,3.3533,3.309,3.2793,3.2624,3.2308,3.196,3.1814,3.1691,3.1459,3.119,3.0899,3.0515,3.0021,2.9581,2.9526,2.9422,2.917,2.9249,2.9523,2.9742,2.9913,2.9961,3.0003,2.9863,2.9703,3.5778,3.565,3.5644,3.5694,3.5672,3.5805,3.6203,3.6862,3.7284,3.7721,3.8157,3.814,3.8123,3.8158,3.8209,3.8209,3.8209,3.8209,3.8209,3.8209,3.8209,3.8209,3.8209,3.8209,3.8209,3.8209,3.8209,3.8209,3.8209,3.8209,3.8209,3.8209,3.8209,3.8209,3.8209,3.8209,3.8209,3.8209,3.8191,3.8118,3.7955,3.8028,3.7647,3.7087,3.6707,3.629,3.5765,3.5098,3.4679,3.4335,3.3918,3.361,3.3444,3.3484,3.3495,3.3538,3.3577,3.3619,3.3633,3.3647,3.3633,3.3605,3.3605,3.3619,3.3605,3.3605,3.3633,3.3643,3.3671,3.3643,3.3629,3.3671,3.3698,3.3698,3.3698,3.3739,3.378,3.3807,3.3807,3.3807,3.3807,3.3807,3.3807,3.3807,3.3807,3.3793,3.3766,3.3766,3.3739,3.3753,3.3716,3.3698,3.351,3.3633,3.3335,3.2808,3.269,3.2567,3.219,3.1897,3.161,3.1347,3.0919,3.0534,3.0253,3.0018,2.9721,2.9574,2.9561,2.976,2.998,3.0057,3.0106,3.0128,3.0032,3.6783,3.6744,3.6643,3.6603,3.6626,3.6862,3.6958,3.6941,3.7322,3.7756,3.8209,3.8209,3.8209,3.8209,3.8209,3.8209,3.8209,3.8209,3.8209,3.8209,3.8209,3.8209,3.8209,3.8209,3.8209,3.8209,3.8209,3.8209,3.8209,3.8209,3.8209,3.8209,3.8209,3.8209,3.8209,3.8209,3.8209,3.8209,3.8209,3.8209,3.8209,3.8209,3.7955,3.7756,3.7319,3.6939,3.6576,3.589,3.5364,3.4679,3.4461,3.4117,3.3411,3.3466,3.352,3.3647,3.3698,3.3753,3.3753,3.3758,3.3758,3.3744,3.3726,3.3698,3.3684,3.3671,3.3703,3.3712,3.3739,3.3712,3.3712,3.3739,3.3753,3.3753,3.3753,3.378,3.3807,3.3807,3.3807,3.3807,3.3807,3.3807,3.3807,3.3807,3.3807,3.3807,3.3807,3.3807,3.3807,3.3807,3.3807,3.3807,3.382,3.382,3.3834,3.343,3.344,3.339,3.3022,3.2692,3.2477,3.2201,3.1807,3.136,3.0858,3.0524,3.0224,3.0077,2.9917,2.9895,3.0046,3.0147,3.0204,3.0204,3.0204,3.7247,3.7173,3.7097,3.7039,3.7078,3.7414,3.7395,3.7246,3.7596,3.795,3.8192,3.8209,3.8209,3.8209,3.8209,3.8209,3.8209,3.8209,3.8209,3.8209,3.8209,3.8209,3.8209,3.8209,3.8209,3.8209,3.8209,3.8209,3.8209,3.8209,3.8209,3.8209,3.8209,3.8209,3.8209,3.8209,3.8209,3.8209,3.8209,3.8209,3.8209,3.8225,3.8224,3.8133,3.7658,3.7566,3.7419,3.6731,3.6113,3.5569,3.546,3.4785,3.4036,3.3785,3.3633,3.3726,3.3766,3.3793,3.3793,3.3793,3.3807,3.3807,3.3807,3.378,3.3748,3.3721,3.3766,3.3762,3.3793,3.3807,3.3807,3.3807,3.3807,3.3807,3.3807,3.3807,3.3807,3.3807,3.3807,3.3807,3.3807,3.3807,3.3807,3.3807,3.3807,3.3807,3.3807,3.3807,3.3807,3.3807,3.3807,3.3807,3.3834,3.3847,3.3842,3.3908,3.3911,3.3913,3.393,3.3626,3.337,3.3173,3.2924,3.2187,3.133,3.111,3.098,3.0501,3.0274,3.0318,3.0308,3.0238,3.0261,3.0204,3.0204,3.7396,3.7359,3.7304,3.7285,3.7209,3.7614,3.7685,3.7614,3.802,3.8209,3.8209,3.8209,3.8209,3.8209,3.8209,3.8209,3.8209,3.8209,3.8209,3.8209,3.8209,3.8209,3.8209,3.8209,3.8209,3.8209,3.8209,3.8209,3.8209,3.8209,3.8209,3.8209,3.8209,3.8209,3.8209,3.8209,3.8209,3.8209,3.8209,3.8209,3.8209,3.8241,3.829,3.8289,3.8265,3.8293,3.8145,3.7763,3.727,3.6926,3.6489,3.5687,3.4984,3.4264,3.4037,3.384,3.3885,3.3807,3.3807,3.3807,3.3807,3.3807,3.3807,3.3807,3.3775,3.3775,3.3793,3.3807,3.3807,3.3807,3.3807,3.3807,3.3807,3.3807,3.3807,3.3807,3.3807,3.3807,3.3807,3.3807,3.3807,3.3807,3.3807,3.3807,3.3807,3.3807,3.3807,3.3807,3.3807,3.3807,3.3807,3.3807,3.382,3.386,3.3921,3.3992,3.4179,3.426,3.4375,3.4371,3.3978,3.3975,3.4109,3.3246,3.2391,3.2045,3.1786,3.136,3.1082,3.1102,3.0977,3.0512,3.0364,3.0376,3.0204,3.835,3.8336,3.8216,3.8132,3.8083,3.8185,3.817,3.8121,3.8206,3.8241,3.8209,3.8209,3.8209,3.8209,3.8209,3.8209,3.8225,3.8225,3.8209,3.8209,3.8209,3.8209,3.8209,3.8209,3.8209,3.8209,3.8209,3.8209,3.8209,3.8209,3.8209,3.8209,3.8209,3.8209,3.8209,3.8209,3.8225,3.8225,3.8225,3.8209,3.8209,3.8207,3.8224,3.8272,3.832,3.8385,3.831,3.8269,3.7705,3.7252,3.7088,3.6517,3.5828,3.5052,3.471,3.4605,3.4266,3.4082,3.3935,3.3935,3.3917,3.3825,3.3807,3.3807,3.3807,3.3807,3.3807,3.3807,3.3807,3.3807,3.3807,3.3807,3.3807,3.3807,3.3807,3.3807,3.3807,3.377,3.377,3.3807,3.3807,3.3807,3.3807,3.3807,3.3807,3.3807,3.3807,3.3807,3.3807,3.3807,3.3807,3.3807,3.3807,3.386,3.3947,3.4093,3.4255,3.4348,3.4416,3.4453,3.4518,3.4454,3.4381,3.4103,3.3566,3.3141,3.2716,3.2354,3.2144,3.2079,3.1689,3.1252,3.0911,3.0854,3.0491,3.8707,3.8692,3.8609,3.8544,3.8446,3.8446,3.8399,3.8336,3.8305,3.8289,3.8272,3.8241,3.8225,3.8224,3.8225,3.8257,3.8274,3.8257,3.8276,3.8259,3.8241,3.8225,3.8225,3.8209,3.8209,3.8209,3.8209,3.8209,3.8209,3.8209,3.8209,3.8209,3.8207,3.8241,3.8259,3.8274,3.8256,3.8241,3.8241,3.8242,3.8225,3.8257,3.8289,3.8354,3.8419,3.8467,3.8499,3.8546,3.8274,3.7799,3.7558,3.7244,3.6611,3.5966,3.56,3.5481,3.5202,3.4724,3.4468,3.4307,3.4211,3.4082,3.3862,3.388,3.3807,3.3807,3.3807,3.3807,3.3807,3.3807,3.3807,3.3807,3.3807,3.3807,3.3807,3.3807,3.3605,3.3403,3.3587,3.3807,3.3807,3.3807,3.3807,3.3807,3.3807,3.3807,3.3807,3.3807,3.3807,3.3807,3.3807,3.3807,3.3807,3.3926,3.4074,3.4215,3.4371,3.4428,3.4491,3.4704,3.4841,3.4763,3.4627,3.4429,3.4285,3.4101,3.3683,3.3289,3.3159,3.3111,3.2607,3.2031,3.1732,3.1427,3.1083,3.8707,3.8707,3.8707,3.8624,3.8525,3.8525,3.8478,3.8399,3.8354,3.8336,3.835,3.829,3.8274,3.8274,3.8257,3.8338,3.8352,3.8338,3.8323,3.8323,3.8323,3.8307,3.8274,3.8242,3.8225,3.8209,3.8209,3.8209,3.8209,3.8225,3.8242,3.8242,3.8257,3.8305,3.8338,3.8352,3.8368,3.8322,3.8305,3.8272,3.8289,3.8322,3.837,3.8467,3.8562,3.8676,3.8692,3.8689,3.8673,3.8453,3.8053,3.783,3.7444,3.689,3.6578,3.6358,3.6083,3.5661,3.5334,3.5169,3.4835,3.4468,3.4156,3.4064,3.41,3.4027,3.4027,3.3844,3.3844,3.3825,3.3825,3.3807,3.3807,3.3788,3.3788,3.3807,3.3495,3.3238,3.3495,3.3788,3.3807,3.3807,3.3807,3.3807,3.3807,3.3807,3.3807,3.3807,3.3807,3.3807,3.3807,3.3807,3.3807,3.3965,3.4099,3.4262,3.4383,3.4569,3.4653,3.4963,3.5149,3.5,3.4917,3.4889,3.4747,3.4585,3.4472,3.4168,3.4103,3.3999,3.3447,3.2879,3.2669,3.2344,3.1885,3.8707,3.8707,3.8707,3.8692,3.8658,3.8658,3.8593,3.8494,3.8462,3.8446,3.8399,3.8382,3.8385,3.8385,3.8368,3.8399,3.8433,3.8401,3.8385,3.8385,3.8385,3.8368,3.8338,3.829,3.8241,3.8225,3.8209,3.8209,3.8242,3.8257,3.829,3.829,3.8352,3.8366,3.8366,3.8399,3.8433,3.8385,3.8385,3.8368,3.8336,3.8352,3.8354,3.8417,3.8496,3.8593,3.8658,3.8707,3.8707,3.8652,3.8542,3.8395,3.812,3.7713,3.7401,3.7165,3.689,3.6468,3.6174,3.6064,3.5697,3.555,3.5349,3.522,3.511,3.4802,3.4564,3.4009,3.3954,3.388,3.3862,3.3825,3.3807,3.377,3.3752,3.377,3.3623,3.3532,3.3587,3.3752,3.3807,3.3807,3.3807,3.3807,3.3807,3.3807,3.3807,3.3807,3.3807,3.3807,3.3807,3.382,3.3834,3.3807,3.39,3.4179,3.436,3.458,3.4793,3.5027,3.5157,3.5174,3.5124,3.5053,3.5044,3.495,3.4854,3.4713,3.4732,3.4545,3.4146,3.3738,3.3547,3.3203,3.2707]}]]